[[{"header":{"parameterUnit":"m.s-1","parameterCategory":1,"la1":31.0,"la2":29.5877,"lo1":-88.7671,"lo2":-86.6584,"dy":0.0162,"dx":0.0185,"nx":115,"ny":88,"refTime":"2023-09-09T06:00:00:Z","depth":0,"parameterNumber":2,"parameterNumberName":"U-component_of_WINDS"},"data":[0.0,0.0,0.0,0.0,0.0,0.0,0.0,0.0,0.0,0.0,0.0,0.0,0.0,0.0,0.0,0.0,0.0,0.0,0.0,0.0,0.0,0.0,0.0,0.0,0.0,0.0,0.0,0.0,0.0,0.0,0.0,0.0,0.0,0.0,0.0,0.0,0.0,0.0,0.0,0.0,0.0,0.0,0.0,0.0,0.0,0.0,0.0,0.0,0.0,0.0,0.0,0.0,0.0,0.0,0.0,0.0,0.0,0.0,0.0,0.0,0.0,0.0,0.0,0.0,0.0,0.0,0.0,0.0,0.0,0.0,0.0,0.0,0.0,0.0,0.0,0.0,0.0,0.0,0.0,0.0,0.0,0.0,0.0,0.0,0.0,0.0,0.0,0.0,0.0,0.0,0.0,0.0,0.0,0.0,0.0,0.0,0.0,0.0,0.0,0.0,0.0,0.0,0.0,0.0,0.0,0.0,0.0,0.0,0.0,0.0,0.0,0.0,0.0,0.0,0.0,0.0,0.0,0.0,0.0,0.0,0.0,0.0,0.0,0.0,0.0,0.0,0.0,0.0,0.0,0.0,0.0,0.0,0.0,0.0,0.0,0.0,0.0,0.0,0.0,0.0,0.0,0.0,0.0,0.0,0.0,0.0,0.0,0.0,0.0,0.0,0.0,0.0,0.0,0.0,0.0,0.0,0.0,0.0,0.0,0.0,0.0,0.0,0.0,0.0,0.0,0.0,0.0,0.0,0.0,0.0,0.0,0.0,0.0,0.0,0.0,0.0,0.0,0.0,0.0,0.0,0.0,0.0,0.0,0.0,0.0,0.0,0.0,0.0,0.0,0.0,0.0,0.0,0.0,0.0,0.0,0.0,0.0,0.0,0.0,0.0,0.0,0.0,0.0,0.0,0.0,0.0,0.0,0.0,0.0,0.0,0.0,0.0,0.0,0.0,0.0,0.0,0.0,0.0,0.0,0.0,0.0,0.0,0.0,0.0,0.0,0.0,0.0,0.0,0.0,0.0,0.0,0.0,0.0,0.0,0.0,0.0,0.0,0.0,0.0,0.0,0.0,0.0,0.0,0.0,0.0,0.0,0.0,0.0,0.0,0.0,0.0,0.0,0.0,0.0,0.0,0.0,0.0,0.0,0.0,0.0,0.0,0.0,0.0,0.0,0.0,0.0,0.0,0.0,0.0,0.0,0.0,0.0,0.0,0.0,0.0,0.0,0.0,0.0,0.0,0.0,0.0,0.0,0.0,0.0,0.0,0.0,0.0,0.0,0.0,0.0,0.0,0.0,0.0,0.0,0.0,0.0,0.0,0.0,0.0,0.0,0.0,0.0,0.0,0.0,0.0,0.0,0.0,0.0,0.0,0.0,0.0,0.0,0.0,0.0,0.0,0.0,0.0,0.0,0.0,0.0,0.0,0.0,0.0,0.0,0.0,0.0,0.0,0.0,0.0,0.0,0.0,0.0,0.0,0.0,0.0,0.0,0.0,0.0,0.0,0.0,0.0,0.0,0.0,0.0,0.0,0.0,0.0,0.0,0.0,0.0,0.0,0.0,0.0,0.0,0.0,0.0,0.0,0.0,0.0,0.0,0.0,0.0,0.0,0.0,0.0,0.0,0.0,0.0,0.0,0.0,0.0,0.0,0.0,0.0,0.0,0.0,0.0,0.0,0.0,0.0,0.0,0.0,0.0,0.0,0.0,0.0,0.0,0.0,0.0,0.0,0.0,0.0,0.0,0.0,0.0,0.0,0.0,0.0,0.0,0.0,0.0,0.0,0.0,0.0,0.0,0.0,0.0,0.0,0.0,0.0,0.0,0.0,0.0,0.0,0.0,0.0,0.0,0.0,0.0,0.0,0.0,0.0,0.0,0.0,0.0,0.0,0.0,0.0,0.0,0.0,0.0,0.0,0.0,0.0,0.0,0.0,0.0,0.0,0.0,0.0,0.0,0.0,0.0,0.0,0.0,0.0,0.0,0.0,0.0,0.0,0.0,0.0,0.0,0.0,0.0,0.0,0.0,0.0,0.0,0.0,0.0,0.0,0.0,0.0,0.0,0.0,0.0,0.0,0.0,0.0,0.0,0.0,0.0,0.0,0.0,0.0,0.0,0.0,0.0,0.0,0.0,0.0,0.0,0.0,0.0,0.0,0.0,0.0,0.0,0.0,0.0,0.0,0.0,0.0,0.0,0.0,0.0,0.0,0.0,0.0,0.0,0.0,0.0,0.0,0.0,0.0,0.0,0.0,0.0,0.0,0.0,0.0,0.0,0.0,0.0,0.0,0.0,0.0,0.0,0.0,0.0,0.0,0.0,0.0,0.0,0.0,0.0,0.0,0.0,0.0,0.0,0.0,0.0,0.0,0.0,0.0,0.0,0.0,0.0,0.0,0.0,0.0,0.0,0.0,0.0,0.0,0.0,0.0,0.0,0.0,0.0,0.0,0.0,0.0,0.0,0.0,0.0,0.0,0.0,0.0,0.0,0.0,0.0,0.0,0.0,0.0,0.0,0.0,0.0,0.0,0.0,0.0,0.0,0.0,0.0,0.0,0.0,0.0,0.0,0.0,0.0,0.0,0.0,0.0,0.0,0.0,0.0,0.0,0.0,0.0,0.0,0.0,0.0,0.0,0.0,0.0,0.0,0.0,0.0,0.0,0.0,0.0,0.0,0.0,0.0,0.0,0.0,0.0,0.0,0.0,0.0,0.0,0.0,0.0,0.0,0.0,0.0,0.0,0.0,0.0,0.0,0.0,0.0,0.0,0.0,0.0,0.0,0.0,0.0,0.0,0.0,0.0,0.0,0.0,0.0,0.0,0.0,0.0,0.0,0.0,0.0,0.0,0.0,0.0,0.0,0.0,0.0,0.0,0.0,0.0,0.0,0.0,0.0,0.0,0.0,0.0,0.0,0.0,0.0,0.0,0.0,0.0,0.0,0.0,0.0,0.0,0.0,0.0,0.0,0.0,0.0,0.0,0.0,0.0,0.0,0.0,0.0,0.0,0.0,0.0,0.0,0.0,0.0,0.0,0.0,0.0,0.0,0.0,0.0,0.0,0.0,0.0,0.0,0.0,0.0,0.0,0.0,0.0,0.0,0.0,0.0,0.0,0.0,0.0,0.0,0.0,0.0,0.0,0.0,0.0,0.0,0.0,0.0,0.0,0.0,0.0,0.0,0.0,0.0,0.0,0.0,0.0,0.0,0.0,0.0,0.0,0.0,0.0,0.0,0.0,0.0,0.0,0.0,0.0,0.0,0.0,0.0,0.0,0.0,0.0,0.0,0.0,0.0,0.0,0.0,0.0,0.0,0.0,0.0,0.0,0.0,0.0,0.0,0.0,0.0,0.0,0.0,0.0,0.0,0.0,0.0,0.0,0.0,0.0,0.0,0.0,0.0,0.0,0.0,0.0,0.0,0.0,0.0,0.0,0.0,0.0,0.0,0.0,0.0,0.0,0.0,0.0,0.0,0.0,0.0,0.0,0.0,0.0,0.0,0.0,0.0,0.0,0.0,0.0,0.0,0.0,0.0,0.0,0.0,0.0,0.0,0.0,0.0,0.0,0.0,0.0,0.0,0.0,0.0,0.0,0.0,0.0,0.0,0.0,0.0,0.0,0.0,0.0,0.0,0.0,0.0,0.0,0.0,0.0,0.0,0.0,0.0,0.0,0.0,0.0,0.0,0.0,0.0,0.0,0.0,0.0,0.0,0.0,0.0,0.0,0.0,0.0,0.0,0.0,0.0,0.0,0.0,0.0,0.0,0.0,0.0,0.0,0.0,0.0,0.0,0.0,0.0,0.0,0.0,0.0,0.0,0.0,0.0,0.0,0.0,0.0,0.0,0.0,0.0,0.0,0.0,0.0,0.0,0.0,0.0,0.0,0.0,0.0,0.0,0.0,0.0,0.0,0.0,0.0,0.0,0.0,0.0,0.0,0.0,0.0,0.0,0.0,0.0,0.0,0.0,0.0,0.0,0.0,0.0,0.0,0.0,0.0,0.0,0.0,0.0,0.0,0.0,0.0,0.0,0.0,0.0,0.0,0.0,0.0,0.0,0.0,0.0,0.0,0.0,0.0,0.0,0.0,0.0,0.0,0.0,0.0,0.0,0.0,0.0,0.0,0.0,0.0,0.0,0.0,0.0,0.0,0.0,0.0,0.0,0.0,0.0,0.0,0.0,0.0,0.0,0.0,0.0,0.0,0.0,0.0,0.0,0.0,0.0,0.0,0.0,0.0,0.0,0.0,0.0,0.0,0.0,0.0,0.0,0.0,0.0,0.0,2.0292,0.0,0.0,0.0,0.0,0.0,0.0,0.0,0.0,0.0,0.0,0.0,0.0,0.0,0.0,0.0,0.0,0.0,0.0,0.0,0.0,0.0,0.0,0.0,0.0,0.0,0.0,0.0,0.0,0.0,0.0,0.0,0.0,0.0,0.0,0.0,0.0,0.0,0.0,0.0,0.0,0.0,0.0,0.0,0.0,0.0,0.0,0.0,0.0,0.0,0.0,0.0,0.0,0.0,0.0,0.0,0.0,0.0,0.0,0.0,0.0,0.0,0.0,0.0,0.0,0.0,0.0,0.0,0.0,0.0,0.0,0.0,0.0,0.0,0.0,0.0,0.0,0.0,0.0,0.0,0.0,0.0,0.0,0.0,0.0,0.0,0.0,0.0,0.0,0.0,0.0,0.0,0.0,0.0,0.0,0.0,0.0,0.0,0.0,0.0,0.0,0.0,0.0,0.0,0.0,0.0,0.0,0.0,0.0,0.0,0.0,2.1293,2.0869,2.0927,2.0946,2.0966,0.0,0.0,0.0,0.0,0.0,0.0,0.0,0.0,0.0,0.0,0.0,0.0,0.0,0.0,0.0,0.0,0.0,0.0,0.0,0.0,0.0,0.0,0.0,0.0,0.0,0.0,0.0,0.0,0.0,0.0,0.0,0.0,0.0,0.0,0.0,0.0,0.0,0.0,0.0,0.0,0.0,0.0,0.0,0.0,0.0,0.0,0.0,0.0,0.0,0.0,0.0,0.0,0.0,0.0,0.0,0.0,0.0,0.0,0.0,0.0,0.0,0.0,0.0,0.0,0.0,0.0,0.0,0.0,0.0,0.0,0.0,0.0,0.0,0.0,0.0,0.0,0.0,0.0,0.0,0.0,0.0,0.0,0.0,0.0,0.0,0.0,0.0,0.0,0.0,0.0,0.0,0.0,0.0,0.0,0.0,0.0,0.0,0.0,0.0,0.0,0.0,0.0,0.0,0.0,0.0,0.0,0.0,0.0,0.0,0.0,0.0,0.0,2.1773,2.21,2.21,0.0,0.0,0.0,0.0,0.0,0.0,0.0,0.0,0.0,0.0,0.0,0.0,0.0,0.0,0.0,0.0,0.0,0.0,0.0,0.0,0.0,0.0,0.0,0.0,0.0,0.0,0.0,0.0,0.0,0.0,0.0,0.0,0.0,0.0,0.0,0.0,0.0,0.0,0.0,0.0,0.0,0.0,0.0,0.0,0.0,0.0,0.0,0.0,0.0,0.0,0.0,0.0,0.0,0.0,0.0,0.0,0.0,0.0,0.0,0.0,0.0,0.0,0.0,0.0,0.0,0.0,0.0,0.0,0.0,0.0,0.0,0.0,0.0,0.0,0.0,0.0,0.0,0.0,0.0,0.0,0.0,0.0,0.0,0.0,0.0,0.0,0.0,0.0,0.0,0.0,0.0,0.0,0.0,0.0,0.0,0.0,0.0,0.0,0.0,0.0,0.0,0.0,0.0,0.0,0.0,0.0,0.0,0.0,0.0,0.0,2.2216,2.3706,2.3841,0.0,2.3841,0.0,0.0,0.0,0.0,0.0,0.0,0.0,0.0,0.0,0.0,0.0,0.0,0.0,0.0,0.0,0.0,0.0,0.0,0.0,0.0,0.0,0.0,0.0,0.0,0.0,0.0,0.0,0.0,0.0,0.0,0.0,0.0,0.0,0.0,0.0,0.0,0.0,0.0,0.0,0.0,0.0,0.0,0.0,0.0,0.0,0.0,0.0,0.0,0.0,0.0,0.0,0.0,0.0,0.0,0.0,0.0,0.0,0.0,0.0,0.0,0.0,0.0,0.0,0.0,0.0,0.0,0.0,0.0,0.0,0.0,0.0,0.0,0.0,0.0,0.0,0.0,0.0,0.0,0.0,0.0,0.0,0.0,0.0,0.0,0.0,0.0,0.0,0.0,0.0,0.0,0.0,0.0,0.0,0.0,0.0,0.0,0.0,0.0,0.0,0.0,0.0,0.0,0.0,0.0,0.0,0.0,0.0,0.0,0.0,0.0,2.3563,2.4793,2.5274,2.5522,0.0,0.0,0.0,0.0,0.0,0.0,0.0,0.0,0.0,0.0,0.0,0.0,0.0,0.0,0.0,0.0,0.0,0.0,0.0,0.0,0.0,0.0,0.0,0.0,0.0,0.0,0.0,0.0,0.0,0.0,0.0,0.0,0.0,0.0,0.0,0.0,0.0,0.0,0.0,0.0,0.0,0.0,0.0,0.0,0.0,0.0,0.0,0.0,0.0,0.0,0.0,0.0,0.0,0.0,0.0,0.0,0.0,0.0,0.0,0.0,0.0,0.0,0.0,0.0,0.0,0.0,0.0,0.0,0.0,0.0,0.0,0.0,0.0,0.0,0.0,0.0,0.0,0.0,0.0,0.0,0.0,0.0,0.0,0.0,0.0,0.0,0.0,0.0,0.0,0.0,0.0,0.0,0.0,0.0,0.0,0.0,0.0,0.0,0.0,0.0,0.0,0.0,0.0,0.0,0.0,0.0,0.0,0.0,0.0,0.0,2.3583,2.4735,2.6254,2.6664,2.6726,2.6477,0.0,0.0,0.0,0.0,0.0,0.0,0.0,0.0,0.0,0.0,0.0,0.0,0.0,0.0,0.0,0.0,0.0,0.0,0.0,0.0,0.0,0.0,0.0,0.0,0.0,0.0,0.0,0.0,0.0,0.0,0.0,0.0,0.0,0.0,0.0,0.0,0.0,0.0,0.0,0.0,0.0,0.0,0.0,0.0,0.0,0.0,0.0,0.0,0.0,0.0,0.0,0.0,0.0,0.0,0.0,0.0,0.0,0.0,0.0,0.0,0.0,0.0,0.0,0.0,0.0,0.0,0.0,0.0,0.0,0.0,0.0,0.0,0.0,0.0,0.0,0.0,0.0,0.0,0.0,0.0,0.0,0.0,0.0,0.0,0.0,0.0,0.0,0.0,0.0,0.0,0.0,0.0,0.0,0.0,0.0,0.0,0.0,0.0,0.0,0.0,0.0,0.0,0.0,0.0,0.0,0.0,0.0,0.0,2.2757,2.3631,2.559,2.871,2.8169,2.7316,0.0,0.0,0.0,0.0,0.0,0.0,0.0,0.0,0.0,0.0,0.0,0.0,0.0,0.0,0.0,0.0,0.0,0.0,0.0,0.0,0.0,0.0,0.0,0.0,0.0,0.0,0.0,0.0,0.0,0.0,0.0,0.0,0.0,0.0,0.0,0.0,0.0,0.0,0.0,0.0,0.0,0.0,0.0,0.0,0.0,0.0,0.0,0.0,0.0,0.0,0.0,0.0,0.0,0.0,0.0,0.0,0.0,0.0,0.0,0.0,0.0,0.0,0.0,0.0,0.0,0.0,0.0,0.0,0.0,0.0,0.0,0.0,0.0,0.0,0.0,0.0,0.0,0.0,0.0,0.0,0.0,0.0,0.0,0.0,0.0,0.0,0.0,0.0,0.0,0.0,0.0,0.0,0.0,0.0,0.0,0.0,0.0,0.0,0.0,0.0,0.0,0.0,0.0,0.0,0.0,0.0,0.0,0.0,0.0,2.3582,2.5433,2.7225,2.8855,2.8173,2.7026,0.0,0.0,0.0,0.0,0.0,0.0,0.0,0.0,0.0,0.0,0.0,0.0,0.0,0.0,0.0,0.0,0.0,0.0,0.0,0.0,0.0,0.0,0.0,0.0,0.0,0.0,0.0,0.0,0.0,0.0,0.0,0.0,0.0,0.0,0.0,0.0,0.0,0.0,0.0,0.0,0.0,0.0,0.0,0.0,0.0,0.0,0.0,0.0,0.0,0.0,0.0,0.0,0.0,0.0,0.0,0.0,0.0,0.0,0.0,0.0,0.0,0.0,0.0,0.0,0.0,0.0,0.0,0.0,0.0,0.0,0.0,0.0,0.0,0.0,0.0,0.0,0.0,0.0,0.0,0.0,0.0,0.0,0.0,0.0,0.0,0.0,0.0,0.0,0.0,0.0,0.0,0.0,0.0,0.0,0.0,0.0,0.0,0.0,0.0,0.0,0.0,0.0,0.0,0.0,0.0,0.0,0.0,0.0,0.0,2.4353,0.0,2.8262,2.9224,2.8236,2.6829,0.0,0.0,0.0,0.0,0.0,0.0,0.0,0.0,0.0,0.0,0.0,0.0,0.0,0.0,0.0,0.0,0.0,0.0,0.0,0.0,0.0,0.0,0.0,0.0,0.0,0.0,0.0,0.0,0.0,0.0,0.0,0.0,0.0,0.0,0.0,0.0,0.0,0.0,0.0,0.0,0.0,0.0,0.0,0.0,0.0,0.0,0.0,0.0,0.0,0.0,0.0,0.0,0.0,0.0,0.0,0.0,0.0,0.0,0.0,0.0,0.0,0.0,0.0,0.0,0.0,0.0,0.0,0.0,0.0,0.0,0.0,0.0,0.0,0.0,0.0,0.0,0.0,0.0,0.0,0.0,0.0,0.0,0.0,0.0,0.0,0.0,0.0,0.0,0.0,0.0,0.0,0.0,0.0,0.0,0.0,0.0,0.0,0.0,0.0,0.0,0.0,0.0,0.0,0.0,0.0,0.0,0.0,0.0,2.1793,2.5068,2.6866,2.853,3.0089,2.8521,2.6765,0.0,0.0,0.0,0.0,0.0,0.0,0.0,0.0,0.0,0.0,0.0,0.0,0.0,0.0,0.0,0.0,0.0,0.0,0.0,0.0,0.0,0.0,0.0,0.0,0.0,0.0,0.0,0.0,0.0,0.0,0.0,0.0,0.0,0.0,0.0,0.0,0.0,0.0,0.0,0.0,0.0,0.0,0.0,0.0,0.0,0.0,0.0,0.0,0.0,0.0,0.0,0.0,0.0,0.0,0.0,0.0,0.0,0.0,0.0,0.0,0.0,0.0,0.0,0.0,0.0,0.0,0.0,0.0,0.0,0.0,0.0,0.0,0.0,0.0,0.0,0.0,0.0,0.0,0.0,0.0,0.0,0.0,0.0,0.0,0.0,0.0,0.0,0.0,0.0,0.0,0.0,0.0,0.0,0.0,0.0,0.0,0.0,0.0,0.0,0.0,0.0,0.0,0.0,0.0,0.0,0.0,0.0,0.0,0.0,2.8159,2.8347,2.914,3.0591,2.8616,2.6365,0.0,0.0,0.0,0.0,0.0,0.0,0.0,0.0,0.0,0.0,0.0,0.0,0.0,0.0,0.0,0.0,0.0,0.0,0.0,0.0,0.0,0.0,0.0,0.0,0.0,0.0,0.0,0.0,0.0,0.0,0.0,0.0,0.0,0.0,0.0,0.0,0.0,0.0,0.0,0.0,0.0,0.0,0.0,0.0,0.0,0.0,0.0,0.0,0.0,0.0,0.0,0.0,0.0,0.0,0.0,0.0,0.0,0.0,0.0,0.0,0.0,0.0,0.0,0.0,0.0,0.0,0.0,0.0,0.0,0.0,0.0,0.0,0.0,0.0,0.0,0.0,0.0,0.0,0.0,0.0,0.0,0.0,0.0,0.0,0.0,0.0,0.0,0.0,0.0,0.0,0.0,0.0,0.0,0.0,0.0,0.0,0.0,0.0,0.0,0.0,0.0,0.0,0.0,0.0,0.0,0.0,0.0,0.0,0.0,3.116,3.0716,3.0998,3.2276,3.0226,2.7761,2.4948,0.0,0.0,0.0,0.0,0.0,0.0,0.0,0.0,0.0,0.0,0.0,0.0,0.0,0.0,0.0,0.0,0.0,0.0,0.0,0.0,0.0,0.0,0.0,0.0,0.0,0.0,0.0,0.0,0.0,0.0,0.0,0.0,0.0,0.0,0.0,0.0,0.0,0.0,0.0,0.0,0.0,0.0,0.0,0.0,0.0,0.0,0.0,0.0,0.0,0.0,0.0,0.0,0.0,0.0,0.0,0.0,0.0,0.0,0.0,0.0,0.0,0.0,0.0,0.0,0.0,0.0,0.0,0.0,0.0,0.0,0.0,0.0,0.0,0.0,0.0,0.0,0.0,0.0,0.0,0.0,0.0,0.0,0.0,0.0,0.0,0.0,0.0,0.0,0.0,0.0,0.0,0.0,0.0,0.0,0.0,0.0,0.0,0.0,0.0,0.0,0.0,0.0,0.0,0.0,0.0,0.0,0.0,0.0,3.4328,3.3906,3.402,3.4716,3.3032,3.058,0.0,0.0,0.0,0.0,0.0,0.0,0.0,0.0,0.0,0.0,0.0,0.0,0.0,0.0,0.0,0.0,0.0,0.0,0.0,0.0,0.0,0.0,0.0,0.0,0.0,0.0,0.0,0.0,0.0,0.0,0.0,0.0,0.0,0.0,0.0,0.0,0.0,0.0,0.0,0.0,0.0,0.0,0.0,0.0,0.0,0.0,0.0,0.0,0.0,0.0,0.0,0.0,0.0,0.0,0.0,0.0,0.0,0.0,0.0,0.0,0.0,0.0,0.0,0.0,0.0,0.0,0.0,0.0,0.0,0.0,0.0,0.0,0.0,0.0,0.0,0.0,0.0,0.0,0.0,0.0,0.0,0.0,0.0,0.0,0.0,0.0,0.0,0.0,0.0,0.0,0.0,0.0,0.0,0.0,0.0,0.0,0.0,0.0,0.0,0.0,0.0,0.0,0.0,0.0,0.0,0.0,0.0,0.0,0.0,3.6528,3.8272,3.8691,3.7784,3.5089,3.2061,0.0,0.0,0.0,0.0,0.0,0.0,0.0,0.0,0.0,0.0,0.0,0.0,0.0,0.0,0.0,0.0,0.0,0.0,0.0,0.0,0.0,0.0,0.0,0.0,0.0,0.0,0.0,0.0,0.0,0.0,0.0,0.0,0.0,0.0,0.0,0.0,0.0,0.0,0.0,0.0,0.0,0.0,0.0,0.0,0.0,0.0,0.0,0.0,0.0,0.0,0.0,0.0,0.0,0.0,0.0,0.0,0.0,0.0,0.0,0.0,0.0,0.0,0.0,0.0,0.0,0.0,0.0,0.0,0.0,0.0,0.0,0.0,0.0,0.0,0.0,0.0,0.0,0.0,0.0,0.0,0.0,0.0,0.0,0.0,0.0,0.0,0.0,0.0,0.0,0.0,0.0,0.0,0.0,0.0,0.0,0.0,0.0,0.0,0.0,0.0,0.0,0.0,0.0,0.0,0.0,0.0,0.0,0.0,3.3736,3.7529,4.0588,4.176,4.0917,3.7821,3.4404,0.0,0.0,0.0,0.0,0.0,0.0,0.0,0.0,0.0,0.0,0.0,0.0,0.0,0.0,0.0,0.0,0.0,0.0,0.0,0.0,0.0,0.0,0.0,0.0,0.0,0.0,0.0,0.0,0.0,0.0,0.0,0.0,0.0,0.0,0.0,0.0,0.0,0.0,0.0,0.0,0.0,0.0,0.0,0.0,0.0,0.0,0.0,0.0,0.0,0.0,0.0,0.0,0.0,0.0,0.0,0.0,0.0,0.0,0.0,0.0,0.0,0.0,0.0,0.0,0.0,0.0,0.0,0.0,0.0,0.0,0.0,0.0,0.0,0.0,0.0,0.0,0.0,0.0,0.0,0.0,0.0,0.0,0.0,0.0,0.0,0.0,0.0,0.0,0.0,0.0,0.0,0.0,0.0,0.0,0.0,0.0,0.0,0.0,0.0,0.0,0.0,0.0,0.0,0.0,0.0,0.0,0.0,0.0,3.5395,3.7971,4.1566,4.3479,4.3387,4.0515,3.7088,0.0,0.0,0.0,0.0,0.0,0.0,0.0,0.0,0.0,0.0,0.0,0.0,0.0,0.0,0.0,0.0,0.0,0.0,0.0,0.0,0.0,0.0,0.0,0.0,0.0,0.0,0.0,0.0,0.0,0.0,0.0,0.0,0.0,0.0,0.0,0.0,0.0,0.0,0.0,0.0,0.0,0.0,0.0,0.0,0.0,0.0,0.0,0.0,0.0,0.0,0.0,0.0,0.0,0.0,0.0,0.0,0.0,0.0,0.0,0.0,0.0,0.0,0.0,0.0,0.0,0.0,0.0,0.0,0.0,0.0,0.0,0.0,0.0,0.0,0.0,0.0,0.0,0.0,0.0,0.0,0.0,0.0,0.0,0.0,0.0,0.0,0.0,0.0,0.0,0.0,0.0,0.0,0.0,0.0,0.0,0.0,0.0,0.0,0.0,0.0,0.0,0.0,0.0,0.0,0.0,0.0,0.0,0.0,3.7287,4.0286,4.2396,4.3479,4.3479,4.1034,3.837,0.0,0.0,0.0,0.0,0.0,0.0,0.0,0.0,0.0,0.0,0.0,0.0,0.0,0.0,0.0,0.0,0.0,0.0,0.0,0.0,0.0,0.0,0.0,0.0,0.0,0.0,0.0,0.0,0.0,0.0,0.0,0.0,0.0,0.0,0.0,0.0,0.0,0.0,0.0,0.0,0.0,0.0,0.0,0.0,0.0,0.0,0.0,0.0,2.836,0.0,0.0,0.0,0.0,0.0,0.0,0.0,0.0,0.0,0.0,0.0,0.0,0.0,0.0,0.0,0.0,0.0,0.0,0.0,0.0,0.0,0.0,0.0,0.0,0.0,0.0,0.0,0.0,0.0,0.0,0.0,0.0,0.0,0.0,0.0,0.0,0.0,0.0,0.0,0.0,0.0,0.0,0.0,0.0,0.0,0.0,0.0,0.0,0.0,0.0,0.0,0.0,0.0,0.0,0.0,0.0,0.0,0.0,0.0,3.8248,4.1038,4.2671,4.3479,4.3424,4.1901,3.9533,0.0,0.0,0.0,0.0,0.0,0.0,0.0,0.0,0.0,0.0,0.0,0.0,0.0,0.0,0.0,0.0,0.0,0.0,0.0,0.0,0.0,0.0,0.0,0.0,0.0,0.0,0.0,0.0,0.0,0.0,0.0,0.0,0.0,0.0,0.0,0.0,0.0,0.0,0.0,0.0,0.0,0.0,0.0,0.0,0.0,0.0,0.0,0.0,0.0,0.0,0.0,0.0,0.0,0.0,0.0,0.0,0.0,0.0,0.0,0.0,0.0,0.0,0.0,0.0,0.0,0.0,0.0,0.0,0.0,0.0,0.0,0.0,0.0,0.0,0.0,0.0,0.0,0.0,0.0,0.0,0.0,0.0,0.0,0.0,0.0,0.0,0.0,0.0,0.0,0.0,0.0,0.0,0.0,0.0,0.0,0.0,0.0,0.0,0.0,0.0,0.0,0.0,0.0,0.0,0.0,0.0,0.0,3.544,3.9093,4.1589,4.3094,4.3846,4.3846,4.2965,4.0598,3.6633,0.0,0.0,0.0,0.0,0.0,0.0,0.0,0.0,0.0,0.0,0.0,0.0,0.0,0.0,0.0,0.0,0.0,0.0,0.0,0.0,0.0,0.0,0.0,0.0,0.0,0.0,0.0,0.0,0.0,0.0,0.0,0.0,0.0,0.0,0.0,0.0,0.0,0.0,2.4626,2.7477,0.0,0.0,0.0,0.0,0.0,0.0,0.0,0.0,3.0011,0.0,0.0,0.0,0.0,0.0,0.0,0.0,0.0,0.0,0.0,0.0,0.0,0.0,0.0,0.0,0.0,0.0,0.0,0.0,0.0,0.0,0.0,0.0,0.0,0.0,0.0,0.0,0.0,0.0,0.0,0.0,0.0,0.0,0.0,0.0,0.0,0.0,0.0,0.0,0.0,0.0,0.0,0.0,0.0,0.0,0.0,0.0,0.0,0.0,0.0,0.0,0.0,0.0,0.0,0.0,0.0,3.3183,3.7367,4.1001,4.403,4.5021,4.5498,4.5461,4.4066,4.1423,3.7422,0.0,0.0,0.0,0.0,0.0,0.0,0.0,0.0,0.0,0.0,0.0,0.0,0.0,0.0,0.0,0.0,0.0,0.0,0.0,0.0,0.0,0.0,0.0,0.0,0.0,0.0,0.0,0.0,0.0,0.0,0.0,0.0,0.0,0.0,0.0,0.0,0.0,0.0,0.0,3.0098,3.1508,0.0,0.0,0.0,0.0,0.0,0.0,0.0,0.0,3.2008,0.0,0.0,0.0,0.0,0.0,0.0,0.0,0.0,0.0,0.0,0.0,0.0,0.0,0.0,0.0,0.0,0.0,0.0,0.0,0.0,0.0,0.0,0.0,0.0,0.0,0.0,0.0,0.0,0.0,0.0,0.0,0.0,0.0,0.0,0.0,0.0,0.0,0.0,0.0,0.0,0.0,0.0,0.0,0.0,0.0,0.0,0.0,0.0,0.0,0.0,0.0,0.0,0.0,0.0,0.0,3.4449,3.9258,4.2928,4.5223,4.57,4.5902,4.5865,4.4323,4.1607,0.0,0.0,0.0,0.0,0.0,0.0,0.0,0.0,0.0,0.0,0.0,0.0,0.0,0.0,0.0,0.0,0.0,0.0,0.0,0.0,0.0,0.0,0.0,0.0,0.0,0.0,0.0,0.0,0.0,0.0,0.0,0.0,0.0,0.0,0.0,0.0,0.0,0.0,0.0,0.0,3.2393,3.3902,3.5871,0.0,0.0,0.0,0.0,0.0,0.0,3.4977,3.3864,0.0,0.0,0.0,0.0,0.0,0.0,0.0,0.0,0.0,0.0,0.0,0.0,0.0,0.0,0.0,0.0,0.0,0.0,0.0,0.0,0.0,0.0,0.0,0.0,0.0,0.0,0.0,0.0,0.0,0.0,0.0,0.0,0.0,0.0,0.0,0.0,0.0,0.0,0.0,0.0,0.0,0.0,0.0,0.0,0.0,0.0,0.0,0.0,0.0,0.0,0.0,0.0,0.0,0.0,0.0,3.533,4.0855,4.4525,4.6067,4.6305,4.6397,4.6361,4.4342,4.1423,0.0,0.0,0.0,0.0,0.0,0.0,0.0,0.0,0.0,0.0,0.0,0.0,0.0,0.0,0.0,0.0,0.0,0.0,0.0,0.0,0.0,0.0,0.0,0.0,0.0,0.0,0.0,0.0,0.0,0.0,0.0,0.0,0.0,0.0,0.0,0.0,0.0,0.0,0.0,0.0,0.0,3.5926,3.8357,3.6885,0.0,0.0,0.0,0.0,3.6616,3.6883,0.0,0.0,0.0,0.0,0.0,0.0,0.0,0.0,0.0,0.0,0.0,0.0,0.0,0.0,0.0,0.0,0.0,0.0,0.0,0.0,0.0,0.0,0.0,0.0,0.0,0.0,0.0,0.0,0.0,0.0,0.0,0.0,0.0,0.0,0.0,0.0,0.0,0.0,0.0,0.0,0.0,0.0,0.0,0.0,0.0,0.0,0.0,0.0,0.0,0.0,0.0,0.0,0.0,0.0,0.0,0.0,3.6156,4.1699,4.5351,4.6911,4.7664,4.8031,4.7976,4.4397,4.0873,0.0,0.0,0.0,0.0,0.0,0.0,0.0,0.0,0.0,0.0,0.0,0.0,0.0,0.0,0.0,0.0,0.0,0.0,0.0,0.0,0.0,0.0,0.0,0.0,0.0,0.0,0.0,0.0,0.0,0.0,0.0,0.0,0.0,0.0,0.0,0.0,0.0,0.0,0.0,0.0,0.0,3.6651,3.882,3.8415,3.7615,0.0,0.0,3.8958,3.9741,4.0374,0.0,0.0,0.0,0.0,0.0,0.0,0.0,0.0,0.0,0.0,0.0,0.0,0.0,0.0,0.0,0.0,0.0,0.0,0.0,0.0,0.0,0.0,0.0,0.0,0.0,0.0,0.0,0.0,0.0,0.0,0.0,0.0,0.0,0.0,0.0,0.0,0.0,0.0,0.0,0.0,0.0,0.0,0.0,0.0,0.0,0.0,0.0,0.0,0.0,0.0,0.0,0.0,0.0,0.0,0.0,3.2999,3.7037,4.3424,4.7095,4.7774,4.8122,4.8324,4.8306,4.4856,4.146,0.0,0.0,0.0,0.0,0.0,0.0,0.0,0.0,0.0,0.0,0.0,0.0,0.0,0.0,0.0,0.0,0.0,0.0,0.0,0.0,0.0,0.0,0.0,0.0,0.0,0.0,0.0,0.0,0.0,0.0,0.0,0.0,0.0,0.0,0.0,0.0,0.0,0.0,0.0,0.0,0.0,0.0,3.9639,4.0384,0.0,0.0,0.0,4.1173,4.1129,0.0,0.0,0.0,0.0,0.0,0.0,0.0,0.0,0.0,0.0,0.0,0.0,0.0,0.0,0.0,0.0,0.0,0.0,0.0,0.0,0.0,0.0,0.0,0.0,0.0,0.0,0.0,0.0,0.0,0.0,0.0,0.0,0.0,0.0,0.0,0.0,0.0,0.0,0.0,0.0,0.0,0.0,0.0,0.0,0.0,0.0,0.0,0.0,0.0,0.0,0.0,0.0,0.0,0.0,0.0,0.0,0.0,3.7845,4.4727,4.8324,4.8324,4.8324,4.8324,4.8269,4.5369,0.0,0.0,0.0,0.0,0.0,0.0,0.0,0.0,0.0,0.0,0.0,0.0,0.0,0.0,0.0,0.0,0.0,0.0,0.0,0.0,0.0,0.0,0.0,0.0,0.0,0.0,0.0,1.6977,0.0,0.0,0.0,0.0,0.0,0.0,0.0,0.0,0.0,0.0,0.0,0.0,0.0,0.0,3.8928,4.0448,4.2143,4.3249,0.0,0.0,4.315,4.2865,4.3809,4.295,0.0,0.0,0.0,0.0,0.0,0.0,0.0,0.0,0.0,0.0,0.0,0.0,0.0,0.0,0.0,0.0,0.0,0.0,0.0,0.0,0.0,0.0,0.0,0.0,0.0,0.0,0.0,0.0,0.0,0.0,0.0,0.0,0.0,0.0,0.0,0.0,0.0,0.0,0.0,0.0,0.0,0.0,0.0,0.0,0.0,0.0,0.0,0.0,0.0,0.0,0.0,0.0,0.0,0.0,0.0,3.8652,4.5002,4.8324,4.8324,4.8324,4.8324,4.8269,4.592,4.2433,0.0,0.0,0.0,0.0,0.0,0.0,0.0,0.0,0.0,0.0,0.0,0.0,0.0,0.0,0.0,0.0,0.0,0.0,0.0,0.0,0.0,0.0,0.0,0.0,0.0,0.0,0.0,0.0,0.0,0.0,0.0,0.0,0.0,0.0,0.0,0.0,0.0,0.0,0.0,0.0,0.0,3.9695,4.1226,4.3352,4.4749,0.0,0.0,4.4989,4.5688,4.636,4.5037,3.9642,0.0,0.0,0.0,0.0,0.0,0.0,0.0,0.0,0.0,0.0,0.0,0.0,0.0,0.0,0.0,0.0,0.0,0.0,0.0,0.0,0.0,0.0,0.0,0.0,0.0,0.0,0.0,0.0,0.0,0.0,0.0,0.0,0.0,0.0,0.0,0.0,0.0,0.0,0.0,0.0,0.0,0.0,0.0,0.0,0.0,0.0,0.0,0.0,0.0,0.0,0.0,0.0,0.0,3.3807,3.867,4.5039,4.8324,4.8324,4.8324,4.8324,4.8324,4.6452,4.3644,0.0,0.0,0.0,0.0,0.0,0.0,0.0,0.0,0.0,0.0,0.0,0.0,0.0,0.0,0.0,0.0,0.0,0.0,0.0,0.0,0.0,0.0,0.0,0.0,0.0,0.0,0.0,0.0,2.9876,3.1025,3.0494,0.0,0.0,0.0,0.0,0.0,0.0,0.0,0.0,0.0,0.0,4.1338,4.3301,4.5176,0.0,0.0,4.6394,4.6302,4.6136,4.6231,4.4818,4.0296,3.8135,0.0,0.0,0.0,0.0,0.0,0.0,0.0,0.0,0.0,0.0,0.0,0.0,0.0,0.0,0.0,0.0,0.0,0.0,0.0,0.0,0.0,0.0,0.0,0.0,0.0,0.0,0.0,0.0,0.0,0.0,0.0,0.0,0.0,0.0,0.0,0.0,0.0,0.0,0.0,0.0,0.0,0.0,0.0,0.0,0.0,0.0,0.0,0.0,0.0,0.0,0.0,0.0,3.4045,3.8689,4.5039,4.8324,4.8324,4.8324,4.8324,4.8288,4.7205,4.5094,0.0,0.0,0.0,0.0,0.0,0.0,0.0,0.0,0.0,0.0,0.0,0.0,0.0,0.0,0.0,0.0,0.0,0.0,0.0,0.0,0.0,0.0,0.0,0.0,0.0,0.0,0.0,0.0,3.2084,3.2293,2.9863,0.0,0.0,0.0,0.0,0.0,0.0,0.0,0.0,0.0,0.0,4.3074,4.466,4.6248,4.7132,4.693,4.6893,4.6617,4.5808,4.5607,4.4377,4.0901,0.0,0.0,0.0,0.0,0.0,0.0,0.0,0.0,0.0,0.0,0.0,0.0,0.0,0.0,0.0,0.0,0.0,0.0,0.0,0.0,0.0,0.0,0.0,0.0,0.0,0.0,0.0,0.0,0.0,0.0,1.4414,0.0,0.0,0.0,0.0,0.0,0.0,0.0,0.0,0.0,0.0,0.0,0.0,0.0,0.0,0.0,0.0,0.0,0.0,0.0,0.0,0.0,0.0,3.4614,3.8707,4.5057,4.8324,4.8324,4.8324,4.8324,4.8306,4.8269,4.6728,4.3479,0.0,0.0,0.0,0.0,0.0,0.0,0.0,0.0,0.0,0.0,0.0,0.0,0.0,0.0,0.0,0.0,0.0,0.0,0.0,0.0,0.0,0.0,0.0,0.0,0.0,0.0,2.7952,3.005,3.0509,0.0,0.0,0.0,0.0,0.0,0.0,0.0,0.0,0.0,0.0,4.1828,4.4791,4.4831,4.6103,4.6838,4.6085,4.5957,4.5663,4.4911,4.4745,4.392,0.0,0.0,0.0,0.0,0.0,0.0,0.0,0.0,0.0,0.0,0.0,0.0,0.0,0.0,0.0,0.0,0.0,0.0,0.0,0.0,0.0,0.0,0.0,0.0,0.0,0.0,0.0,2.3694,2.2887,0.0,0.0,0.0,0.0,0.0,0.0,0.0,0.0,0.0,0.0,0.0,3.466,3.4936,0.0,0.0,0.0,0.0,0.0,0.0,0.0,0.0,0.0,0.0,0.0,0.0,3.5422,3.9533,4.5296,4.8324,4.8324,4.8324,4.8324,4.8324,4.8324,4.6783,4.3589,0.0,0.0,0.0,0.0,0.0,0.0,0.0,0.0,0.0,0.0,0.0,0.0,0.0,0.0,0.0,0.0,0.0,0.0,0.0,0.0,0.0,0.0,0.0,0.0,0.0,2.9879,0.0,0.0,0.0,0.0,0.0,0.0,0.0,0.0,0.0,0.0,0.0,3.821,4.0548,4.2691,4.4391,4.5387,4.5957,4.6397,0.0,0.0,0.0,0.0,0.0,0.0,0.0,0.0,0.0,0.0,0.0,0.0,0.0,0.0,3.7202,3.4327,3.4311,3.4493,3.3695,0.0,0.0,0.0,0.0,0.0,0.0,0.0,0.0,0.0,0.0,0.0,0.0,0.0,0.0,2.8484,0.0,2.6924,0.0,0.0,0.0,0.0,0.0,0.0,0.0,0.0,3.6229,3.8065,3.957,3.9845,4.0267,0.0,3.968,3.6707,0.0,0.0,0.0,0.0,0.0,0.0,0.0,0.0,3.6523,4.0359,4.559,4.8324,4.8324,4.8324,4.8324,4.8324,4.8324,4.7333,4.5223,4.2855,3.9845,0.0,0.0,0.0,0.0,0.0,0.0,0.0,0.0,0.0,0.0,0.0,0.0,0.0,0.0,0.0,0.0,0.0,0.0,0.0,0.0,0.0,0.0,0.0,3.2339,0.0,0.0,0.0,0.0,0.0,0.0,0.0,0.0,0.0,3.3269,3.7219,4.0867,4.2923,4.4154,4.4965,4.5406,0.0,0.0,0.0,0.0,0.0,0.0,0.0,4.324,4.2488,4.2632,4.2665,4.2132,4.2261,4.2592,4.3125,0.0,0.0,3.9272,3.91,3.9286,3.8498,3.8366,3.8617,3.9389,3.9556,3.9798,0.0,0.0,0.0,0.0,0.0,0.0,0.0,0.0,3.4119,3.3275,0.0,3.177,0.0,0.0,0.0,0.0,0.0,3.4449,0.0,0.0,4.3479,4.5021,4.3681,4.4342,4.4764,4.4727,4.3222,4.2433,4.2066,3.689,0.0,0.0,0.0,0.0,0.0,0.0,3.7991,4.1295,4.5902,4.8324,4.8324,4.8324,4.8324,4.8324,4.8324,4.8288,4.8214,4.6012,4.4048,4.2323,3.6321,0.0,0.0,0.0,0.0,0.0,0.0,0.0,0.0,0.0,0.0,0.0,0.0,0.0,0.0,0.0,0.0,0.0,0.0,0.0,0.0,3.2577,0.0,0.0,0.0,0.0,0.0,0.0,0.0,0.0,0.0,0.0,3.667,3.9937,4.2965,4.4525,0.0,0.0,0.0,0.0,4.5369,4.392,4.3608,4.3369,4.2653,4.313,4.3864,4.4599,0.0,0.0,4.5938,4.5333,4.4819,4.4837,4.6049,4.6177,4.3159,4.2687,4.2562,4.1822,4.1755,4.1971,4.2687,4.2928,4.315,3.9806,0.0,0.0,0.0,0.0,3.7202,3.8377,3.99,4.0469,4.0139,3.9129,3.8579,0.0,0.0,0.0,0.0,0.0,0.0,4.0029,4.2176,4.414,4.5406,4.6085,4.6324,4.6728,4.7223,4.6801,4.6599,4.6507,4.4947,4.0781,3.4284,0.0,0.0,0.0,0.0,4.0451,4.3644,4.6746,4.8324,4.8324,4.8324,4.8324,4.8324,4.8324,4.8324,4.8306,4.7627,4.6269,4.4085,4.1148,0.0,0.0,0.0,0.0,0.0,0.0,0.0,0.0,0.0,0.0,0.0,0.0,0.0,0.0,0.0,0.0,0.0,0.0,0.0,3.5,3.7055,3.6597,0.0,0.0,0.0,0.0,0.0,0.0,0.0,0.0,0.0,4.1405,4.2928,4.4397,0.0,0.0,4.5443,4.5535,4.5755,4.5938,4.6067,4.5571,0.0,4.57,4.5443,4.5278,4.5516,4.6232,4.6948,4.7517,4.7425,4.7278,4.726,4.7645,4.7627,4.6912,4.6618,4.6526,4.636,4.6341,4.6396,4.6617,4.6672,4.6727,4.3957,4.2356,4.0869,4.0547,4.113,4.1589,4.2525,4.3773,4.425,4.3993,4.324,4.3075,4.1662,3.9331,3.8065,0.0,0.0,0.0,4.3112,4.5424,4.5902,4.6636,4.7553,4.759,4.7847,4.8306,4.8324,4.8324,4.8306,4.7976,4.5241,4.0194,0.0,0.0,3.8707,4.0432,4.258,4.5149,4.7241,4.8324,4.8324,4.8324,4.8324,4.8324,4.8324,4.8324,4.8324,4.8324,4.7627,4.6177,4.3975,4.0855,0.0,0.0,0.0,0.0,0.0,0.0,0.0,0.0,0.0,0.0,0.0,2.3914,2.3895,0.0,0.0,0.0,3.3495,3.6578,4.0469,4.0561,0.0,0.0,0.0,0.0,0.0,0.0,0.0,3.7319,4.0561,4.3075,4.3883,4.4966,4.5847,4.6324,4.6232,4.6195,4.6361,0.0,4.7407,4.7572,4.7168,4.7021,4.7498,4.7462,4.7462,4.7792,4.8233,4.871,4.9187,4.9297,4.9297,4.9297,4.9297,4.9297,4.9297,4.9297,4.904,4.8453,4.8324,4.8324,4.8324,4.8324,4.8324,4.6482,4.6312,4.4056,4.3808,4.4894,4.4948,4.5406,4.6067,4.6085,4.5681,4.5057,4.5755,4.4856,4.2745,4.2011,0.0,4.4984,4.5002,4.6177,4.8306,4.8324,4.8324,4.8324,4.8306,4.8324,4.8324,4.8379,4.8416,4.8398,4.7774,4.704,4.6269,4.4819,4.3608,4.2782,4.3406,4.4617,4.6287,4.7774,4.8508,4.8508,4.8434,4.8416,4.8416,4.8343,4.8324,4.8324,4.8324,4.8324,4.8214,4.5461,4.3424,4.2268,0.0,0.0,0.0,0.0,0.0,0.0,0.0,0.0,0.0,0.0,0.0,0.0,0.0,0.0,0.0,4.0194,0.0,4.57,4.3167,0.0,0.0,0.0,3.7893,3.7863,3.935,4.0653,4.1405,0.0,0.0,4.5002,4.6397,4.7333,4.7407,4.7976,4.8159,4.7498,4.8691,4.9389,4.8655,4.8508,4.8489,4.86,4.9114,4.9738,5.0362,5.082,5.0692,5.0692,5.0729,5.0765,5.071,5.0802,5.0765,5.0802,5.0692,5.0306,4.8838,4.8581,4.8563,4.8618,4.8655,4.8673,4.699,4.7405,4.7325,4.7125,4.678,4.7216,4.7572,4.7737,4.7737,4.7627,4.7462,4.7645,4.7407,4.6874,4.6673,4.6911,4.7443,4.7443,4.7737,4.8306,4.8324,4.8324,4.8324,4.8324,4.8324,4.8343,4.8967,4.926,4.9297,4.9738,4.9829,4.9627,4.9242,4.8031,4.6049,4.6177,4.7388,4.9627,5.0013,5.0215,5.0196,4.9609,4.9279,4.926,4.8636,4.8324,4.8324,4.8324,4.8324,4.8288,4.7572,4.5957,4.3314,3.9258,0.0,0.0,0.0,0.0,0.0,0.0,0.0,0.0,0.0,2.9292,2.9879,0.0,3.7092,0.0,4.2341,4.5278,4.5828,4.4672,0.0,0.0,4.1515,4.1167,4.1185,4.3112,4.4544,4.4745,4.6159,4.748,4.8306,4.8746,4.9242,4.9811,4.9499,4.937,4.9848,5.0215,5.0453,5.0251,5.0215,5.0215,5.0215,5.0362,5.06,5.0765,5.082,5.082,5.082,5.082,5.082,5.082,5.082,5.082,5.0857,5.082,5.071,5.0306,5.0215,5.0215,5.0215,5.0196,5.0196,4.6986,4.7374,4.8032,4.8023,4.7619,4.8889,4.9205,4.8893,4.8875,4.8655,4.8324,4.8324,4.8324,4.8324,4.8324,4.8324,4.8343,4.871,4.8875,4.8893,4.9242,4.9407,4.9426,4.9426,4.9407,4.9444,4.9903,5.0123,5.0141,5.0582,5.082,5.082,5.082,5.0288,4.9315,4.893,4.9444,5.0784,5.082,5.082,5.0802,5.0362,4.9774,4.9022,4.8214,4.7425,4.6728,4.6342,4.6159,4.6159,4.6507,4.5736,4.3571,4.0799,3.6982,0.0,0.0,0.0,0.0,0.0,0.0,0.0,0.0,0.0,0.0,0.0,4.0451,4.0818,4.425,4.6305,4.5938,4.5498,4.5021,4.4507,4.4452,4.4727,4.5461,4.6728,4.7682,4.8049,4.8875,4.9591,5.0068,5.0435,5.0802,5.1279,5.1242,5.1187,5.1334,5.1628,5.1867,5.1867,5.1885,5.1867,5.1867,5.1885,5.1867,5.1885,5.1885,5.1867,5.1885,5.1885,5.1885,5.1885,5.1885,5.1867,5.1885,5.1885,5.1885,5.1885,5.1867,5.161,5.0967,5.082,5.082,4.731,4.7251,4.7916,4.809,4.8167,5.0046,5.0383,4.9621,4.9719,4.9334,4.8636,4.8618,4.8618,4.8636,4.8618,4.8618,4.8673,4.9407,4.9738,4.9793,5.0472,5.082,5.082,5.082,5.082,5.082,5.0894,5.0967,5.0967,5.1059,5.1114,5.1114,5.1114,5.1463,5.2087,5.1362,5.0996,5.1114,5.1073,5.1018,5.089,5.0758,4.9933,4.832,4.7459,4.6323,4.4912,4.4195,4.3809,4.3828,4.4488,4.458,4.3956,4.168,3.9038,0.0,3.377,0.0,0.0,0.0,0.0,0.0,0.0,0.0,0.0,4.1937,4.2873,4.3864,4.5773,4.6746,4.625,4.6305,4.6654,4.7333,4.7535,4.8177,4.9536,4.9738,5.005,5.0857,5.0949,5.0986,5.1151,5.1738,5.2142,5.2362,5.2858,5.3059,5.2674,5.2968,5.3298,5.3371,5.3463,5.3518,5.3518,5.3518,5.3518,5.3518,5.3518,5.3518,5.3518,5.3408,5.3335,5.3316,5.3188,5.3133,5.3206,5.317,5.317,5.3096,5.3078,5.2674,5.1591,5.1261,5.1114,5.0016,4.9537,5.0238,5.0132,4.9673,5.0609,5.0504,4.9727,5.0305,5.049,5.0343,5.0325,5.0306,5.0325,5.0343,5.0325,5.0343,5.049,5.0563,5.0582,5.0729,5.082,5.082,5.082,5.082,5.0839,5.1463,5.1775,5.1775,5.2435,5.2766,5.2766,5.2747,5.2839,5.2926,0.0,0.0,0.0,5.2498,5.2126,5.1469,5.066,4.9501,4.8061,4.7183,0.0,4.5663,4.5443,4.5407,4.5461,4.559,0.0,0.0,0.0,0.0,0.0,0.0,0.0,0.0,0.0,0.0,0.0,4.0653,4.0983,4.1148,4.2433,4.414,4.6195,4.6269,4.6599,4.7737,4.8489,4.8948,4.9114,4.9682,5.0251,5.0545,5.0563,5.0875,5.1665,5.1756,5.205,5.2637,5.2894,5.3243,5.3794,5.4087,5.4381,5.4785,5.4418,5.4179,5.4197,5.4638,5.5078,5.5152,5.5078,5.4987,5.5133,5.5133,5.5097,5.5023,5.4546,5.4197,5.4161,5.3647,5.3261,5.3243,5.3206,5.3316,5.3225,5.3243,5.3115,5.2803,5.2747,5.2747,5.0997,0.0,5.1049,5.0994,0.0,5.1389,5.1419,5.0962,5.0522,5.0299,5.0277,5.0277,5.0441,5.082,5.082,5.082,5.082,5.1206,5.1389,5.1408,5.1811,5.1995,5.1977,5.1995,5.2013,5.2013,5.2417,5.2601,5.2619,5.2631,5.2662,5.268,5.2662,5.2662,5.2662,5.2271,5.2112,5.2149,5.2371,5.2108,5.1376,5.0874,4.9876,4.8335,4.7854,0.0,0.0,0.0,0.0,0.0,0.0,0.0,0.0,4.4764,0.0,4.2396,4.1901,4.1497,4.113,4.2176,4.3387,4.4562,4.5039,4.4764,4.3571,4.4947,4.6379,4.7572,4.7682,4.8049,4.8857,4.9682,5.0196,5.0196,5.0563,5.0949,5.1298,5.1389,5.1701,5.2491,5.2949,5.3353,5.3757,5.4179,5.4509,5.4913,5.4987,5.5133,5.5445,5.5262,5.4987,5.4987,5.528,5.5574,5.5592,5.5592,5.5611,5.5592,5.5592,5.5592,5.5592,5.5262,5.4987,5.4968,5.4638,5.4399,5.4381,5.4399,5.4399,5.4381,5.4399,5.4381,5.4344,5.3757,5.3206,5.1555,5.1403,5.1403,5.1336,5.1265,5.1826,5.2097,5.2019,0.0,0.0,0.0,5.0118,5.053,5.1224,5.1242,5.1165,5.1078,5.1862,5.2155,5.2053,5.2834,5.3298,5.3408,5.3427,5.3396,5.3419,5.3438,5.3376,5.3207,5.277,5.2432,5.2318,5.2432,5.2384,5.2171,5.2269,5.1904,5.1157,5.1586,5.1589,5.1063,5.0943,5.0249,4.8821,4.854,4.7821,4.6543,4.6254,4.6194,4.6324,4.6324,4.6085,4.5626,4.5571,4.5039,4.3956,4.4415,4.5076,4.5755,4.6397,4.7333,4.8673,4.8746,4.8122,4.6654,4.7774,4.86,4.8728,4.9389,4.9774,4.9793,5.0527,5.1022,5.1004,5.1151,5.1518,5.2105,5.2344,5.2711,5.3371,5.4087,5.462,5.462,5.5133,5.5666,5.5776,5.5794,5.5886,5.5978,5.5941,5.5886,5.6051,5.6216,5.6088,5.6051,5.6106,5.6014,5.6161,5.6106,5.6014,5.5996,5.5904,5.5794,5.5812,5.5721,5.5537,5.5556,5.5482,5.5592,5.5592,5.5592,5.5592,5.5482,5.4564,5.3739,5.2756,5.2147,5.2147,5.1792,5.1217,5.1329,5.1329,5.1418,5.1721,5.1803,5.177,5.177,5.2164,5.2876,5.2876,5.2503,5.1991,5.2718,5.2693,5.2108,5.2839,5.3573,5.4216,5.4234,5.4282,5.4333,5.4321,5.3972,5.3406,5.3853,5.3821,5.3282,5.3821,5.3528,5.2437,5.285,5.2477,5.1208,5.0976,5.0837,5.0664,5.0467,4.9931,4.905,4.8452,4.8065,4.7922,4.7373,4.7324,4.7919,4.7976,4.8251,4.8857,4.8857,4.9114,4.9554,4.9701,4.9829,4.9921,5.005,5.0215,5.0435,5.0453,5.005,4.9187,4.9279,4.9682,5.0362,5.0527,5.0618,5.0674,5.1353,5.183,5.1922,5.2472,5.2931,5.3078,5.3628,5.4069,5.4234,5.4932,5.5427,5.5445,5.5592,5.5978,5.6473,5.6638,5.684,5.7244,5.706,5.6987,5.7464,5.7666,5.7666,5.7483,5.7629,5.7501,5.7666,5.7538,5.7464,5.7446,5.6987,5.6657,5.6638,5.618,5.5776,5.5702,5.5592,5.5739,5.5776,5.5794,5.5757,5.5776,5.5445,5.5244,5.3281,5.2959,5.2959,5.2773,5.2469,5.2452,5.2215,5.184,5.2111,5.2248,5.2217,5.2236,5.2624,5.3266,5.3722,5.3722,5.343,5.4172,5.4127,5.343,5.3769,5.3838,5.3837,5.3806,5.3817,5.3849,5.3849,5.3691,5.335,5.3313,5.3092,5.2809,5.3148,5.3148,5.2866,5.2809,5.2421,5.1792,5.1246,5.0784,5.0324,4.9812,4.9385,4.903,4.9409,4.9501,4.9177,5.0001,5.0435,5.0337,5.0328,5.049,5.0857,5.049,5.0417,5.0784,5.082,5.082,5.082,5.082,5.082,5.082,5.082,5.0839,5.0894,5.049,5.0398,5.0784,5.1169,5.1444,5.1463,5.2179,5.2821,5.3261,5.3647,5.4032,5.4436,5.4785,5.5023,5.5115,5.5757,5.6235,5.6235,5.6638,5.6987,5.7391,5.7446,5.7611,5.7941,5.7703,5.7556,5.7905,5.7978,5.7978,5.7978,5.7978,5.7978,5.7978,5.7978,5.7978,5.7978,5.7611,5.7483,5.7446,5.7116,5.695,5.6859,5.6895,5.6895,5.6895,5.6895,5.6895,5.6895,5.6895,5.6583,5.3653,5.3518,5.3518,5.3518,5.3518,5.3518,5.3145,5.2587,5.257,5.2588,5.2588,5.239,5.2654,5.335,5.3971,5.4143,5.411,5.4774,5.4659,5.4041,5.4161,5.4008,5.3598,5.3543,5.3576,5.3567,5.3602,5.3528,5.3317,5.3018,5.2839,5.2779,5.2693,5.2857,5.3334,5.2839,5.2571,5.2536,5.183,5.1201,5.0601,5.0056,4.9742,4.9795,5.0614,5.0909,5.0554,5.194,5.2617,5.2345,5.2291,5.2252,5.2234,5.1683,5.1353,5.1334,5.1353,5.1334,5.1334,5.1334,5.1353,5.1334,5.1353,5.161,5.2123,5.1701,5.1353,5.1426,5.194,5.2325,5.2582,5.3078,5.3794,5.4546,5.4675,5.4876,5.5482,5.5757,5.5868,5.5941,5.6583,5.7079,5.7189,5.7611,5.7905,5.7905,5.7978,5.7978,5.7978,5.7978,5.7978,5.7978,5.7978,5.7978,5.7978,5.7978,5.7978,5.7978,5.7978,5.7978,5.7978,5.7978,5.796,5.7923,5.7941,5.785,5.7941,5.7923,5.7886,5.7813,5.7776,5.7886,5.7831,5.785,5.7629,5.411,5.3551,5.3534,5.3518,5.3518,5.3518,5.345,5.3365,5.3382,5.3365,5.326,5.2612,5.2689,5.3241,5.3403,5.3162,5.2724,5.3185,5.3238,5.2782,5.313,5.3776,5.4264,5.4356,5.4442,5.4426,5.4417,5.4029,5.3491,5.4035,5.4329,5.4337,5.3741,5.3413,5.3413,5.343,5.3397,5.3381,5.2617,5.2175,5.2088,5.2045,5.1958,5.1897,5.1416,5.1454,5.1732,5.1494,5.1892,5.2937,5.303,5.3078,5.3078,5.3004,5.2968,5.2949,5.2949,5.2986,5.2968,5.3004,5.2913,5.2986,5.2913,5.2949,5.3096,5.3041,5.2986,5.3023,5.3059,5.339,5.4087,5.4252,5.462,5.5354,5.5482,5.5519,5.5739,5.6253,5.6693,5.6693,5.7354,5.7886,5.7813,5.7905,5.7978,5.7978,5.7978,5.7978,5.7978,5.7978,5.7978,5.7978,5.7978,5.7978,5.7978,5.7978,5.7978,5.7978,5.7978,5.7978,5.7978,5.7978,5.7978,5.7978,5.7978,5.7978,5.7978,5.7978,5.7978,5.7978,5.7978,5.7978,5.7978,5.7978,5.7795,5.4837,5.416,5.4143,5.3907,5.3534,5.3518,5.3518,5.3518,5.3518,5.3518,5.3433,5.312,5.3134,5.3477,5.3895,5.3878,5.3714,5.4389,5.4331,5.3714,5.3938,5.4009,5.3908,5.388,5.3943,5.3977,5.3946,5.3766,5.3618,5.3849,5.3929,5.3929,5.3601,5.3518,5.3518,5.3518,5.3518,5.3501,5.3179,5.3039,5.2908,5.2135,5.1627,5.1623,5.1768,5.1505,5.1119,5.1793,5.2225,5.2042,5.2335,5.2751,5.3182,5.2769,5.2769,5.3146,5.3206,5.3206,5.3206,5.3206,5.3206,5.3206,5.3206,5.339,5.3867,5.3922,5.4087,5.4473,5.4179,5.4252,5.4987,5.5097,5.5427,5.6124,5.6308,5.6473,5.6969,5.7281,5.7501,5.7519,5.7795,5.7978,5.7978,5.7978,5.7978,5.7978,5.7978,5.7978,5.7978,5.7978,5.7978,5.7978,5.7978,5.7978,5.7978,5.7978,5.7978,5.7978,5.7978,5.7978,5.7978,5.7978,5.7978,5.7978,5.7978,5.7978,5.7978,5.7978,5.7978,5.7978,5.7978,5.7978,5.7978,5.7978,5.7978,5.5564,5.4921,5.4685,5.4296,5.3805,5.3585,5.3518,5.3518,5.3518,5.3518,5.3518,5.3518,5.3518,5.3551,5.4042,5.4328,5.4374,5.4878,5.4835,5.4328,5.4328,5.3994,5.3501,5.3518,5.3518,5.3518,5.3501,5.3501,5.3518,5.3518,5.3518,5.3518,5.3518,5.3518,5.3518,5.3518,5.3518,5.3518,5.3518,5.3518,5.3348,5.2418,5.1742,5.1586,5.2027,5.1775,5.0827,5.2175,5.2725,5.2088,5.2287,5.2672,5.316,5.2707,5.2552,5.2806,5.2725,5.2725,5.2875,5.3094,5.331,5.3494,5.3702,5.4087,5.4583,5.4711,5.5097,5.5739,5.539,5.5354,5.5794,5.5941,5.6271,5.6987,5.7134,5.7391,5.7868,5.7978,5.796,5.7978,5.796,5.7978,5.7978,5.7978,5.7978,5.7978,5.7978,5.7978,5.7978,5.7978,5.7978,5.7978,5.7978,5.7978,5.7978,5.7978,5.7978,5.7978,5.7978,5.7978,5.7978,5.7978,5.7978,5.7978,5.7978,5.7978,5.7978,5.7978,5.7978,5.7978,5.7978,5.7978,5.7978,5.7978,5.7978,5.6342,5.5598,5.4888,5.46,5.4499,5.3822,5.3534,5.3585,5.3518,5.3518,5.3518,5.3518,5.3518,5.3518,5.3618,5.3568,5.3568,5.3668,5.3734,5.3618,5.3618,5.3568,5.3501,5.3518,5.3518,5.3518,5.3518,5.3518,5.3518,5.3518,5.3518,5.3518,5.3518,5.3518,5.3518,5.3518,5.3518,5.3518,5.3518,5.3518,5.3501,5.3416,5.2942,5.2334,5.2315,5.2311,5.2166,5.2268,5.2892,5.4255,5.353,5.3228,5.3255,5.3165,5.2858,5.2311,5.1665,5.1615,5.2293,5.3013,5.3662,5.4312,5.4932,5.5464,5.5519,5.5556,5.5904,5.6675,5.6675,5.6675,5.664,5.6703,5.7042,5.7721,5.7886,5.7905,5.796,5.7978,5.7978,5.7978,5.7978,5.7978,5.7978,5.7978,5.7978,5.7978,5.7978,5.7978,5.7978,5.7978,5.7978,5.7978,5.7978,5.7978,5.7978,5.7978,5.7978,5.7978,5.7978,5.7978,5.7978,5.7978,5.7978,5.7978,5.7978,5.7978,5.7978,5.7978,5.7978,5.7978,5.7978,5.7978,5.7978,5.7978,5.7978,5.707,5.6342,5.5615,5.531,5.5226,5.4515,5.4194,5.416,5.3687,5.3518,5.3518,5.3518,5.3518,5.3518,5.3518,5.3518,5.3518,5.3518,5.3518,5.3518,5.3518,5.3518,5.3518,5.3518,5.3518,5.3518,5.3518,5.3518,5.3518,5.3518,5.3518,5.3518,5.3518,5.3518,5.3518,5.3518,5.3518,5.3518,5.3518,5.3518,5.3518,5.3518,5.3348,5.3095,5.3078,5.2821,5.2345,5.2716,5.306,5.3127,5.3258,5.3335,5.3282,5.3281,5.3399,5.3603,5.3401,5.3616,5.4255,5.4583,5.4856,5.5126,5.5409,5.5823,5.6253,5.64,5.6693,5.7336,5.7556,5.7418,5.7079,5.724,5.7685,5.7923,5.7978,5.7978,5.7978,5.7978,5.7978,5.7978,5.7978,5.7978,5.7978,5.7978,5.7978,5.7978,5.7978,5.7978,5.7978,5.7978,5.7978,5.7978,5.7978,5.7978,5.7978,5.7978,5.7978,5.7978,5.7978,5.7978,5.7978,5.7978,5.7978,5.7978,5.7978,5.7978,5.7978,5.7978,5.7978,5.7978,5.7978,5.7978,5.7978,5.7978,5.7978,5.7594,5.707,5.6359,5.6072,5.5987,5.5277,5.4955,5.4854,5.4177,5.3856,5.3822,5.3619,5.3518,5.3518,5.3518,5.3518,5.3518,5.3518,5.3518,5.3518,5.3518,5.3518,5.3518,5.3518,5.3518,5.3518,5.3518,5.3518,5.3518,5.3518,5.3518,5.3518,5.3518,5.3518,5.3518,5.3518,5.3518,5.3518,5.3518,5.3518,5.3518,5.3518,5.3518,5.3501,5.3518,5.3264,5.2723,5.3177,5.3346,5.3134,5.3286,5.3399,5.3326,5.2892,5.3092,5.3971,5.3638,5.3971,5.5054,5.5075,5.5106,5.5577,5.5655,5.5904,5.6394,5.6449,5.6739,5.712,5.7247,5.6997,5.6773,5.6978,5.7247,5.7364,5.7708,5.7886,5.7726,5.7839,5.7978,5.7978,5.7978,5.7978,5.7978,5.7978,5.7978,5.7978,5.7978,5.7978,5.7978,5.7978,5.7978,5.7978,5.7978,5.7978,5.7978,5.7978,5.7978,5.7978,5.7978,5.7978,5.7978,5.7978,5.7978,5.7978,5.7978,5.7978,5.7978,5.7978,5.7978,5.7978,5.7978,5.7978,5.7978,5.7978,5.7978,5.7881,5.7729,5.7103,5.6816,5.6714,5.6021,5.5733,5.5598,5.4921,5.4566,5.4397,5.3856,5.3602,5.3518,5.3518,5.3518,5.3518,5.3518,5.3518,5.3518,5.3518,5.3518,5.3518,5.3518,5.3518,5.3518,5.3518,5.3518,5.3518,5.3518,5.3518,5.3518,5.3518,5.3518,5.3518,5.3518,5.3518,5.3518,5.3518,5.3518,5.3518,5.3518,5.3518,5.3518,5.3518,5.3484,5.3433,5.3483,5.3761,5.4253,5.3874,5.3505,5.3314,5.2347,5.2035,5.3173,5.2278,5.2566,5.4307,5.4181,5.4591,5.538,5.5669,5.5717,5.5808,5.5806,5.5859,5.5968,5.5931,5.578,5.578,5.5836,5.5931,5.5893,5.7029,5.7565,5.7284,5.7546,5.7978,5.7978,5.7978,5.7978,5.7978,5.7978,5.7978,5.7978,5.7978,5.7978,5.7978,5.7978,5.7978,5.7978,5.7978,5.7978,5.7978,5.7978,5.7978,5.7978,5.7978,5.7978,5.7978,5.7978,5.7978,5.7978,5.7978,5.7978,5.7978,5.7978,5.7978,5.7978,5.7978,5.7978,5.7978,5.7978,5.7978,5.7881,5.7848,5.7645,5.7543,5.7459,5.6765,5.6461,5.6393,5.5683,5.5074,5.4617,5.4346,5.3974,5.3602,5.3518,5.3518,5.3518,5.3518,5.3518,5.3518,5.3518,5.3518,5.3518,5.3518,5.3518,5.3518,5.3518,5.3518,5.3518,5.3518,5.3518,5.3518,5.3518,5.3518,5.3518,5.3518,5.3518,5.3518,5.3518,5.3518,5.3518,5.3518,5.3518,5.3518,5.3518,5.3518,5.3518,5.3518,5.3618,5.3832,5.4106,5.427,5.3994,5.3301,5.3229,5.4061,5.3835,5.3983,5.5071,5.5119,5.5049,5.5611,5.5712,5.5688,5.5706,5.5649,5.5649,5.5649,5.5706,5.5552,5.5144,5.5419,5.5592,5.5706,5.6598,5.7184,5.7033,5.7498,5.7932,5.7978,5.7978,5.7978,5.7978,5.7978,5.7978,5.7978,5.7978,5.7978,5.7978,5.7978,5.7978,5.7978,5.7978,5.7978,5.7978,5.7978,5.7978,5.7978,5.7978,5.7978,5.7978,5.7978,5.7978,5.7978,5.7978,5.7978,5.7978,5.7978,5.7978,5.7978,5.7978,5.7978,5.7978,5.7978,5.7978,5.7881,5.7881,5.7881,5.7881,5.7848,5.7374,5.7222,5.7103,5.6427,5.5852,5.5446,5.5124,5.46,5.4025,5.3907,5.3737,5.3534,5.3518,5.3518,5.3518,5.3518,5.3518,5.3518,5.3518,5.3518,5.3518,5.3518,5.3518,5.3518,5.3518,5.3518,5.3518,5.3518,5.3518,5.3518,5.3518,5.3518,5.3518,5.3518,5.3518,5.3518,5.3518,5.3518,5.3518,5.3518,5.3518,5.3518,5.3518,5.3518,5.3551,5.3929,5.4154,5.4154,5.3749,5.3832,5.4374,5.4419,5.4572,5.5495,5.5091,5.5042,5.5203,5.5042,5.4878,5.4878,5.4896,5.4896,5.4878,5.4818,5.4713,5.4374,5.4544,5.4896,5.4896,5.5798,5.6492,5.6861,5.7302,5.7726,5.7867,5.7978,5.7978,5.7978,5.7978,5.7978,5.7978,5.7978,5.7978,5.7978,5.7978,5.8033,5.8033,5.7978,5.7978,5.7978,5.7978,5.7978,5.7978,5.7978,5.7978,5.7978,5.7978,5.7978,5.7978,5.7978,5.7978,5.7978,5.7978,5.7978,5.7978,5.7978,5.7978,5.7978,5.7978,5.7978,5.7881,5.7881,5.7881,5.7881,5.7881,5.7831,5.7797,5.7729,5.7171,5.6765,5.6579,5.6021,5.5294,5.4702,5.4465,5.4126,5.3619,5.3518,5.3518,5.3518,5.3518,5.3518,5.3518,5.3518,5.3518,5.3518,5.3518,5.3518,5.3518,5.3518,5.3518,5.3518,5.3518,5.3518,5.3518,5.3518,5.3518,5.3518,5.3518,5.3518,5.3518,5.3518,5.3518,5.3518,5.3518,5.3518,5.3518,5.3518,5.3518,5.3501,5.3551,5.3618,5.3568,5.3501,5.3815,5.4374,5.3881,5.4264,5.4939,5.4391,5.3946,5.4437,5.4042,5.3518,5.3734,5.3783,5.3783,5.3783,5.3734,5.3618,5.3618,5.3685,5.3668,5.3717,5.4896,5.5928,5.6776,5.6987,5.7506,5.8019,5.8097,5.8162,5.8364,5.8327,5.8327,5.8309,5.8364,5.8437,5.8437,5.8547,5.8272,5.8327,5.8584,5.8657,5.8877,5.8877,5.8877,5.8822,5.8565,5.8217,5.8052,5.7978,5.7978,5.7978,5.7978,5.7978,5.7978,5.7978,5.7978,5.7978,5.7978,5.7978,5.7978,5.7978,5.7978,5.7881,5.7881,5.7881,5.7881,5.7881,5.7881,5.7881,5.7865,5.7695,5.7273,5.685,5.6613,5.5767,5.4668,5.4583,5.4194,5.3653,5.3518,5.3518,5.3518,5.3518,5.3518,5.3518,5.3518,5.3518,5.3518,5.3518,5.3518,5.3518,5.3518,5.3518,5.3518,5.3518,5.3518,5.3518,5.3518,5.3518,5.3518,5.3518,5.3518,5.3518,5.3518,5.3518,5.3518,5.3518,5.3518,5.3518,5.3518,5.3518,5.3518,5.3518,5.3518,5.3518,5.3501,5.3618,5.3717,5.3668,5.3618,5.3898,5.38,5.3618,5.3717,5.3668,5.3518,5.3518,5.3518,5.3518,5.3518,5.3518,5.3518,5.3518,5.3518,5.3518,5.3618,5.4397,5.5424,5.662,5.7442,5.8063,5.8761,5.9292,5.9516,5.9546,5.9612,5.963,5.963,5.9612,5.9593,5.9446,5.9483,5.9373,5.9667,5.9869,5.9832,5.985,5.985,5.985,5.9813,5.9373,5.8602,5.8309,5.7978,5.7978,5.7978,5.7978,5.7978,5.7978,5.7978,5.7978,5.7978,5.7978,5.7978,5.7978,5.7978,5.7978,5.7881,5.7881,5.7881,5.7881,5.7881,5.7881,5.7881,5.7881,5.7865,5.7476,5.6917,5.6799,5.5987,5.4668,5.4583,5.4194,5.3568,5.3518,5.3518,5.3518,5.3518,5.3518,5.3518,5.3518,5.3518,5.3518,5.3518,5.3518,5.3518,5.3518,5.3518,5.3518,5.3518,5.3518,5.3518,5.3518,5.3518,5.3518,5.3518,5.3518,5.3518,5.3518,5.3518,5.3518,5.3518,5.3518,5.3518,5.3518,5.3518,5.3518,5.3518,5.3518,5.3518,5.3518,5.3518,5.3518,5.3518,5.3518,5.3518,5.3518,5.3518,5.3518,5.3518,5.3518,5.3518,5.3518,5.3518,5.3518,5.3518,5.3518,5.3518,5.3518,5.367,5.3991,5.4359,5.511,5.6335,5.7017,5.7836,5.8624,5.9347,5.9885,5.9953,6.0207,6.0371,6.0364,6.0236,6.0272,6.0272,6.0419,6.0511,6.0621,6.0603,6.0438,6.0364,6.0364,6.0327,6.0346,5.9832,5.9098,5.8492,5.807,5.7978,5.7978,5.7978,5.7978,5.7978,5.7978,5.7978,5.7978,5.7978,5.7978,5.7978,5.7978,5.7978,5.7881,5.7881,5.7881,5.7881,5.7881,5.7881,5.7814,5.7746,5.7695,5.7306,5.6731,5.6681,5.5818,5.46,5.4566,5.4194,5.3518,5.3518,5.3518,5.3518,5.3518,5.3518,5.3518,5.3518,5.3518,5.3518,5.3518,5.3518,5.3518,5.3518,5.3518,5.3518,5.3518,5.3518,5.3518,5.3518,5.3518,5.3518,5.3518,5.3518,5.3518,5.3518,5.3518,5.3518,5.3518,5.3518,5.3518,5.3518,5.3518,5.3518,5.3518,5.3518,5.3518,5.3518,5.3518,5.3518,5.3518,5.3518,5.3518,5.3518,5.3518,5.3518,5.3518,5.3518,5.3518,5.3518,5.3518,5.3518,5.3518,5.3518,5.3518,5.3518,5.3822,5.4313,5.4652,5.5076,5.5744,5.6452,5.7237,5.8026,5.8884,5.9257,5.9528,5.995,6.0549,6.0879,6.0957,6.1245,6.1227,6.1263,6.1208,6.1117,6.1025,6.086,6.0823,6.0823,6.0768,6.0676,6.007,5.9391,5.8657,5.8253,5.807,5.7978,5.7978,5.7978,5.7978,5.7978,5.7978,5.7978,5.7978,5.7978,5.7978,5.7978,5.7978,5.7881,5.7881,5.7881,5.7881,5.7881,5.7865,5.7543,5.7036,5.7036,5.663,5.6072,5.5953,5.5412,5.4566,5.4482,5.4194,5.3551,5.3518,5.3518,5.3518,5.3518,5.3518,5.3518,5.3518,5.3518,5.3518,5.3518,5.3518,5.3518,5.3518,5.3518,5.3518,5.3518,5.3518,5.3518,5.3518,5.3518,5.3518,5.3518,5.3518,5.3518,5.3518,5.3518,5.3518,5.3518,5.3518,5.3518,5.3518,5.3518,5.3518,5.3518,5.3518,5.3518,5.3518,5.3518,5.3518,5.3518,5.3518,5.3518,5.3518,5.3518,5.3518,5.3518,5.3518,5.3518,5.3518,5.3518,5.3518,5.3518,5.3518,5.3518,5.3518,5.3923,5.4532,5.5124,5.5719,5.649,5.7225,5.7967,5.8676,5.9452,6.0107,6.0149,6.0678,6.1118,6.1335,6.1618,6.2155,6.2063,6.1817,6.1587,6.1233,6.151,6.1419,6.1451,6.1482,6.152,6.1153,6.0456,5.9869,5.9153,5.8309,5.8052,5.7978,5.7978,5.7978,5.7978,5.7978,5.7978,5.7978,5.7978,5.7978,5.7978,5.7978,5.7978,5.7881,5.7848,5.7526,5.7391,5.7323,5.7002,5.6647,5.6342,5.6292,5.5886,5.531,5.5175,5.4769,5.411,5.4076,5.3839,5.3602,5.3518,5.3518,5.3518,5.3518,5.3518,5.3518,5.3518,5.3518,5.3518,5.3518,5.3518,5.3518,5.3518,5.3518,5.3518,5.3518,5.3518,5.3518,5.3518,5.3518,5.3518,5.3518,5.3518,5.3518,5.3518,5.3518,5.3518,5.3518,5.3518,5.3518,5.3518,5.3518,5.3518,5.3518,5.3518,5.3518,5.3518,5.3518,5.3518,5.3518,5.3518,5.3518,5.3518,5.3518,5.3518,5.3518,5.3518,5.3518,5.3518,5.3518,5.3518,5.3518,5.3518,5.3518,5.3518,5.3957,5.4921,5.5463,5.6139,5.7074,5.7754,5.8101,5.86,5.9158,5.9551,5.9988,6.0562,6.092,6.0769,6.0845,6.124,6.1202,6.1055,6.1184,6.1204,6.1734,6.1984,6.2089,6.219,6.2333,6.1814,6.0988,6.0456,5.985,5.8896,5.7997,5.7978,5.7978,5.7978,5.7978,5.7978,5.7978,5.7978,5.7978,5.7978,5.7978,5.7978,5.7978,5.7543,5.7509,5.69,5.663,5.6545,5.6021,5.57,5.5547,5.5547,5.5124,5.4532,5.4414,5.4093,5.3636,5.3568,5.3518,5.3518,5.3518,5.3518,5.3518,5.3518,5.3518,5.3518,5.3518,5.3518,5.3518,5.3518,5.3518,5.3518,5.3518,5.3518,5.3518,5.3518,5.3518,5.3518,5.3518,5.3518,5.3518,5.3518,5.3518,5.3518,5.3518,5.3518,5.3518,5.3518,5.3518,5.3518,5.3518,5.3518,5.3518,5.3518,5.3518,5.3518,5.3518,5.3518,5.3518,5.3518,5.3518,5.3518,5.3518,5.3518,5.3518,5.3518,5.3518,5.3518,5.3518,5.3518,5.3518,5.3518,5.3518,5.3518,5.3518,5.416,5.5108,5.5564,5.6359,5.734,5.7797,5.7976,5.8065,5.8511,5.8875,5.9178,5.9621,5.996,6.0229,6.0291,6.0353,6.0291,6.0414,6.058,6.0778,6.1247,6.1436,6.1474,6.2232,6.2471,6.1689,6.0988,6.0536,6.0034,5.8988,5.8052,5.7997,5.7978,5.7978,5.7978,5.7978,5.7978,5.7978,5.7978,5.7978,5.7978,5.7978,5.7978,5.6072,5.6072,5.5936,5.5902,5.5869,5.575,5.531,5.4837,5.4786,5.4363,5.3788,5.3687,5.367,5.3518,5.3518,5.3518,5.3518,5.3518,5.3518,5.3518,5.3518,5.3518,5.3518,5.3518,5.3518,5.3518,5.3518,5.3518,5.3518,5.3518,5.3518,5.3518,5.3518,5.3518,5.3518,5.3518,5.3518,5.3518,5.3518,5.3518,5.3518,5.3518,5.3518,5.3518,5.3518,5.3518,5.3518,5.3518,5.3518,5.3518,5.3518,5.3518,5.3518,5.3518,5.3518,5.3518,5.3518,5.3518,5.3518,5.3518,5.3518,5.3518,5.3518,5.3518,5.3518,5.3518,5.3518,5.3518,5.3518,5.3518,5.3518,5.3518,5.389,5.4668,5.5344,5.5987,5.6833,5.7425,5.7746,5.7802,5.798,5.8192,5.8564,5.8875,5.9128,5.946,5.9656,5.9786,5.985,5.9977,6.0149,6.0353,6.0537,6.0598,6.058,6.1661,6.2205,6.1035,6.034,6.0048,5.9454,5.8657,5.8125,5.8015,5.7978,5.7978,5.7978,5.7978,5.7978,5.7978,5.7978,5.7978,5.7978,5.7978,5.7978,5.5716,5.5683,5.5294,5.5124,5.5074,5.4718,5.438,5.4059,5.4025,5.3839,5.3585,5.3518,5.3518,5.3518,5.3518,5.3518,5.3518,5.3518,5.3518,5.3518,5.3518,5.3518,5.3518,5.3518,5.3518,5.3518,5.3518,5.3518,5.3518,5.3518,5.3518,5.3518,5.3518,5.3518,5.3518,5.3518,5.3518,5.3518,5.3518,5.3518,5.3518,5.3518,5.3518,5.3518,5.3518,5.3518,5.3518,5.3518,5.3518,5.3518,5.3518,5.3518,5.3518,5.3518,5.3518,5.3518,5.3518,5.3518,5.3518,5.3518,5.3518,5.3518,5.3518,5.3518,5.3518,5.3518,5.3518,5.3518,5.3518,5.3518,5.3518,5.3518,5.3873,5.4448,5.4955,5.548,5.6156,5.6884,5.7188,5.7391,5.7649,5.784,5.801,5.8263,5.8441,5.8616,5.896,5.9078,5.9279,5.9346,5.946,5.9352,5.9412,5.9548,5.9558,6.0371,6.0937,5.9998,5.9631,5.9333,5.9029,5.8344,5.8125,5.7997,5.7978,5.7867,5.7978,5.7978,5.7978,5.7978,5.7978,5.7978,5.7978,5.7978,5.7978,5.5277,5.5226,5.4634,5.4363,5.4279,5.3771,5.3534,5.3518,5.3534,5.3534,5.3518,5.3518,5.3518,5.3518,5.3518,5.3518,5.3518,5.3518,5.3518,5.3518,5.3518,5.3518,5.3518,5.3518,5.3518,5.3518,5.3518,5.3518,5.3518,5.3518,5.3518,5.3518,5.3518,5.3518,5.3518,5.3518,5.3518,5.3518,5.3518,5.3518,5.3518,5.3518,5.3518,5.3518,5.3518,5.3518,5.3518,5.3518,5.3518,5.3518,5.3518,5.3518,5.3518,5.3518,5.3518,5.3518,5.3518,5.3518,5.3518,5.3518,5.3518,5.3518,5.3518,5.3518,5.3518,5.3518,5.3518,5.3518,5.3518,5.3518,5.3518,5.3518,5.3771,5.416,5.4499,5.4854,5.5463,5.6038,5.6478,5.6799,5.7222,5.7526,5.7734,5.7954,5.8192,5.8192,5.8458,5.8388,5.8511,5.8388,5.8373,5.8169,5.8101,5.8355,5.8531,5.8835,5.8921,5.8245,5.8394,5.854,5.8422,5.8205,5.8004,5.7708,5.7613,5.7546,5.7755,5.7978,5.7978,5.7978,5.7978,5.7978,5.7978,5.7978,5.7978,5.3754,5.3771,5.3687,5.3636,5.3636,5.3551,5.3518,5.3518,5.3518,5.3518,5.3518,5.3518,5.3518,5.3518,5.3518,5.3518,5.3518,5.3518,5.3518,5.3518,5.3518,5.3518,5.3518,5.3518,5.3518,5.3518,5.3518,5.3518,5.3518,5.3518,5.3518,5.3518,5.3518,5.3518,5.3518,5.3518,5.3518,5.3518,5.3518,5.3518,5.3518,5.3518,5.3518,5.3518,5.3518,5.3518,5.3518,5.3518,5.3518,5.3518,5.3518,5.3518,5.3518,5.3518,5.3518,5.3518,5.3518,5.3518,5.3518,5.3518,5.3518,5.3518,5.3518,5.3518,5.3518,5.3518,5.3518,5.3518,5.3518,5.3518,5.3518,5.3518,5.3585,5.3822,5.4177,5.4414,5.4837,5.5361,5.5767,5.5953,5.6308,5.6968,5.7391,5.7662,5.7954,5.7881,5.7848,5.7763,5.7662,5.7492,5.7374,5.7199,5.7017,5.7139,5.7044,5.7433,5.7289,5.658,5.6989,5.7567,5.771,5.7601,5.7528,5.7284,5.7166,5.7166,5.7315,5.7528,5.7821,5.7802,5.7594,5.7708,5.7997,5.7978,5.7978,5.3518,5.3518,5.3518,5.3518,5.3518,5.3518,5.3518,5.3518,5.3518,5.3518,5.3518,5.3518,5.3518,5.3518,5.3518,5.3518,5.3518,5.3518,5.3518,5.3518,5.3518,5.3518,5.3518,5.3518,5.3518,5.3518,5.3518,5.3518,5.3518,5.3518,5.3518,5.3518,5.3518,5.3518,5.3518,5.3518,5.3518,5.3518,5.3518,5.3518,5.3518,5.3518,5.3518,5.3518,5.3518,5.3518,5.3518,5.3518,5.3518,5.3518,5.3518,5.3518,5.3518,5.3518,5.3518,5.3518,5.3518,5.3518,5.3518,5.3518,5.3518,5.3518,5.3518,5.3518,5.3518,5.3518,5.3518,5.3518,5.3518,5.3518,5.3518,5.3518,5.3518,5.3636,5.3873,5.3923,5.4211,5.4702,5.5108,5.5243,5.5412,5.6004,5.6461,5.6511,5.6681,5.685,5.6782,5.6697,5.6596,5.6444,5.6359,5.6258,5.6094,5.6048,5.5758,5.5718,5.5825,5.5432,5.5453,5.6078,5.6831,5.693,5.6843,5.6721,5.6527,5.658,5.6737,5.6789,5.6789,5.6909,5.7047,5.7266,5.7498,5.7932,5.7932,5.3518,5.3518,5.3518,5.3518,5.3518,5.3518,5.3518,5.3518,5.3518,5.3518,5.3518,5.3518,5.3518,5.3518,5.3518,5.3518,5.3518,5.3518,5.3518,5.3518,5.3518,5.3518,5.3518,5.3518,5.3518,5.3518,5.3518,5.3518,5.3518,5.3518,5.3518,5.3518,5.3518,5.3518,5.3518,5.3518,5.3518,5.3518,5.3518,5.3518,5.3518,5.3518,5.3518,5.3518,5.3518,5.3518,5.3518,5.3518,5.3518,5.3518,5.3518,5.3518,5.3518,5.3518,5.3518,5.3518,5.3518,5.3518,5.3518,5.3518,5.3518,5.3518,5.3518,5.3518,5.3518,5.3518,5.3518,5.3518,5.3518,5.3518,5.3518,5.3518,5.3518,5.3518,5.3568,5.3534,5.3585,5.411,5.438,5.4397,5.4566,5.4786,5.5124,5.5141,5.5327,5.5683,5.5716,5.5666,5.5615,5.5564,5.5463,5.5429,5.5092,5.4924,5.4703,5.4415,5.4339,5.4445,5.446,5.4835,5.5702,5.6095,5.6077,5.5948,5.578,5.5454,5.5297,5.5495,5.5706,5.6114,5.6456,5.6721,5.6997,5.7546,5.7932,5.3518,5.3518,5.3518,5.3518,5.3518,5.3518,5.3518,5.3518,5.3518,5.3518,5.3518,5.3518,5.3518,5.3518,5.3518,5.3518,5.3518,5.3518,5.3518,5.3518,5.3518,5.3518,5.3518,5.3518,5.3518,5.3518,5.3518,5.3518,5.3518,5.3518,5.3518,5.3518,5.3518,5.3518,5.3518,5.3518,5.3518,5.3518,5.3518,5.3518,5.3518,5.3518,5.3518,5.3518,5.3518,5.3518,5.3518,5.3518,5.3518,5.3518,5.3518,5.3518,5.3518,5.3518,5.3518,5.3518,5.3518,5.3518,5.3518,5.3518,5.3518,5.3518,5.3518,5.3518,5.3518,5.3518,5.3518,5.3518,5.3518,5.3518,5.3518,5.3518,5.3518,5.3518,5.3518,5.3518,5.3518,5.3551,5.3771,5.3636,5.3805,5.4126,5.4194,5.4313,5.4549,5.4905,5.5057,5.5023,5.5023,5.4955,5.4769,5.4566,5.4076,5.3822,5.3754,5.3686,5.3853,5.4034,5.4076,5.4374,5.4835,5.5042,5.5161,5.5161,5.4939,5.4391,5.4059,5.4606,5.5042,5.5477,5.5836,5.6132,5.6773,5.7498,5.7821,5.3518,5.3518,5.3518,5.3518,5.3518,5.3518,5.3518,5.3518,5.3518,5.3518,5.3518,5.3518,5.3518,5.3518,5.3518,5.3518,5.3518,5.3518,5.3518,5.3518,5.3518,5.3518,5.3518,5.3518,5.3518,5.3518,5.3518,5.3518,5.3518,5.3518,5.3518,5.3518,5.3518,5.3518,5.3518,5.3518,5.3518,5.3518,5.3518,5.3518,5.3518,5.3518,5.3518,5.3518,5.3518,5.3518,5.3518,5.3518,5.3518,5.3518,5.3518,5.3518,5.3518,5.3518,5.3518,5.3518,5.3518,5.3518,5.3518,5.3518,5.3518,5.3518,5.3518,5.3518,5.3518,5.3518,5.3518,5.3518,5.3518,5.3518,5.3518,5.3518,5.3518,5.3518,5.3518,5.3518,5.3518,5.3518,5.3518,5.3551,5.3551,5.367,5.3653,5.3619,5.389,5.416,5.4279,5.4397,5.4414,5.4397,5.4228,5.4126,5.3721,5.3568,5.3518,5.3518,5.3518,5.3601,5.3766,5.4042,5.4328,5.4059,5.4106,5.4154,5.4264,5.3946,5.3832,5.4059,5.4328,5.4606,5.5059,5.557,5.6367,5.7382,5.7726,5.2824,5.2824,5.2807,5.3095,5.3467,5.3518,5.3518,5.3518,5.3518,5.3518,5.3518,5.3518,5.3518,5.3518,5.3518,5.3518,5.3518,5.3518,5.3518,5.3518,5.3518,5.3518,5.3518,5.3518,5.3518,5.3518,5.3518,5.3518,5.3518,5.3518,5.3518,5.3518,5.3518,5.3518,5.3518,5.3518,5.3518,5.3518,5.3518,5.3518,5.3518,5.3518,5.3518,5.3518,5.3518,5.3518,5.3518,5.3518,5.3518,5.3518,5.3518,5.3518,5.3518,5.3518,5.3518,5.3518,5.3518,5.3518,5.3518,5.3518,5.3518,5.3518,5.3518,5.3518,5.3518,5.3518,5.3518,5.3518,5.3518,5.3518,5.3518,5.3518,5.3518,5.3518,5.3518,5.3518,5.3518,5.3518,5.3518,5.3518,5.3518,5.3518,5.3518,5.3518,5.3619,5.3822,5.3873,5.3923,5.389,5.3856,5.3754,5.3687,5.3585,5.3518,5.3518,5.3518,5.3518,5.3501,5.3668,5.3783,5.3832,5.3551,5.3568,5.3832,5.3832,5.3568,5.3618,5.3783,5.3734,5.3618,5.4345,5.522,5.5966,5.6876,5.7565,5.1336,5.1268,5.1336,5.2164,5.3298,5.3467,5.3416,5.3264,5.3298,5.3298,5.3247,5.3298,5.3315,5.3298,5.3129,5.3112,5.3145,5.323,5.3247,5.3162,5.3044,5.3298,5.3399,5.3348,5.3348,5.3484,5.3518,5.3518,5.3518,5.3518,5.3518,5.3518,5.3518,5.3518,5.3518,5.3518,5.3518,5.3518,5.3518,5.3518,5.3518,5.3518,5.3518,5.3518,5.3518,5.3518,5.3518,5.3518,5.3518,5.3518,5.3518,5.3518,5.3518,5.3518,5.3518,5.3518,5.3518,5.3518,5.3518,5.3518,5.3518,5.3518,5.3518,5.3518,5.3518,5.3518,5.3518,5.3518,5.3518,5.3518,5.3518,5.3518,5.3518,5.3518,5.3518,5.3518,5.3518,5.3518,5.3518,5.3518,5.3518,5.3518,5.3518,5.3518,5.3518,5.3551,5.3534,5.3518,5.3518,5.3518,5.3518,5.3518,5.3518,5.3518,5.3518,5.3518,5.3518,5.3518,5.3568,5.3668,5.3668,5.3568,5.3568,5.3618,5.3568,5.3501,5.3518,5.3501,5.3518,5.3568,5.4281,5.5102,5.5741,5.6527,5.7382,5.1234,5.1234,5.1234,5.1505,5.1961,5.1995,5.1995,5.1995,5.1978,5.1995,5.1995,5.1995,5.1978,5.1978,5.2063,5.2097,5.2063,5.1995,5.1995,5.2046,5.2114,5.2334,5.2536,5.2773,5.2942,5.3365,5.3501,5.345,5.3518,5.3501,5.3501,5.3518,5.3518,5.3518,5.3518,5.3518,5.3518,5.3518,5.3518,5.3518,5.3518,5.3518,5.3518,5.3518,5.3518,5.3518,5.3518,5.3518,5.3518,5.3518,5.3518,5.3518,5.3518,5.3518,5.3518,5.3518,5.3518,5.3518,5.3518,5.3518,5.3518,5.3518,5.3518,5.3518,5.3518,5.3518,5.3518,5.3518,5.3518,5.3518,5.3518,5.3518,5.3518,5.3518,5.3518,5.3518,5.3518,5.3518,5.3518,5.3518,5.3518,5.3518,5.3518,5.3518,5.3518,5.3518,5.3518,5.3518,5.3518,5.3518,5.3518,5.3518,5.3518,5.3518,5.3518,5.3518,5.3518,5.3518,5.3518,5.3568,5.3501,5.3518,5.3501,5.3568,5.3501,5.3518,5.3518,5.3518,5.3518,5.3734,5.4391,5.4982,5.5667,5.658,5.766,5.0439,5.0456,5.0456,5.0439,5.0557,5.0997,5.1234,5.1234,5.1234,5.1234,5.1251,5.1251,5.1268,5.1268,5.1234,5.1234,5.1234,5.1234,5.1251,5.1234,5.1251,5.1572,5.1843,5.1961,5.2147,5.2706,5.301,5.3061,5.3044,5.3365,5.3501,5.3518,5.3501,5.3518,5.3518,5.3518,5.3518,5.3518,5.3518,5.3518,5.3518,5.3518,5.3518,5.3518,5.3518,5.3518,5.3518,5.3518,5.3518,5.3518,5.3518,5.3518,5.3518,5.3518,5.3518,5.3518,5.3518,5.3518,5.3518,5.3518,5.3518,5.3518,5.3518,5.3518,5.3518,5.3518,5.3518,5.3518,5.3518,5.3518,5.3518,5.3518,5.3518,5.3518,5.3518,5.3518,5.3518,5.3518,5.3518,5.3518,5.3518,5.3518,5.3518,5.3518,5.3518,5.3518,5.3518,5.3518,5.3518,5.3518,5.3518,5.3518,5.3518,5.3518,5.3518,5.3518,5.3518,5.3518,5.3518,5.3518,5.3518,5.3518,5.3518,5.3518,5.3518,5.3518,5.3518,5.3518,5.3518,5.3783,5.4391,5.4999,5.561,5.6403,5.7364,4.9035,4.9018,4.9018,4.9086,4.9289,5.0456,5.1031,5.1099,5.1082,5.1065,5.1082,5.0963,5.0879,5.1014,5.1048,5.098,5.0896,5.093,5.0913,5.093,5.0744,5.0997,5.1116,5.12,5.1403,5.1572,5.1877,5.23,5.2367,5.2909,5.3281,5.3416,5.3433,5.3484,5.3518,5.3518,5.3518,5.3518,5.3518,5.3518,5.3518,5.3518,5.3518,5.3518,5.3518,5.3518,5.3518,5.3518,5.3518,5.3518,5.3518,5.3518,5.3518,5.3518,5.3518,5.3518,5.3518,5.3518,5.3518,5.3518,5.3518,5.3518,5.3518,5.3518,5.3518,5.3518,5.3518,5.3518,5.3518,5.3518,5.3518,5.3518,5.3518,5.3518,5.3518,5.3518,5.3518,5.3518,5.3518,5.3518,5.3518,5.3518,5.3518,5.3518,5.3518,5.3518,5.3518,5.3518,5.3518,5.3518,5.3518,5.3518,5.3518,5.3518,5.3518,5.3518,5.3518,5.3518,5.3518,5.3518,5.3518,5.3518,5.3518,5.3518,5.3518,5.3518,5.3518,5.3518,5.3518,5.3898,5.4328,5.4774,5.5262,5.5667,5.6403,4.9018,4.9018,4.9018,4.9018,4.9069,4.9458,4.9627,4.9644,4.9644,4.9644,4.9644,4.9644,4.9796,4.9644,4.9627,4.9695,4.9678,4.9644,4.961,4.9695,4.9881,5.005,5.0253,5.0456,5.071,5.1065,5.1369,5.1539,5.1691,5.23,5.2655,5.2672,5.3145,5.3348,5.3433,5.3501,5.3518,5.3518,5.3518,5.3518,5.3518,5.3518,5.3518,5.3518,5.3518,5.3518,5.3518,5.3518,5.3518,5.3518,5.3518,5.3518,5.3518,5.3518,5.3518,5.3518,5.3518,5.3518,5.3518,5.3518,5.3518,5.3518,5.3518,5.3518,5.3518,5.3518,5.3518,5.3518,5.3518,5.3518,5.3518,5.3518,5.3518,5.3518,5.3518,5.3518,5.3518,5.3518,5.3518,5.3518,5.3518,5.3518,5.3518,5.3518,5.3518,5.3518,5.3518,5.3518,5.3518,5.3518,5.3518,5.3518,5.3518,5.3518,5.3518,5.3518,5.3518,5.3518,5.3518,5.3518,5.3518,5.3518,5.3518,5.3518,5.3518,5.3518,5.3518,5.3518,5.3518,5.3717,5.4106,5.4482,5.4922,5.5262,5.5552,4.9018,4.9018,4.9018,4.9018,4.9018,4.9018,4.9018,4.9018,4.9018,4.9018,4.9018,4.9052,4.9018,4.9069,4.9086,4.9086,4.9103,4.9154,4.9154,4.9154,4.9018,4.9306,4.9576,4.9712,4.9864,5.0304,5.0625,5.076,5.0963,5.1454,5.1877,5.1944,5.2638,5.2942,5.3095,5.3281,5.3518,5.3518,5.3518,5.3501,5.3518,5.3518,5.3518,5.3518,5.3518,5.3518,5.3518,5.3518,5.3518,5.3518,5.3518,5.3518,5.3518,5.3518,5.3518,5.3518,5.3518,5.3518,5.3518,5.3518,5.3518,5.3518,5.3518,5.3518,5.3518,5.3518,5.3518,5.3518,5.3518,5.3518,5.3518,5.3518,5.3518,5.3518,5.3518,5.3518,5.3518,5.3518,5.3518,5.3518,5.3518,5.3518,5.3518,5.3518,5.3518,5.3518,5.3518,5.3518,5.3518,5.3518,5.3518,5.3518,5.3518,5.3518,5.3518,5.3518,5.3518,5.3518,5.3518,5.3518,5.3518,5.3518,5.3518,5.3518,5.3518,5.3518,5.3518,5.3518,5.3501,5.3717,5.3832,5.3994,5.431,5.4713,5.4982,4.9018,4.9018,4.9018,4.9018,4.9018,4.9018,4.9018,4.9018,4.9018,4.9018,4.9018,4.9018,4.9018,4.9018,4.9018,4.9018,4.9018,4.9018,4.9018,4.9018,4.9018,4.912,4.9103,4.9052,4.9306,4.9373,4.9576,5.0016,5.0219,5.0693,5.1133,5.1166,5.186,5.2232,5.2317,5.2723,5.2976,5.3162,5.323,5.3264,5.3467,5.3518,5.3518,5.3518,5.3518,5.3518,5.3518,5.3518,5.3518,5.3518,5.3518,5.3518,5.3518,5.3518,5.3518,5.3518,5.3518,5.3518,5.3518,5.3518,5.3518,5.3518,5.3518,5.3518,5.3518,5.3518,5.3518,5.3518,5.3518,5.3518,5.3518,5.3518,5.3518,5.3518,5.3518,5.3518,5.3518,5.3518,5.3518,5.3518,5.3518,5.3518,5.3518,5.3518,5.3518,5.3518,5.3518,5.3518,5.3518,5.3518,5.3518,5.3518,5.3518,5.3518,5.3518,5.3518,5.3518,5.3518,5.3518,5.3518,5.3518,5.3518,5.3518,5.3518,5.3518,5.3518,5.3518,5.3518,5.3518,5.3568,5.3618,5.3568,5.3783,5.4218,5.4328,4.9018,4.9018,4.9018,4.9018,4.9018,4.9018,4.9018,4.9018,4.9018,4.9018,4.9018,4.9018,4.9018,4.9018,4.9018,4.9018,4.9018,4.9018,4.9018,4.9018,4.9018,4.9018,4.9018,4.9018,4.9018,4.9052,4.9204,4.9373,4.9543,4.9999,5.0388,5.0456,5.1082,5.1471,5.1488,5.1911,5.2164,5.257,5.2621,5.2875,5.3213,5.3433,5.3518,5.3518,5.3518,5.3518,5.3518,5.3518,5.3518,5.3518,5.3518,5.3518,5.3518,5.3518,5.3518,5.3518,5.3518,5.3518,5.3518,5.3518,5.3518,5.3518,5.3518,5.3518,5.3518,5.3518,5.3518,5.3518,5.3518,5.3518,5.3518,5.3518,5.3518,5.3518,5.3518,5.3518,5.3518,5.3518,5.3518,5.3518,5.3518,5.3518,5.3518,5.3518,5.3518,5.3518,5.3518,5.3518,5.3518,5.3518,5.3518,5.3518,5.3518,5.3518,5.3518,5.3518,5.3518,5.3518,5.3518,5.3518,5.3518,5.3518,5.3518,5.3518,5.3518,5.3518,5.3518,5.3518,5.3518,5.3518,5.3518,5.3518,5.3518,5.3832,5.3783,4.8223,4.8545,4.8866,4.9018,4.9018,4.9018,4.9018,4.9018,4.9018,4.9018,4.9018,4.9018,4.9001,4.9001,4.9018,4.9018,4.9018,4.9018,4.9018,4.9018,4.9018,4.9018,4.9018,4.9018,4.9018,4.9018,4.9018,4.9069,4.9103,4.9289,4.9644,4.9763,5.0321,5.071,5.076,5.0997,5.1336,5.1809,5.1809,5.2114,5.2706,5.3044,5.345,5.3518,5.3501,5.3501,5.3518,5.3518,5.3518,5.3518,5.3518,5.3518,5.3518,5.3518,5.3518,5.3518,5.3518,5.3518,5.3518,5.3518,5.3518,5.3518,5.3518,5.3518,5.3518,5.3518,5.3518,5.3518,5.3518,5.3518,5.3518,5.3518,5.3518,5.3518,5.3518,5.3518,5.3518,5.3518,5.3518,5.3518,5.3518,5.3518,5.3518,5.3518,5.3518,5.3518,5.3518,5.3518,5.3518,5.3518,5.3518,5.3518,5.3518,5.3518,5.3518,5.3518,5.3518,5.3518,5.3518,5.3518,5.3518,5.3518,5.3518,5.3518,5.3518,5.3518,5.3518,5.3518,5.3518,5.3518,5.3518,5.3518,5.3501,5.3618,5.3832,4.7208,4.7834,4.8443,4.8714,4.8731,4.8697,4.8663,4.8663,4.868,4.868,4.8595,4.8595,4.8765,4.8984,4.9018,4.9018,4.9018,4.9018,4.9018,4.9018,4.9018,4.9018,4.9018,4.9018,4.9018,4.9018,4.9018,4.9018,4.9035,4.9137,4.9187,4.9154,4.9475,4.9949,5.0152,5.0473,5.0862,5.1014,5.1082,5.1166,5.1792,5.2553,5.3044,5.3315,5.3467,5.3501,5.3518,5.3518,5.3518,5.3518,5.3518,5.3518,5.3518,5.3518,5.3518,5.3518,5.3518,5.3518,5.3518,5.3518,5.3518,5.3518,5.3518,5.3518,5.3518,5.3518,5.3518,5.3518,5.3518,5.3518,5.3518,5.3518,5.3518,5.3518,5.3518,5.3518,5.3518,5.3518,5.3518,5.3518,5.3518,5.3518,5.3518,5.3518,5.3518,5.3518,5.3518,5.3518,5.3518,5.3518,5.3518,5.3518,5.3518,5.3518,5.3518,5.3518,5.3518,5.3518,5.3518,5.3518,5.3518,5.3518,5.3518,5.3518,5.3518,5.3518,5.3518,5.3518,5.3518,5.3518,5.3518,5.3568,5.3881,5.3994,5.42,4.687,4.7022,4.7175,4.7242,4.7242,4.7242,4.7208,4.7225,4.7276,4.7208,4.7344,4.7361,4.7767,4.8984,4.9018,4.9018,4.9018,4.9018,4.9018,4.9018,4.9018,4.9018,4.9018,4.9018,4.9018,4.9018,4.9018,4.9018,4.9018,4.9018,4.9018,4.9052,4.9052,4.9255,4.9272,4.961,4.9864,5.0118,5.0388,5.0473,5.1183,5.1877,5.2367,5.2756,5.3179,5.3382,5.3518,5.3518,5.3518,5.3518,5.3518,5.3518,5.3518,5.3518,5.3518,5.3518,5.3518,5.3518,5.3518,5.3518,5.3518,5.3518,5.3518,5.3518,5.3518,5.3518,5.3518,5.3518,5.3518,5.3518,5.3518,5.3518,5.3518,5.3518,5.3518,5.3518,5.3518,5.3518,5.3518,5.3518,5.3518,5.3518,5.3518,5.3518,5.3518,5.3518,5.3518,5.3518,5.3518,5.3518,5.3518,5.3518,5.3518,5.3518,5.3518,5.3518,5.3518,5.3518,5.3518,5.3518,5.3518,5.3518,5.3518,5.3518,5.3518,5.3518,5.3518,5.3518,5.3518,5.3518,5.3518,5.3618,5.4059,5.4437,5.4606]},{"header":{"parameterUnit":"m.s-1","parameterCategory":1,"la1":31.0,"la2":29.5877,"lo1":-88.7671,"lo2":-86.6584,"dy":0.0162,"dx":0.0185,"nx":115,"ny":88,"refTime":"2023-09-09T06:00:00:Z","depth":0,"parameterNumber":3,"parameterNumberName":"V-component_of_WINDS"},"data":[0.0,0.0,0.0,0.0,0.0,0.0,0.0,0.0,0.0,0.0,0.0,0.0,0.0,0.0,0.0,0.0,0.0,0.0,0.0,0.0,0.0,0.0,0.0,0.0,0.0,0.0,0.0,0.0,0.0,0.0,0.0,0.0,0.0,0.0,0.0,0.0,0.0,0.0,0.0,0.0,0.0,0.0,0.0,0.0,0.0,0.0,0.0,0.0,0.0,0.0,0.0,0.0,0.0,0.0,0.0,0.0,0.0,0.0,0.0,0.0,0.0,0.0,0.0,0.0,0.0,0.0,0.0,0.0,0.0,0.0,0.0,0.0,0.0,0.0,0.0,0.0,0.0,0.0,0.0,0.0,0.0,0.0,0.0,0.0,0.0,0.0,0.0,0.0,0.0,0.0,0.0,0.0,0.0,0.0,0.0,0.0,0.0,0.0,0.0,0.0,0.0,0.0,0.0,0.0,0.0,0.0,0.0,0.0,0.0,0.0,0.0,0.0,0.0,0.0,0.0,0.0,0.0,0.0,0.0,0.0,0.0,0.0,0.0,0.0,0.0,0.0,0.0,0.0,0.0,0.0,0.0,0.0,0.0,0.0,0.0,0.0,0.0,0.0,0.0,0.0,0.0,0.0,0.0,0.0,0.0,0.0,0.0,0.0,0.0,0.0,0.0,0.0,0.0,0.0,0.0,0.0,0.0,0.0,0.0,0.0,0.0,0.0,0.0,0.0,0.0,0.0,0.0,0.0,0.0,0.0,0.0,0.0,0.0,0.0,0.0,0.0,0.0,0.0,0.0,0.0,0.0,0.0,0.0,0.0,0.0,0.0,0.0,0.0,0.0,0.0,0.0,0.0,0.0,0.0,0.0,0.0,0.0,0.0,0.0,0.0,0.0,0.0,0.0,0.0,0.0,0.0,0.0,0.0,0.0,0.0,0.0,0.0,0.0,0.0,0.0,0.0,0.0,0.0,0.0,0.0,0.0,0.0,0.0,0.0,0.0,0.0,0.0,0.0,0.0,0.0,0.0,0.0,0.0,0.0,0.0,0.0,0.0,0.0,0.0,0.0,0.0,0.0,0.0,0.0,0.0,0.0,0.0,0.0,0.0,0.0,0.0,0.0,0.0,0.0,0.0,0.0,0.0,0.0,0.0,0.0,0.0,0.0,0.0,0.0,0.0,0.0,0.0,0.0,0.0,0.0,0.0,0.0,0.0,0.0,0.0,0.0,0.0,0.0,0.0,0.0,0.0,0.0,0.0,0.0,0.0,0.0,0.0,0.0,0.0,0.0,0.0,0.0,0.0,0.0,0.0,0.0,0.0,0.0,0.0,0.0,0.0,0.0,0.0,0.0,0.0,0.0,0.0,0.0,0.0,0.0,0.0,0.0,0.0,0.0,0.0,0.0,0.0,0.0,0.0,0.0,0.0,0.0,0.0,0.0,0.0,0.0,0.0,0.0,0.0,0.0,0.0,0.0,0.0,0.0,0.0,0.0,0.0,0.0,0.0,0.0,0.0,0.0,0.0,0.0,0.0,0.0,0.0,0.0,0.0,0.0,0.0,0.0,0.0,0.0,0.0,0.0,0.0,0.0,0.0,0.0,0.0,0.0,0.0,0.0,0.0,0.0,0.0,0.0,0.0,0.0,0.0,0.0,0.0,0.0,0.0,0.0,0.0,0.0,0.0,0.0,0.0,0.0,0.0,0.0,0.0,0.0,0.0,0.0,0.0,0.0,0.0,0.0,0.0,0.0,0.0,0.0,0.0,0.0,0.0,0.0,0.0,0.0,0.0,0.0,0.0,0.0,0.0,0.0,0.0,0.0,0.0,0.0,0.0,0.0,0.0,0.0,0.0,0.0,0.0,0.0,0.0,0.0,0.0,0.0,0.0,0.0,0.0,0.0,0.0,0.0,0.0,0.0,0.0,0.0,0.0,0.0,0.0,0.0,0.0,0.0,0.0,0.0,0.0,0.0,0.0,0.0,0.0,0.0,0.0,0.0,0.0,0.0,0.0,0.0,0.0,0.0,0.0,0.0,0.0,0.0,0.0,0.0,0.0,0.0,0.0,0.0,0.0,0.0,0.0,0.0,0.0,0.0,0.0,0.0,0.0,0.0,0.0,0.0,0.0,0.0,0.0,0.0,0.0,0.0,0.0,0.0,0.0,0.0,0.0,0.0,0.0,0.0,0.0,0.0,0.0,0.0,0.0,0.0,0.0,0.0,0.0,0.0,0.0,0.0,0.0,0.0,0.0,0.0,0.0,0.0,0.0,0.0,0.0,0.0,0.0,0.0,0.0,0.0,0.0,0.0,0.0,0.0,0.0,0.0,0.0,0.0,0.0,0.0,0.0,0.0,0.0,0.0,0.0,0.0,0.0,0.0,0.0,0.0,0.0,0.0,0.0,0.0,0.0,0.0,0.0,0.0,0.0,0.0,0.0,0.0,0.0,0.0,0.0,0.0,0.0,0.0,0.0,0.0,0.0,0.0,0.0,0.0,0.0,0.0,0.0,0.0,0.0,0.0,0.0,0.0,0.0,0.0,0.0,0.0,0.0,0.0,0.0,0.0,0.0,0.0,0.0,0.0,0.0,0.0,0.0,0.0,0.0,0.0,0.0,0.0,0.0,0.0,0.0,0.0,0.0,0.0,0.0,0.0,0.0,0.0,0.0,0.0,0.0,0.0,0.0,0.0,0.0,0.0,0.0,0.0,0.0,0.0,0.0,0.0,0.0,0.0,0.0,0.0,0.0,0.0,0.0,0.0,0.0,0.0,0.0,0.0,0.0,0.0,0.0,0.0,0.0,0.0,0.0,0.0,0.0,0.0,0.0,0.0,0.0,0.0,0.0,0.0,0.0,0.0,0.0,0.0,0.0,0.0,0.0,0.0,0.0,0.0,0.0,0.0,0.0,0.0,0.0,0.0,0.0,0.0,0.0,0.0,0.0,0.0,0.0,0.0,0.0,0.0,0.0,0.0,0.0,0.0,0.0,0.0,0.0,0.0,0.0,0.0,0.0,0.0,0.0,0.0,0.0,0.0,0.0,0.0,0.0,0.0,0.0,0.0,0.0,0.0,0.0,0.0,0.0,0.0,0.0,0.0,0.0,0.0,0.0,0.0,0.0,0.0,0.0,0.0,0.0,0.0,0.0,0.0,0.0,0.0,0.0,0.0,0.0,0.0,0.0,0.0,0.0,0.0,0.0,0.0,0.0,0.0,0.0,0.0,0.0,0.0,0.0,0.0,0.0,0.0,0.0,0.0,0.0,0.0,0.0,0.0,0.0,0.0,0.0,0.0,0.0,0.0,0.0,0.0,0.0,0.0,0.0,0.0,0.0,0.0,0.0,0.0,0.0,0.0,0.0,0.0,0.0,0.0,0.0,0.0,0.0,0.0,0.0,0.0,0.0,0.0,0.0,0.0,0.0,0.0,0.0,0.0,0.0,0.0,0.0,0.0,0.0,0.0,0.0,0.0,0.0,0.0,0.0,0.0,0.0,0.0,0.0,0.0,0.0,0.0,0.0,0.0,0.0,0.0,0.0,0.0,0.0,0.0,0.0,0.0,0.0,0.0,0.0,0.0,0.0,0.0,0.0,0.0,0.0,0.0,0.0,0.0,0.0,0.0,0.0,0.0,0.0,0.0,0.0,0.0,0.0,0.0,0.0,0.0,0.0,0.0,0.0,0.0,0.0,0.0,0.0,0.0,0.0,0.0,0.0,0.0,0.0,0.0,0.0,0.0,0.0,0.0,0.0,0.0,0.0,0.0,0.0,0.0,0.0,0.0,0.0,0.0,0.0,0.0,0.0,0.0,0.0,0.0,0.0,0.0,0.0,0.0,0.0,0.0,0.0,0.0,0.0,0.0,0.0,0.0,0.0,0.0,0.0,0.0,0.0,0.0,0.0,0.0,0.0,0.0,0.0,0.0,0.0,0.0,0.0,0.0,0.0,0.0,0.0,0.0,0.0,0.0,0.0,0.0,0.0,0.0,0.0,0.0,0.0,0.0,0.0,0.0,0.0,0.0,0.0,0.0,0.0,0.0,0.0,0.0,0.0,0.0,0.0,0.0,0.0,0.0,0.0,0.0,0.0,0.0,0.0,0.0,0.0,0.0,0.0,0.0,0.0,0.0,0.0,0.0,0.0,0.0,0.0,0.0,0.0,0.0,0.0,0.0,0.0,0.0,0.0,0.0,0.0,0.0,0.0,0.0,0.0,0.0,0.0,0.0,0.0,0.0,0.0,0.0,0.0,0.0,0.0,0.0,0.0,0.0,0.0,0.0,0.0,0.0,0.3578,0.0,0.0,0.0,0.0,0.0,0.0,0.0,0.0,0.0,0.0,0.0,0.0,0.0,0.0,0.0,0.0,0.0,0.0,0.0,0.0,0.0,0.0,0.0,0.0,0.0,0.0,0.0,0.0,0.0,0.0,0.0,0.0,0.0,0.0,0.0,0.0,0.0,0.0,0.0,0.0,0.0,0.0,0.0,0.0,0.0,0.0,0.0,0.0,0.0,0.0,0.0,0.0,0.0,0.0,0.0,0.0,0.0,0.0,0.0,0.0,0.0,0.0,0.0,0.0,0.0,0.0,0.0,0.0,0.0,0.0,0.0,0.0,0.0,0.0,0.0,0.0,0.0,0.0,0.0,0.0,0.0,0.0,0.0,0.0,0.0,0.0,0.0,0.0,0.0,0.0,0.0,0.0,0.0,0.0,0.0,0.0,0.0,0.0,0.0,0.0,0.0,0.0,0.0,0.0,0.0,0.0,0.0,0.0,0.0,0.0,0.3754,0.368,0.369,0.3693,0.3697,0.0,0.0,0.0,0.0,0.0,0.0,0.0,0.0,0.0,0.0,0.0,0.0,0.0,0.0,0.0,0.0,0.0,0.0,0.0,0.0,0.0,0.0,0.0,0.0,0.0,0.0,0.0,0.0,0.0,0.0,0.0,0.0,0.0,0.0,0.0,0.0,0.0,0.0,0.0,0.0,0.0,0.0,0.0,0.0,0.0,0.0,0.0,0.0,0.0,0.0,0.0,0.0,0.0,0.0,0.0,0.0,0.0,0.0,0.0,0.0,0.0,0.0,0.0,0.0,0.0,0.0,0.0,0.0,0.0,0.0,0.0,0.0,0.0,0.0,0.0,0.0,0.0,0.0,0.0,0.0,0.0,0.0,0.0,0.0,0.0,0.0,0.0,0.0,0.0,0.0,0.0,0.0,0.0,0.0,0.0,0.0,0.0,0.0,0.0,0.0,0.0,0.0,0.0,0.0,0.0,0.0,0.0,0.0,0.0,0.0,0.0,0.0,0.3839,0.3897,0.3897,0.0,0.0,0.0,0.0,0.0,0.0,0.0,0.0,0.0,0.0,0.0,0.0,0.0,0.0,0.0,0.0,0.0,0.0,0.0,0.0,0.0,0.0,0.0,0.0,0.0,0.0,0.0,0.0,0.0,0.0,0.0,0.0,0.0,0.0,0.0,0.0,0.0,0.0,0.0,0.0,0.0,0.0,0.0,0.0,0.0,0.0,0.0,0.0,0.0,0.0,0.0,0.0,0.0,0.0,0.0,0.0,0.0,0.0,0.0,0.0,0.0,0.0,0.0,0.0,0.0,0.0,0.0,0.0,0.0,0.0,0.0,0.0,0.0,0.0,0.0,0.0,0.0,0.0,0.0,0.0,0.0,0.0,0.0,0.0,0.0,0.0,0.0,0.0,0.0,0.0,0.0,0.0,0.0,0.0,0.0,0.0,0.0,0.0,0.0,0.0,0.0,0.0,0.0,0.0,0.0,0.0,0.0,0.0,0.0,0.0,0.3917,0.4127,0.415,0.0,0.415,0.0,0.0,0.0,0.0,0.0,0.0,0.0,0.0,0.0,0.0,0.0,0.0,0.0,0.0,0.0,0.0,0.0,0.0,0.0,0.0,0.0,0.0,0.0,0.0,0.0,0.0,0.0,0.0,0.0,0.0,0.0,0.0,0.0,0.0,0.0,0.0,0.0,0.0,0.0,0.0,0.0,0.0,0.0,0.0,0.0,0.0,0.0,0.0,0.0,0.0,0.0,0.0,0.0,0.0,0.0,0.0,0.0,0.0,0.0,0.0,0.0,0.0,0.0,0.0,0.0,0.0,0.0,0.0,0.0,0.0,0.0,0.0,0.0,0.0,0.0,0.0,0.0,0.0,0.0,0.0,0.0,0.0,0.0,0.0,0.0,0.0,0.0,0.0,0.0,0.0,0.0,0.0,0.0,0.0,0.0,0.0,0.0,0.0,0.0,0.0,0.0,0.0,0.0,0.0,0.0,0.0,0.0,0.0,0.0,0.0,0.4261,0.4372,0.457,0.473,0.0,0.0,0.0,0.0,0.0,0.0,0.0,0.0,0.0,0.0,0.0,0.0,0.0,0.0,0.0,0.0,0.0,0.0,0.0,0.0,0.0,0.0,0.0,0.0,0.0,0.0,0.0,0.0,0.0,0.0,0.0,0.0,0.0,0.0,0.0,0.0,0.0,0.0,0.0,0.0,0.0,0.0,0.0,0.0,0.0,0.0,0.0,0.0,0.0,0.0,0.0,0.0,0.0,0.0,0.0,0.0,0.0,0.0,0.0,0.0,0.0,0.0,0.0,0.0,0.0,0.0,0.0,0.0,0.0,0.0,0.0,0.0,0.0,0.0,0.0,0.0,0.0,0.0,0.0,0.0,0.0,0.0,0.0,0.0,0.0,0.0,0.0,0.0,0.0,0.0,0.0,0.0,0.0,0.0,0.0,0.0,0.0,0.0,0.0,0.0,0.0,0.0,0.0,0.0,0.0,0.0,0.0,0.0,0.0,0.0,0.4371,0.4584,0.4747,0.5002,0.5195,0.5447,0.0,0.0,0.0,0.0,0.0,0.0,0.0,0.0,0.0,0.0,0.0,0.0,0.0,0.0,0.0,0.0,0.0,0.0,0.0,0.0,0.0,0.0,0.0,0.0,0.0,0.0,0.0,0.0,0.0,0.0,0.0,0.0,0.0,0.0,0.0,0.0,0.0,0.0,0.0,0.0,0.0,0.0,0.0,0.0,0.0,0.0,0.0,0.0,0.0,0.0,0.0,0.0,0.0,0.0,0.0,0.0,0.0,0.0,0.0,0.0,0.0,0.0,0.0,0.0,0.0,0.0,0.0,0.0,0.0,0.0,0.0,0.0,0.0,0.0,0.0,0.0,0.0,0.0,0.0,0.0,0.0,0.0,0.0,0.0,0.0,0.0,0.0,0.0,0.0,0.0,0.0,0.0,0.0,0.0,0.0,0.0,0.0,0.0,0.0,0.0,0.0,0.0,0.0,0.0,0.0,0.0,0.0,0.0,0.4218,0.4326,0.4685,0.5321,0.5348,0.5434,0.0,0.0,0.0,0.0,0.0,0.0,0.0,0.0,0.0,0.0,0.0,0.0,0.0,0.0,0.0,0.0,0.0,0.0,0.0,0.0,0.0,0.0,0.0,0.0,0.0,0.0,0.0,0.0,0.0,0.0,0.0,0.0,0.0,0.0,0.0,0.0,0.0,0.0,0.0,0.0,0.0,0.0,0.0,0.0,0.0,0.0,0.0,0.0,0.0,0.0,0.0,0.0,0.0,0.0,0.0,0.0,0.0,0.0,0.0,0.0,0.0,0.0,0.0,0.0,0.0,0.0,0.0,0.0,0.0,0.0,0.0,0.0,0.0,0.0,0.0,0.0,0.0,0.0,0.0,0.0,0.0,0.0,0.0,0.0,0.0,0.0,0.0,0.0,0.0,0.0,0.0,0.0,0.0,0.0,0.0,0.0,0.0,0.0,0.0,0.0,0.0,0.0,0.0,0.0,0.0,0.0,0.0,0.0,0.0,0.4584,0.4886,0.5292,0.5805,0.5732,0.5683,0.0,0.0,0.0,0.0,0.0,0.0,0.0,0.0,0.0,0.0,0.0,0.0,0.0,0.0,0.0,0.0,0.0,0.0,0.0,0.0,0.0,0.0,0.0,0.0,0.0,0.0,0.0,0.0,0.0,0.0,0.0,0.0,0.0,0.0,0.0,0.0,0.0,0.0,0.0,0.0,0.0,0.0,0.0,0.0,0.0,0.0,0.0,0.0,0.0,0.0,0.0,0.0,0.0,0.0,0.0,0.0,0.0,0.0,0.0,0.0,0.0,0.0,0.0,0.0,0.0,0.0,0.0,0.0,0.0,0.0,0.0,0.0,0.0,0.0,0.0,0.0,0.0,0.0,0.0,0.0,0.0,0.0,0.0,0.0,0.0,0.0,0.0,0.0,0.0,0.0,0.0,0.0,0.0,0.0,0.0,0.0,0.0,0.0,0.0,0.0,0.0,0.0,0.0,0.0,0.0,0.0,0.0,0.0,0.0,0.501,0.0,0.5686,0.6145,0.6002,0.5948,0.0,0.0,0.0,0.0,0.0,0.0,0.0,0.0,0.0,0.0,0.0,0.0,0.0,0.0,0.0,0.0,0.0,0.0,0.0,0.0,0.0,0.0,0.0,0.0,0.0,0.0,0.0,0.0,0.0,0.0,0.0,0.0,0.0,0.0,0.0,0.0,0.0,0.0,0.0,0.0,0.0,0.0,0.0,0.0,0.0,0.0,0.0,0.0,0.0,0.0,0.0,0.0,0.0,0.0,0.0,0.0,0.0,0.0,0.0,0.0,0.0,0.0,0.0,0.0,0.0,0.0,0.0,0.0,0.0,0.0,0.0,0.0,0.0,0.0,0.0,0.0,0.0,0.0,0.0,0.0,0.0,0.0,0.0,0.0,0.0,0.0,0.0,0.0,0.0,0.0,0.0,0.0,0.0,0.0,0.0,0.0,0.0,0.0,0.0,0.0,0.0,0.0,0.0,0.0,0.0,0.0,0.0,0.0,0.4931,0.55,0.5588,0.5934,0.6396,0.6258,0.6056,0.0,0.0,0.0,0.0,0.0,0.0,0.0,0.0,0.0,0.0,0.0,0.0,0.0,0.0,0.0,0.0,0.0,0.0,0.0,0.0,0.0,0.0,0.0,0.0,0.0,0.0,0.0,0.0,0.0,0.0,0.0,0.0,0.0,0.0,0.0,0.0,0.0,0.0,0.0,0.0,0.0,0.0,0.0,0.0,0.0,0.0,0.0,0.0,0.0,0.0,0.0,0.0,0.0,0.0,0.0,0.0,0.0,0.0,0.0,0.0,0.0,0.0,0.0,0.0,0.0,0.0,0.0,0.0,0.0,0.0,0.0,0.0,0.0,0.0,0.0,0.0,0.0,0.0,0.0,0.0,0.0,0.0,0.0,0.0,0.0,0.0,0.0,0.0,0.0,0.0,0.0,0.0,0.0,0.0,0.0,0.0,0.0,0.0,0.0,0.0,0.0,0.0,0.0,0.0,0.0,0.0,0.0,0.0,0.0,0.7348,0.7002,0.7131,0.7769,0.7135,0.6635,0.0,0.0,0.0,0.0,0.0,0.0,0.0,0.0,0.0,0.0,0.0,0.0,0.0,0.0,0.0,0.0,0.0,0.0,0.0,0.0,0.0,0.0,0.0,0.0,0.0,0.0,0.0,0.0,0.0,0.0,0.0,0.0,0.0,0.0,0.0,0.0,0.0,0.0,0.0,0.0,0.0,0.0,0.0,0.0,0.0,0.0,0.0,0.0,0.0,0.0,0.0,0.0,0.0,0.0,0.0,0.0,0.0,0.0,0.0,0.0,0.0,0.0,0.0,0.0,0.0,0.0,0.0,0.0,0.0,0.0,0.0,0.0,0.0,0.0,0.0,0.0,0.0,0.0,0.0,0.0,0.0,0.0,0.0,0.0,0.0,0.0,0.0,0.0,0.0,0.0,0.0,0.0,0.0,0.0,0.0,0.0,0.0,0.0,0.0,0.0,0.0,0.0,0.0,0.0,0.0,0.0,0.0,0.0,0.0,0.9304,0.8663,0.8524,0.9103,0.8382,0.7699,0.7095,0.0,0.0,0.0,0.0,0.0,0.0,0.0,0.0,0.0,0.0,0.0,0.0,0.0,0.0,0.0,0.0,0.0,0.0,0.0,0.0,0.0,0.0,0.0,0.0,0.0,0.0,0.0,0.0,0.0,0.0,0.0,0.0,0.0,0.0,0.0,0.0,0.0,0.0,0.0,0.0,0.0,0.0,0.0,0.0,0.0,0.0,0.0,0.0,0.0,0.0,0.0,0.0,0.0,0.0,0.0,0.0,0.0,0.0,0.0,0.0,0.0,0.0,0.0,0.0,0.0,0.0,0.0,0.0,0.0,0.0,0.0,0.0,0.0,0.0,0.0,0.0,0.0,0.0,0.0,0.0,0.0,0.0,0.0,0.0,0.0,0.0,0.0,0.0,0.0,0.0,0.0,0.0,0.0,0.0,0.0,0.0,0.0,0.0,0.0,0.0,0.0,0.0,0.0,0.0,0.0,0.0,0.0,0.0,1.1403,1.0609,1.0239,1.0366,0.9863,0.9131,0.0,0.0,0.0,0.0,0.0,0.0,0.0,0.0,0.0,0.0,0.0,0.0,0.0,0.0,0.0,0.0,0.0,0.0,0.0,0.0,0.0,0.0,0.0,0.0,0.0,0.0,0.0,0.0,0.0,0.0,0.0,0.0,0.0,0.0,0.0,0.0,0.0,0.0,0.0,0.0,0.0,0.0,0.0,0.0,0.0,0.0,0.0,0.0,0.0,0.0,0.0,0.0,0.0,0.0,0.0,0.0,0.0,0.0,0.0,0.0,0.0,0.0,0.0,0.0,0.0,0.0,0.0,0.0,0.0,0.0,0.0,0.0,0.0,0.0,0.0,0.0,0.0,0.0,0.0,0.0,0.0,0.0,0.0,0.0,0.0,0.0,0.0,0.0,0.0,0.0,0.0,0.0,0.0,0.0,0.0,0.0,0.0,0.0,0.0,0.0,0.0,0.0,0.0,0.0,0.0,0.0,0.0,0.0,0.0,1.2756,1.3272,1.3134,1.2459,1.1401,1.0417,0.0,0.0,0.0,0.0,0.0,0.0,0.0,0.0,0.0,0.0,0.0,0.0,0.0,0.0,0.0,0.0,0.0,0.0,0.0,0.0,0.0,0.0,0.0,0.0,0.0,0.0,0.0,0.0,0.0,0.0,0.0,0.0,0.0,0.0,0.0,0.0,0.0,0.0,0.0,0.0,0.0,0.0,0.0,0.0,0.0,0.0,0.0,0.0,0.0,0.0,0.0,0.0,0.0,0.0,0.0,0.0,0.0,0.0,0.0,0.0,0.0,0.0,0.0,0.0,0.0,0.0,0.0,0.0,0.0,0.0,0.0,0.0,0.0,0.0,0.0,0.0,0.0,0.0,0.0,0.0,0.0,0.0,0.0,0.0,0.0,0.0,0.0,0.0,0.0,0.0,0.0,0.0,0.0,0.0,0.0,0.0,0.0,0.0,0.0,0.0,0.0,0.0,0.0,0.0,0.0,0.0,0.0,0.0,1.1864,1.3382,1.4573,1.4891,1.4289,1.3023,1.1846,0.0,0.0,0.0,0.0,0.0,0.0,0.0,0.0,0.0,0.0,0.0,0.0,0.0,0.0,0.0,0.0,0.0,0.0,0.0,0.0,0.0,0.0,0.0,0.0,0.0,0.0,0.0,0.0,0.0,0.0,0.0,0.0,0.0,0.0,0.0,0.0,0.0,0.0,0.0,0.0,0.0,0.0,0.0,0.0,0.0,0.0,0.0,0.0,0.0,0.0,0.0,0.0,0.0,0.0,0.0,0.0,0.0,0.0,0.0,0.0,0.0,0.0,0.0,0.0,0.0,0.0,0.0,0.0,0.0,0.0,0.0,0.0,0.0,0.0,0.0,0.0,0.0,0.0,0.0,0.0,0.0,0.0,0.0,0.0,0.0,0.0,0.0,0.0,0.0,0.0,0.0,0.0,0.0,0.0,0.0,0.0,0.0,0.0,0.0,0.0,0.0,0.0,0.0,0.0,0.0,0.0,0.0,0.0,1.2621,1.3539,1.5026,1.5825,1.5792,1.4546,1.3225,0.0,0.0,0.0,0.0,0.0,0.0,0.0,0.0,0.0,0.0,0.0,0.0,0.0,0.0,0.0,0.0,0.0,0.0,0.0,0.0,0.0,0.0,0.0,0.0,0.0,0.0,0.0,0.0,0.0,0.0,0.0,0.0,0.0,0.0,0.0,0.0,0.0,0.0,0.0,0.0,0.0,0.0,0.0,0.0,0.0,0.0,0.0,0.0,0.0,0.0,0.0,0.0,0.0,0.0,0.0,0.0,0.0,0.0,0.0,0.0,0.0,0.0,0.0,0.0,0.0,0.0,0.0,0.0,0.0,0.0,0.0,0.0,0.0,0.0,0.0,0.0,0.0,0.0,0.0,0.0,0.0,0.0,0.0,0.0,0.0,0.0,0.0,0.0,0.0,0.0,0.0,0.0,0.0,0.0,0.0,0.0,0.0,0.0,0.0,0.0,0.0,0.0,0.0,0.0,0.0,0.0,0.0,0.0,1.3479,1.4663,1.5431,1.5825,1.5825,1.4834,1.3871,0.0,0.0,0.0,0.0,0.0,0.0,0.0,0.0,0.0,0.0,0.0,0.0,0.0,0.0,0.0,0.0,0.0,0.0,0.0,0.0,0.0,0.0,0.0,0.0,0.0,0.0,0.0,0.0,0.0,0.0,0.0,0.0,0.0,0.0,0.0,0.0,0.0,0.0,0.0,0.0,0.0,0.0,0.0,0.0,0.0,0.0,0.0,0.0,0.5064,0.0,0.0,0.0,0.0,0.0,0.0,0.0,0.0,0.0,0.0,0.0,0.0,0.0,0.0,0.0,0.0,0.0,0.0,0.0,0.0,0.0,0.0,0.0,0.0,0.0,0.0,0.0,0.0,0.0,0.0,0.0,0.0,0.0,0.0,0.0,0.0,0.0,0.0,0.0,0.0,0.0,0.0,0.0,0.0,0.0,0.0,0.0,0.0,0.0,0.0,0.0,0.0,0.0,0.0,0.0,0.0,0.0,0.0,0.0,1.3921,1.4937,1.5531,1.5825,1.5805,1.5251,1.4389,0.0,0.0,0.0,0.0,0.0,0.0,0.0,0.0,0.0,0.0,0.0,0.0,0.0,0.0,0.0,0.0,0.0,0.0,0.0,0.0,0.0,0.0,0.0,0.0,0.0,0.0,0.0,0.0,0.0,0.0,0.0,0.0,0.0,0.0,0.0,0.0,0.0,0.0,0.0,0.0,0.0,0.0,0.0,0.0,0.0,0.0,0.0,0.0,0.0,0.0,0.0,0.0,0.0,0.0,0.0,0.0,0.0,0.0,0.0,0.0,0.0,0.0,0.0,0.0,0.0,0.0,0.0,0.0,0.0,0.0,0.0,0.0,0.0,0.0,0.0,0.0,0.0,0.0,0.0,0.0,0.0,0.0,0.0,0.0,0.0,0.0,0.0,0.0,0.0,0.0,0.0,0.0,0.0,0.0,0.0,0.0,0.0,0.0,0.0,0.0,0.0,0.0,0.0,0.0,0.0,0.0,0.0,1.2899,1.4229,1.5137,1.5685,1.5959,1.5959,1.5638,1.4776,1.3333,0.0,0.0,0.0,0.0,0.0,0.0,0.0,0.0,0.0,0.0,0.0,0.0,0.0,0.0,0.0,0.0,0.0,0.0,0.0,0.0,0.0,0.0,0.0,0.0,0.0,0.0,0.0,0.0,0.0,0.0,0.0,0.0,0.0,0.0,0.0,0.0,0.0,0.0,0.4843,0.5528,0.0,0.0,0.0,0.0,0.0,0.0,0.0,0.0,0.6929,0.0,0.0,0.0,0.0,0.0,0.0,0.0,0.0,0.0,0.0,0.0,0.0,0.0,0.0,0.0,0.0,0.0,0.0,0.0,0.0,0.0,0.0,0.0,0.0,0.0,0.0,0.0,0.0,0.0,0.0,0.0,0.0,0.0,0.0,0.0,0.0,0.0,0.0,0.0,0.0,0.0,0.0,0.0,0.0,0.0,0.0,0.0,0.0,0.0,0.0,0.0,0.0,0.0,0.0,0.0,0.0,1.2078,1.3601,1.4923,1.6025,1.6386,1.656,1.6547,1.6039,1.5077,1.3621,0.0,0.0,0.0,0.0,0.0,0.0,0.0,0.0,0.0,0.0,0.0,0.0,0.0,0.0,0.0,0.0,0.0,0.0,0.0,0.0,0.0,0.0,0.0,0.0,0.0,0.0,0.0,0.0,0.0,0.0,0.0,0.0,0.0,0.0,0.0,0.0,0.0,0.0,0.0,0.6811,0.713,0.0,0.0,0.0,0.0,0.0,0.0,0.0,0.0,0.7981,0.0,0.0,0.0,0.0,0.0,0.0,0.0,0.0,0.0,0.0,0.0,0.0,0.0,0.0,0.0,0.0,0.0,0.0,0.0,0.0,0.0,0.0,0.0,0.0,0.0,0.0,0.0,0.0,0.0,0.0,0.0,0.0,0.0,0.0,0.0,0.0,0.0,0.0,0.0,0.0,0.0,0.0,0.0,0.0,0.0,0.0,0.0,0.0,0.0,0.0,0.0,0.0,0.0,0.0,0.0,1.2538,1.4289,1.5625,1.646,1.6633,1.6707,1.6693,1.6132,1.5144,0.0,0.0,0.0,0.0,0.0,0.0,0.0,0.0,0.0,0.0,0.0,0.0,0.0,0.0,0.0,0.0,0.0,0.0,0.0,0.0,0.0,0.0,0.0,0.0,0.0,0.0,0.0,0.0,0.0,0.0,0.0,0.0,0.0,0.0,0.0,0.0,0.0,0.0,0.0,0.0,0.7553,0.8296,0.9277,0.0,0.0,0.0,0.0,0.0,0.0,0.9372,0.9074,0.0,0.0,0.0,0.0,0.0,0.0,0.0,0.0,0.0,0.0,0.0,0.0,0.0,0.0,0.0,0.0,0.0,0.0,0.0,0.0,0.0,0.0,0.0,0.0,0.0,0.0,0.0,0.0,0.0,0.0,0.0,0.0,0.0,0.0,0.0,0.0,0.0,0.0,0.0,0.0,0.0,0.0,0.0,0.0,0.0,0.0,0.0,0.0,0.0,0.0,0.0,0.0,0.0,0.0,0.0,1.2859,1.487,1.6206,1.6767,1.6854,1.6887,1.6874,1.6139,1.5077,0.0,0.0,0.0,0.0,0.0,0.0,0.0,0.0,0.0,0.0,0.0,0.0,0.0,0.0,0.0,0.0,0.0,0.0,0.0,0.0,0.0,0.0,0.0,0.0,0.0,0.0,0.0,0.0,0.0,0.0,0.0,0.0,0.0,0.0,0.0,0.0,0.0,0.0,0.0,0.0,0.0,0.9375,1.0188,0.9797,0.0,0.0,0.0,0.0,1.0759,1.075,0.0,0.0,0.0,0.0,0.0,0.0,0.0,0.0,0.0,0.0,0.0,0.0,0.0,0.0,0.0,0.0,0.0,0.0,0.0,0.0,0.0,0.0,0.0,0.0,0.0,0.0,0.0,0.0,0.0,0.0,0.0,0.0,0.0,0.0,0.0,0.0,0.0,0.0,0.0,0.0,0.0,0.0,0.0,0.0,0.0,0.0,0.0,0.0,0.0,0.0,0.0,0.0,0.0,0.0,0.0,0.0,1.316,1.5177,1.6506,1.7074,1.7348,1.7482,1.7462,1.6159,1.4877,0.0,0.0,0.0,0.0,0.0,0.0,0.0,0.0,0.0,0.0,0.0,0.0,0.0,0.0,0.0,0.0,0.0,0.0,0.0,0.0,0.0,0.0,0.0,0.0,0.0,0.0,0.0,0.0,0.0,0.0,0.0,0.0,0.0,0.0,0.0,0.0,0.0,0.0,0.0,0.0,0.0,0.9992,1.1776,1.1288,1.0608,0.0,0.0,1.219,1.2435,1.3021,0.0,0.0,0.0,0.0,0.0,0.0,0.0,0.0,0.0,0.0,0.0,0.0,0.0,0.0,0.0,0.0,0.0,0.0,0.0,0.0,0.0,0.0,0.0,0.0,0.0,0.0,0.0,0.0,0.0,0.0,0.0,0.0,0.0,0.0,0.0,0.0,0.0,0.0,0.0,0.0,0.0,0.0,0.0,0.0,0.0,0.0,0.0,0.0,0.0,0.0,0.0,0.0,0.0,0.0,0.0,1.2011,1.348,1.5805,1.7141,1.7388,1.7515,1.7589,1.7582,1.6326,1.509,0.0,0.0,0.0,0.0,0.0,0.0,0.0,0.0,0.0,0.0,0.0,0.0,0.0,0.0,0.0,0.0,0.0,0.0,0.0,0.0,0.0,0.0,0.0,0.0,0.0,0.0,0.0,0.0,0.0,0.0,0.0,0.0,0.0,0.0,0.0,0.0,0.0,0.0,0.0,0.0,0.0,0.0,1.2498,1.2733,0.0,0.0,0.0,1.3279,1.2968,0.0,0.0,0.0,0.0,0.0,0.0,0.0,0.0,0.0,0.0,0.0,0.0,0.0,0.0,0.0,0.0,0.0,0.0,0.0,0.0,0.0,0.0,0.0,0.0,0.0,0.0,0.0,0.0,0.0,0.0,0.0,0.0,0.0,0.0,0.0,0.0,0.0,0.0,0.0,0.0,0.0,0.0,0.0,0.0,0.0,0.0,0.0,0.0,0.0,0.0,0.0,0.0,0.0,0.0,0.0,0.0,0.0,1.3774,1.6279,1.7589,1.7589,1.7589,1.7589,1.7569,1.6513,0.0,0.0,0.0,0.0,0.0,0.0,0.0,0.0,0.0,0.0,0.0,0.0,0.0,0.0,0.0,0.0,0.0,0.0,0.0,0.0,0.0,0.0,0.0,0.0,0.0,0.0,0.0,0.4989,0.0,0.0,0.0,0.0,0.0,0.0,0.0,0.0,0.0,0.0,0.0,0.0,0.0,0.0,1.2088,1.3045,1.3897,1.4471,0.0,0.0,1.4333,1.3824,1.4765,1.4684,0.0,0.0,0.0,0.0,0.0,0.0,0.0,0.0,0.0,0.0,0.0,0.0,0.0,0.0,0.0,0.0,0.0,0.0,0.0,0.0,0.0,0.0,0.0,0.0,0.0,0.0,0.0,0.0,0.0,0.0,0.0,0.0,0.0,0.0,0.0,0.0,0.0,0.0,0.0,0.0,0.0,0.0,0.0,0.0,0.0,0.0,0.0,0.0,0.0,0.0,0.0,0.0,0.0,0.0,0.0,1.4068,1.638,1.7589,1.7589,1.7589,1.7589,1.7569,1.6714,1.5444,0.0,0.0,0.0,0.0,0.0,0.0,0.0,0.0,0.0,0.0,0.0,0.0,0.0,0.0,0.0,0.0,0.0,0.0,0.0,0.0,0.0,0.0,0.0,0.0,0.0,0.0,0.0,0.0,0.0,0.0,0.0,0.0,0.0,0.0,0.0,0.0,0.0,0.0,0.0,0.0,0.0,1.2516,1.3495,1.4716,1.5518,0.0,0.0,1.5601,1.5732,1.6531,1.617,1.3553,0.0,0.0,0.0,0.0,0.0,0.0,0.0,0.0,0.0,0.0,0.0,0.0,0.0,0.0,0.0,0.0,0.0,0.0,0.0,0.0,0.0,0.0,0.0,0.0,0.0,0.0,0.0,0.0,0.0,0.0,0.0,0.0,0.0,0.0,0.0,0.0,0.0,0.0,0.0,0.0,0.0,0.0,0.0,0.0,0.0,0.0,0.0,0.0,0.0,0.0,0.0,0.0,0.0,1.2305,1.4075,1.6393,1.7589,1.7589,1.7589,1.7589,1.7589,1.6907,1.5885,0.0,0.0,0.0,0.0,0.0,0.0,0.0,0.0,0.0,0.0,0.0,0.0,0.0,0.0,0.0,0.0,0.0,0.0,0.0,0.0,0.0,0.0,0.0,0.0,0.0,0.0,0.0,0.0,1.036,1.0683,1.0425,0.0,0.0,0.0,0.0,0.0,0.0,0.0,0.0,0.0,0.0,1.3531,1.4804,1.5776,0.0,0.0,1.6315,1.6283,1.6225,1.6599,1.6202,1.4171,1.3131,0.0,0.0,0.0,0.0,0.0,0.0,0.0,0.0,0.0,0.0,0.0,0.0,0.0,0.0,0.0,0.0,0.0,0.0,0.0,0.0,0.0,0.0,0.0,0.0,0.0,0.0,0.0,0.0,0.0,0.0,0.0,0.0,0.0,0.0,0.0,0.0,0.0,0.0,0.0,0.0,0.0,0.0,0.0,0.0,0.0,0.0,0.0,0.0,0.0,0.0,0.0,0.0,1.2392,1.4082,1.6393,1.7589,1.7589,1.7589,1.7589,1.7575,1.7181,1.6413,0.0,0.0,0.0,0.0,0.0,0.0,0.0,0.0,0.0,0.0,0.0,0.0,0.0,0.0,0.0,0.0,0.0,0.0,0.0,0.0,0.0,0.0,0.0,0.0,0.0,0.0,0.0,0.0,1.144,1.1435,1.0575,0.0,0.0,0.0,0.0,0.0,0.0,0.0,0.0,0.0,0.0,1.4622,1.5596,1.6377,1.6922,1.6734,1.6721,1.6623,1.6334,1.6487,1.6042,1.4685,0.0,0.0,0.0,0.0,0.0,0.0,0.0,0.0,0.0,0.0,0.0,0.0,0.0,0.0,0.0,0.0,0.0,0.0,0.0,0.0,0.0,0.0,0.0,0.0,0.0,0.0,0.0,0.0,0.0,0.0,0.5282,0.0,0.0,0.0,0.0,0.0,0.0,0.0,0.0,0.0,0.0,0.0,0.0,0.0,0.0,0.0,0.0,0.0,0.0,0.0,0.0,0.0,0.0,1.2599,1.4088,1.64,1.7589,1.7589,1.7589,1.7589,1.7582,1.7569,1.7007,1.5825,0.0,0.0,0.0,0.0,0.0,0.0,0.0,0.0,0.0,0.0,0.0,0.0,0.0,0.0,0.0,0.0,0.0,0.0,0.0,0.0,0.0,0.0,0.0,0.0,0.0,0.0,1.0174,1.0863,1.1029,0.0,0.0,0.0,0.0,0.0,0.0,0.0,0.0,0.0,0.0,1.4403,1.5752,1.5875,1.6666,1.7048,1.6774,1.6727,1.662,1.6346,1.6286,1.5985,0.0,0.0,0.0,0.0,0.0,0.0,0.0,0.0,0.0,0.0,0.0,0.0,0.0,0.0,0.0,0.0,0.0,0.0,0.0,0.0,0.0,0.0,0.0,0.0,0.0,0.0,0.0,0.8624,0.833,0.0,0.0,0.0,0.0,0.0,0.0,0.0,0.0,0.0,0.0,0.0,1.253,1.2629,0.0,0.0,0.0,0.0,0.0,0.0,0.0,0.0,0.0,0.0,0.0,0.0,1.2893,1.4389,1.6486,1.7589,1.7589,1.7589,1.7589,1.7589,1.7589,1.7027,1.5865,0.0,0.0,0.0,0.0,0.0,0.0,0.0,0.0,0.0,0.0,0.0,0.0,0.0,0.0,0.0,0.0,0.0,0.0,0.0,0.0,0.0,0.0,0.0,0.0,0.0,1.0875,0.0,0.0,0.0,0.0,0.0,0.0,0.0,0.0,0.0,0.0,0.0,1.2971,1.416,1.5013,1.5829,1.6407,1.6727,1.6887,0.0,0.0,0.0,0.0,0.0,0.0,0.0,0.0,0.0,0.0,0.0,0.0,0.0,0.0,1.2538,1.1154,1.0818,1.0628,1.0302,0.0,0.0,0.0,0.0,0.0,0.0,0.0,0.0,0.0,0.0,0.0,0.0,0.0,0.0,1.0367,0.0,0.98,0.0,0.0,0.0,0.0,0.0,0.0,0.0,0.0,1.3186,1.3854,1.4402,1.4502,1.4656,0.0,1.4442,1.336,0.0,0.0,0.0,0.0,0.0,0.0,0.0,0.0,1.3293,1.4689,1.6593,1.7589,1.7589,1.7589,1.7589,1.7589,1.7589,1.7228,1.646,1.5598,1.4502,0.0,0.0,0.0,0.0,0.0,0.0,0.0,0.0,0.0,0.0,0.0,0.0,0.0,0.0,0.0,0.0,0.0,0.0,0.0,0.0,0.0,0.0,0.0,1.177,0.0,0.0,0.0,0.0,0.0,0.0,0.0,0.0,0.0,1.1781,1.3089,1.4371,1.5411,1.5853,1.6255,1.6526,0.0,0.0,0.0,0.0,0.0,0.0,0.0,1.5738,1.5464,1.5411,1.5318,1.5127,1.5173,1.5292,1.5483,0.0,0.0,1.3427,1.3083,1.2955,1.2602,1.2374,1.2361,1.2703,1.2757,1.2835,0.0,0.0,0.0,0.0,0.0,0.0,0.0,0.0,1.2418,1.2111,0.0,1.1563,0.0,0.0,0.0,0.0,0.0,1.2538,0.0,0.0,1.5825,1.6386,1.5899,1.6139,1.6293,1.6279,1.5732,1.5444,1.5311,1.3427,0.0,0.0,0.0,0.0,0.0,0.0,1.3828,1.503,1.6707,1.7589,1.7589,1.7589,1.7589,1.7589,1.7589,1.7575,1.7549,1.6747,1.6032,1.5404,1.322,0.0,0.0,0.0,0.0,0.0,0.0,0.0,0.0,0.0,0.0,0.0,0.0,0.0,0.0,0.0,0.0,0.0,0.0,0.0,0.0,1.1857,0.0,0.0,0.0,0.0,0.0,0.0,0.0,0.0,0.0,0.0,1.3347,1.4536,1.5638,1.6206,0.0,0.0,0.0,0.0,1.6513,1.5985,1.5872,1.5785,1.5524,1.5698,1.5965,1.6233,0.0,0.0,1.672,1.65,1.6313,1.6319,1.676,1.6807,1.5389,1.4907,1.4551,1.4299,1.4072,1.4043,1.4179,1.4259,1.4333,1.659,0.0,0.0,0.0,0.0,1.354,1.3968,1.4522,1.473,1.4609,1.4242,1.4041,0.0,0.0,0.0,0.0,0.0,0.0,1.4569,1.5351,1.6066,1.6526,1.6774,1.686,1.7007,1.7188,1.7034,1.6961,1.6927,1.6359,1.4843,1.2478,0.0,0.0,0.0,0.0,1.4723,1.5885,1.7014,1.7589,1.7589,1.7589,1.7589,1.7589,1.7589,1.7589,1.7582,1.7335,1.684,1.6046,1.4977,0.0,0.0,0.0,0.0,0.0,0.0,0.0,0.0,0.0,0.0,0.0,0.0,0.0,0.0,0.0,0.0,0.0,0.0,0.0,1.2739,1.3487,1.332,0.0,0.0,0.0,0.0,0.0,0.0,0.0,0.0,0.0,1.507,1.5625,1.6159,0.0,0.0,1.654,1.6573,1.6653,1.672,1.6767,1.6587,0.0,1.6633,1.654,1.648,1.6567,1.6827,1.7088,1.7295,1.7261,1.7208,1.7201,1.7341,1.7335,1.6959,1.6852,1.6704,1.6645,1.6524,1.6544,1.6623,1.6642,1.6547,1.9686,1.722,1.6099,1.5362,1.497,1.5137,1.5478,1.5932,1.6106,1.6012,1.5738,1.5678,1.5164,1.4315,1.3854,0.0,0.0,0.0,1.5691,1.6533,1.6707,1.6974,1.7308,1.7321,1.7415,1.7582,1.7589,1.7589,1.7582,1.7462,1.6466,1.4629,0.0,0.0,1.4088,1.4716,1.5498,1.6433,1.7194,1.7589,1.7589,1.7589,1.7589,1.7589,1.7589,1.7589,1.7589,1.7589,1.7335,1.6807,1.6005,1.487,0.0,0.0,0.0,0.0,0.0,0.0,0.0,0.0,0.0,0.0,0.0,0.8704,0.8756,0.0,0.0,0.0,1.2191,1.3313,1.473,1.4763,0.0,0.0,0.0,0.0,0.0,0.0,0.0,1.3675,1.4763,1.5678,1.5972,1.6366,1.6687,1.686,1.6827,1.6814,1.6874,0.0,1.7255,1.7315,1.7168,1.7114,1.7288,1.7275,1.7275,1.7395,1.7555,1.7729,1.7903,1.7943,1.7943,1.7943,1.7943,1.7943,1.7943,1.7943,1.7849,1.7635,1.7589,1.7589,1.7589,1.7589,1.7589,2.2046,2.1719,1.927,1.7588,1.6562,1.6471,1.6526,1.6767,1.6774,1.6627,1.64,1.6653,1.6326,1.5558,1.5291,0.0,1.6373,1.638,1.6807,1.7582,1.7589,1.7589,1.7589,1.7582,1.7589,1.7589,1.7609,1.7622,1.7615,1.7388,1.7121,1.684,1.6313,1.5872,1.5571,1.5798,1.6239,1.6847,1.7388,1.7655,1.7655,1.7629,1.7622,1.7622,1.7595,1.7589,1.7589,1.7589,1.7589,1.7549,1.6547,1.5805,1.5384,0.0,0.0,0.0,0.0,0.0,0.0,0.0,0.0,0.0,0.0,0.0,0.0,0.0,0.0,0.0,1.4629,0.0,1.6633,1.5712,0.0,0.0,0.0,1.3698,1.3781,1.4322,1.4796,1.507,0.0,0.0,1.638,1.6887,1.7228,1.7255,1.7462,1.7528,1.7288,1.7722,1.7976,1.7709,1.7655,1.7649,1.7689,1.7876,1.8103,1.833,1.8497,1.845,1.845,1.8464,1.8477,1.8457,1.849,1.8477,1.849,1.845,1.831,1.7776,1.7682,1.7675,1.7695,1.7709,1.7716,2.5117,2.4024,2.232,2.049,1.8782,1.7771,1.7315,1.7375,1.7375,1.7335,1.7275,1.7341,1.7255,1.7061,1.6987,1.7074,1.7268,1.7268,1.7375,1.7582,1.7589,1.7589,1.7589,1.7589,1.7589,1.7595,1.7822,1.7929,1.7943,1.8103,1.8136,1.8063,1.7923,1.7482,1.676,1.6807,1.7248,1.8063,1.8203,1.8277,1.827,1.8056,1.7936,1.7929,1.7702,1.7589,1.7589,1.7589,1.7589,1.7575,1.7315,1.6727,1.5765,1.4289,0.0,0.0,0.0,0.0,0.0,0.0,0.0,0.0,0.0,1.0661,1.0875,0.0,1.35,0.0,1.5411,1.648,1.668,1.6259,0.0,0.0,1.511,1.4983,1.499,1.5691,1.6213,1.6286,1.68,1.7281,1.7582,1.7742,1.7923,1.813,1.8016,1.7969,1.8143,1.8277,1.8364,1.829,1.8277,1.8277,1.8277,1.833,1.8417,1.8477,1.8497,1.8497,1.8497,1.8497,1.8497,1.8497,1.8497,1.8497,1.851,1.8497,1.8457,1.831,1.8277,1.8277,1.8277,1.827,1.827,2.6583,2.5722,2.4342,2.3035,2.1827,1.9135,1.7909,1.7796,1.7789,1.7709,1.7589,1.7589,1.7589,1.7589,1.7589,1.7589,1.7595,1.7729,1.7789,1.7796,1.7923,1.7983,1.7989,1.7989,1.7983,1.7996,1.8163,1.8243,1.825,1.841,1.8497,1.8497,1.8497,1.8303,1.7949,1.7809,1.7996,1.8484,1.8497,1.8497,1.849,1.833,1.8116,1.7842,1.7549,1.7261,1.7007,1.6867,1.68,1.68,1.6927,1.6647,1.5858,1.485,1.346,0.0,0.0,0.0,0.0,0.0,0.0,0.0,0.0,0.0,0.0,0.0,1.4723,1.4856,1.6106,1.6854,1.672,1.656,1.6386,1.6199,1.6179,1.6279,1.6547,1.7007,1.7355,1.7488,1.7789,1.805,1.8223,1.8357,1.849,1.8664,1.8651,1.8631,1.8684,1.8791,1.8878,1.8878,1.8885,1.8878,1.8878,1.8885,1.8878,1.8885,1.8885,1.8878,1.8885,1.8885,1.8885,1.8885,1.8885,1.8878,1.8885,1.8885,1.8885,1.8885,1.8878,1.8784,1.8551,1.8497,1.8497,2.7314,2.7143,2.5746,2.5167,2.4807,2.0858,1.8837,1.8306,1.8096,1.7956,1.7702,1.7695,1.7695,1.7702,1.7695,1.7695,1.7716,1.7983,1.8103,1.8123,1.837,1.8497,1.8497,1.8497,1.8497,1.8497,1.8524,1.8551,1.8551,1.8584,1.8604,1.8604,1.8604,1.8731,1.8958,1.8949,1.8813,1.8604,1.8715,1.8695,1.8648,1.8725,1.8421,1.7826,1.7509,1.7089,1.6458,1.6086,1.5945,1.5952,1.6192,1.6226,1.5999,1.517,1.4208,0.0,1.2291,0.0,0.0,0.0,0.0,0.0,0.0,0.0,0.0,1.5264,1.5605,1.5965,1.666,1.7014,1.6834,1.6854,1.6981,1.7228,1.7301,1.7535,1.8029,1.8103,1.8217,1.851,1.8544,1.8557,1.8617,1.8831,1.8978,1.9058,1.9239,1.9312,1.9172,1.9279,1.9399,1.9426,1.9459,1.9479,1.9479,1.9479,1.9479,1.9479,1.9479,1.9479,1.9479,1.9439,1.9412,1.9406,1.9359,1.9339,1.9366,1.9352,1.9352,1.9325,1.9319,1.9172,1.8778,1.8657,1.8604,2.8877,2.8456,2.6994,2.6236,2.5721,2.3734,2.1829,2.0091,1.8933,1.8377,1.8323,1.8317,1.831,1.8317,1.8323,1.8317,1.8323,1.8377,1.8404,1.841,1.8464,1.8497,1.8497,1.8497,1.8497,1.8504,1.8731,1.8844,1.8844,1.9085,1.9205,1.9205,1.9199,1.9232,1.9394,0.0,0.0,0.0,1.9759,1.9749,1.95,1.97,1.9499,1.8569,1.8348,0.0,1.6959,1.6878,1.6751,1.6547,1.6593,0.0,0.0,0.0,0.0,0.0,0.0,0.0,0.0,0.0,0.0,0.0,1.4796,1.4917,1.4977,1.5444,1.6066,1.6814,1.684,1.6961,1.7375,1.7649,1.7816,1.7876,1.8083,1.829,1.8397,1.8404,1.8517,1.8804,1.8838,1.8945,1.9158,1.9252,1.9379,1.9579,1.9686,1.9793,1.994,1.9806,1.972,1.9726,1.9887,2.0047,2.0074,2.0047,2.0013,2.0067,2.0067,2.0054,2.0027,1.9853,1.9726,1.9713,1.9526,1.9386,1.9379,1.9366,1.9406,1.9372,1.9379,1.9332,1.9219,1.9199,1.9199,2.9443,0.0,2.8442,2.7976,0.0,2.6184,2.494,2.3764,2.1837,2.045,1.9552,1.9552,1.9236,1.8497,1.8497,1.8497,1.8497,1.8637,1.8704,1.8711,1.8858,1.8925,1.8918,1.8925,1.8931,1.8931,1.9078,1.9145,1.9152,2.0071,2.0479,2.0486,2.0479,2.0479,2.0479,2.1252,2.1586,2.1601,2.1159,2.1185,2.1676,2.1857,2.1558,2.0891,1.9822,0.0,0.0,0.0,0.0,0.0,0.0,0.0,0.0,1.6293,0.0,1.5431,1.5251,1.5104,1.497,1.5351,1.5792,1.6219,1.6393,1.6293,1.5858,1.6359,1.6881,1.7315,1.7355,1.7488,1.7782,1.8083,1.827,1.827,1.8404,1.8544,1.8671,1.8704,1.8818,1.9105,1.9272,1.9419,1.9566,1.972,1.984,1.9987,2.0013,2.0067,2.018,2.0114,2.0013,2.0013,2.012,2.0227,2.0234,2.0234,2.0241,2.0234,2.0234,2.0234,2.0234,2.0114,2.0013,2.0007,1.9887,1.98,1.9793,1.98,1.98,1.9793,1.98,1.9793,1.978,1.9566,1.9366,2.9766,2.9678,2.9678,2.9639,2.9449,2.8286,2.7701,2.7514,0.0,0.0,0.0,2.0888,2.0032,1.8644,1.8651,1.8749,1.9097,1.9004,1.9112,1.9333,1.9361,1.9399,1.9439,1.9446,1.9699,1.9973,1.998,2.0089,2.0424,2.132,2.1987,2.2208,2.1987,2.2101,2.2549,2.2322,2.3109,2.4675,2.3103,2.2566,2.3406,2.362,2.3165,2.2249,2.1106,2.0053,1.916,1.7987,1.7157,1.686,1.686,1.6774,1.6607,1.6587,1.6393,1.5999,1.6166,1.6406,1.6653,1.6887,1.7228,1.7716,1.7742,1.7515,1.6981,1.7388,1.7689,1.7736,1.7976,1.8116,1.8123,1.839,1.8571,1.8564,1.8617,1.8751,1.8965,1.9052,1.9185,1.9426,1.9686,1.988,1.988,2.0067,2.0261,2.0301,2.0307,2.0341,2.0374,2.0361,2.0341,2.0401,2.0461,2.0414,2.0401,2.0421,2.0388,2.0441,2.0421,2.0388,2.0381,2.0347,2.0307,2.0314,2.0281,2.0214,2.0221,2.0194,2.0234,2.0234,2.0234,2.0234,2.0194,1.986,1.9559,3.0459,3.0107,3.0107,2.9902,2.957,2.9337,2.9337,2.8943,2.5787,2.3336,2.1444,2.1444,2.0679,1.9245,1.9245,2.0023,2.1006,1.9842,1.9963,2.1185,2.0019,1.9499,1.9733,1.974,2.0565,2.209,2.2223,2.291,2.4057,2.3137,2.3262,2.4282,2.3262,2.3832,2.6144,2.5208,2.6021,2.8678,2.5834,2.3571,2.2293,2.2734,2.197,1.9942,2.0817,2.0279,1.8276,1.914,1.9,1.756,1.7462,1.7562,1.7782,1.7782,1.7876,1.8036,1.809,1.8136,1.817,1.8217,1.8277,1.8357,1.8364,1.8217,1.7903,1.7936,1.8083,1.833,1.839,1.8424,1.8444,1.8691,1.8865,1.8898,1.9098,1.9265,1.9319,1.9519,1.9679,1.974,1.9993,2.0174,2.018,2.0234,2.0374,2.0555,2.0615,2.0688,2.0835,2.0768,2.0742,2.0915,2.0989,2.0989,2.0922,2.0975,2.0929,2.0989,2.0942,2.0915,2.0909,2.0742,2.0621,2.0615,2.0448,2.0301,2.0274,2.0234,2.0287,2.0301,2.0307,2.0294,2.0301,2.018,2.0107,3.0762,3.0576,3.0576,3.0469,3.0293,3.0283,3.0146,2.9779,2.8294,2.6478,2.4767,2.4636,2.3843,2.2473,2.1569,2.1569,2.2131,2.0524,2.0642,2.2131,2.1452,2.1752,2.2576,2.2701,2.3122,2.3975,2.3975,2.4327,2.502,2.5144,2.5608,2.6186,2.5493,2.5493,2.6071,2.6186,2.6998,2.8267,2.6677,2.5737,2.578,2.5793,2.5299,2.4179,2.3303,2.2689,2.2411,2.0711,1.974,1.9828,1.8817,1.8377,1.851,1.8377,1.835,1.8484,1.8497,1.8497,1.8497,1.8497,1.8497,1.8497,1.8497,1.8504,1.8524,1.8377,1.8343,1.8484,1.8624,1.8724,1.8731,1.8991,1.9225,1.9386,1.9526,1.9666,1.9813,1.994,2.0027,2.006,2.0294,2.0468,2.0468,2.0615,2.0742,2.0889,2.0909,2.0969,2.1089,2.1002,2.0949,2.1076,2.1102,2.1102,2.1102,2.1102,2.1102,2.1102,2.1102,2.1102,2.1102,2.0969,2.0922,2.0909,2.0788,2.0728,2.0695,2.0708,2.0708,2.0708,2.0708,2.0708,2.0708,2.0708,2.0595,3.0976,3.0898,3.0898,3.0898,3.0898,3.0898,3.0684,3.0361,3.0351,2.9451,2.8109,2.7564,2.654,2.502,2.3748,2.3402,2.3528,2.1991,2.2223,2.3638,2.341,2.3905,2.5136,2.5252,2.5411,2.5838,2.5855,2.5963,2.6438,2.716,2.7506,2.7622,2.787,2.7515,2.6446,2.7506,2.81,2.8081,2.7704,2.78,2.8483,2.8176,2.7857,2.7319,2.5511,2.4693,2.4931,2.2047,2.0594,2.1016,1.9811,1.9018,1.9011,1.8811,1.8691,1.8684,1.8691,1.8684,1.8684,1.8684,1.8691,1.8684,1.8691,1.8784,1.8971,1.8818,1.8691,1.8718,1.8905,1.9045,1.9138,1.9319,1.9579,1.9853,1.99,1.9973,2.0194,2.0294,2.0334,2.0361,2.0595,2.0775,2.0815,2.0969,2.1076,2.1076,2.1102,2.1102,2.1102,2.1102,2.1102,2.1102,2.1102,2.1102,2.1102,2.1102,2.1102,2.1102,2.1102,2.1102,2.1102,2.1102,2.1096,2.1082,2.1089,2.1056,2.1089,2.1082,2.1069,2.1042,2.1029,2.1069,2.1049,2.1056,2.0975,3.124,3.0918,3.0908,3.0898,3.0898,3.0898,3.0859,3.081,3.082,3.081,3.0287,2.827,2.6558,2.5252,2.5044,2.5642,2.6575,2.5368,2.5393,2.646,2.5484,2.5076,2.5738,2.5636,2.6406,2.7881,2.8027,2.8728,2.9957,2.8882,2.8282,2.8437,2.9789,3.0374,3.0374,3.0383,3.0519,3.0509,3.0073,2.907,2.755,2.7382,2.6617,2.4893,2.5916,2.4957,2.2628,2.2927,2.2161,1.9924,1.9564,1.9319,1.9319,1.9292,1.9279,1.9272,1.9272,1.9285,1.9279,1.9292,1.9259,1.9285,1.9259,1.9272,1.9325,1.9305,1.9285,1.9299,1.9312,1.9432,1.9686,1.9746,1.988,2.0147,2.0194,2.0207,2.0287,2.0474,2.0635,2.0635,2.0875,2.1069,2.1042,2.1076,2.1102,2.1102,2.1102,2.1102,2.1102,2.1102,2.1102,2.1102,2.1102,2.1102,2.1102,2.1102,2.1102,2.1102,2.1102,2.1102,2.1102,2.1102,2.1102,2.1102,2.1102,2.1102,2.1102,2.1102,2.1102,2.1102,2.1102,2.1102,2.1102,2.1102,2.1036,3.166,3.1269,3.126,3.1123,3.0908,3.0898,3.0898,3.0898,3.0898,3.0898,3.085,2.9901,2.915,2.8434,2.7461,2.7452,2.7813,2.6381,2.6499,2.7813,2.7335,2.7668,2.8663,2.8799,2.9136,2.9766,2.9903,3.0265,3.0645,3.0157,2.9893,2.9893,3.0635,3.0898,3.0898,3.0898,3.0898,3.0889,3.0703,3.0161,2.9479,2.8899,2.8324,2.7593,2.7237,2.6812,2.5766,2.4014,2.2573,2.1957,2.1145,2.0249,1.9488,2.0256,2.0256,1.9475,1.9366,1.9366,1.9366,1.9366,1.9366,1.9366,1.9366,1.9432,1.9606,1.9626,1.9686,1.9826,1.972,1.9746,2.0013,2.0054,2.0174,2.0428,2.0494,2.0555,2.0735,2.0848,2.0929,2.0935,2.1036,2.1102,2.1102,2.1102,2.1102,2.1102,2.1102,2.1102,2.1102,2.1102,2.1102,2.1102,2.1102,2.1102,2.1102,2.1102,2.1102,2.1102,2.1102,2.1102,2.1102,2.1102,2.1102,2.1102,2.1102,2.1102,2.1102,2.1102,2.1102,2.1102,2.1102,2.1102,2.1102,2.1102,2.1102,3.208,3.1709,3.1572,3.1348,3.1064,3.0937,3.0898,3.0898,3.0898,3.0898,3.0898,3.0898,3.0898,3.0762,2.9648,2.9039,2.8911,2.7811,2.794,2.9039,2.9039,2.9776,3.0889,3.0898,3.0898,3.0898,3.0889,3.0889,3.0898,3.0898,3.0898,3.0898,3.0898,3.0898,3.0898,3.0898,3.0898,3.0898,3.0898,3.0898,3.0801,3.0264,2.9873,2.9634,2.8691,2.8258,2.8319,2.5307,2.3475,2.3464,2.2871,2.1817,2.0273,2.1161,2.1233,2.027,2.0371,2.0371,2.0033,2.0116,1.9932,1.9603,1.9546,1.9686,1.9867,1.9913,2.0054,2.0287,2.016,2.0147,2.0307,2.0361,2.0481,2.0742,2.0795,2.0889,2.1062,2.1102,2.1096,2.1102,2.1096,2.1102,2.1102,2.1102,2.1102,2.1102,2.1102,2.1102,2.1102,2.1102,2.1102,2.1102,2.1102,2.1102,2.1102,2.1102,2.1102,2.1102,2.1102,2.1102,2.1102,2.1102,2.1102,2.1102,2.1102,2.1102,2.1102,2.1102,2.1102,2.1102,2.1102,2.1102,2.1102,2.1102,2.1102,3.2529,3.21,3.1689,3.1523,3.1465,3.1074,3.0908,3.0937,3.0898,3.0898,3.0898,3.0898,3.0898,3.0898,3.0645,3.0772,3.0772,3.0518,3.0401,3.0645,3.0645,3.0772,3.0889,3.0898,3.0898,3.0898,3.0898,3.0898,3.0898,3.0898,3.0898,3.0898,3.0898,3.0898,3.0898,3.0898,3.0898,3.0898,3.0898,3.0898,3.0889,3.084,3.0566,3.0215,3.0052,2.9146,2.7737,2.7209,2.5797,2.2891,2.4114,2.3977,2.2195,2.2158,2.203,2.1668,2.2733,2.2846,2.166,2.1553,2.1138,2.0037,1.9993,2.0187,2.0207,2.0221,2.0347,2.0628,2.0628,2.0628,2.0895,2.0779,2.0762,2.1009,2.1069,2.1076,2.1096,2.1102,2.1102,2.1102,2.1102,2.1102,2.1102,2.1102,2.1102,2.1102,2.1102,2.1102,2.1102,2.1102,2.1102,2.1102,2.1102,2.1102,2.1102,2.1102,2.1102,2.1102,2.1102,2.1102,2.1102,2.1102,2.1102,2.1102,2.1102,2.1102,2.1102,2.1102,2.1102,2.1102,2.1102,2.1102,2.1102,2.1102,2.1102,3.2949,3.2529,3.2109,3.1934,3.1885,3.1475,3.1289,3.1269,3.0996,3.0898,3.0898,3.0898,3.0898,3.0898,3.0898,3.0898,3.0898,3.0898,3.0898,3.0898,3.0898,3.0898,3.0898,3.0898,3.0898,3.0898,3.0898,3.0898,3.0898,3.0898,3.0898,3.0898,3.0898,3.0898,3.0898,3.0898,3.0898,3.0898,3.0898,3.0898,3.0898,3.0898,3.0801,3.0654,3.0644,3.019,2.9165,2.8325,2.7035,2.5625,2.526,2.4729,2.4142,2.4001,2.3496,2.2478,2.2805,2.2345,2.0963,2.0816,2.0646,2.0201,2.0167,2.0456,2.0474,2.0528,2.0635,2.0869,2.0949,2.1325,2.2054,2.1686,2.0995,2.1082,2.1102,2.1102,2.1102,2.1102,2.1102,2.1102,2.1102,2.1102,2.1102,2.1102,2.1102,2.1102,2.1102,2.1102,2.1102,2.1102,2.1102,2.1102,2.1102,2.1102,2.1102,2.1102,2.1102,2.1102,2.1102,2.1102,2.1102,2.1102,2.1102,2.1102,2.1102,2.1102,2.1102,2.1102,2.1102,2.1102,2.1102,2.1102,2.1102,2.1102,2.1102,3.3252,3.2949,3.2539,3.2373,3.2324,3.1914,3.1728,3.167,3.1279,3.1094,3.1074,3.0957,3.0898,3.0898,3.0898,3.0898,3.0898,3.0898,3.0898,3.0898,3.0898,3.0898,3.0898,3.0898,3.0898,3.0898,3.0898,3.0898,3.0898,3.0898,3.0898,3.0898,3.0898,3.0898,3.0898,3.0898,3.0898,3.0898,3.0898,3.0898,3.0898,3.0898,3.0898,3.0889,3.0898,3.0752,3.0439,2.9477,2.8514,2.766,2.7151,2.6624,2.6153,2.6371,2.5608,2.3748,2.4444,2.3748,2.1548,2.1973,2.2264,2.1334,2.1783,2.2162,2.2356,2.2378,2.2493,2.2644,2.2695,2.3318,2.3807,2.3311,2.2695,2.2452,2.172,2.1355,2.1727,2.1481,2.1102,2.1102,2.1102,2.1102,2.1102,2.1102,2.1102,2.1102,2.1102,2.1102,2.1102,2.1102,2.1102,2.1102,2.1102,2.1102,2.1102,2.1102,2.1102,2.1102,2.1102,2.1102,2.1102,2.1102,2.1102,2.1102,2.1102,2.1102,2.1102,2.1102,2.1102,2.1102,2.1102,2.1102,2.1102,2.1102,2.1102,3.3418,3.333,3.2969,3.2803,3.2744,3.2344,3.2178,3.21,3.1709,3.1504,3.1406,3.1094,3.0947,3.0898,3.0898,3.0898,3.0898,3.0898,3.0898,3.0898,3.0898,3.0898,3.0898,3.0898,3.0898,3.0898,3.0898,3.0898,3.0898,3.0898,3.0898,3.0898,3.0898,3.0898,3.0898,3.0898,3.0898,3.0898,3.0898,3.0898,3.0898,3.0898,3.0898,3.0898,3.0898,3.0879,3.085,3.0723,2.9954,2.8847,2.971,2.9811,2.8199,2.8718,2.8106,2.5934,2.7651,2.6928,2.3613,2.5409,2.5456,2.3937,2.4785,2.5392,2.5286,2.5432,2.5457,2.5359,2.5489,2.5863,2.5863,2.5741,2.5489,2.5619,2.3186,2.2097,2.2709,2.209,2.1102,2.1102,2.1102,2.1102,2.1102,2.1102,2.1102,2.1102,2.1102,2.1102,2.1102,2.1102,2.1102,2.1102,2.1102,2.1102,2.1102,2.1102,2.1102,2.1102,2.1102,2.1102,2.1102,2.1102,2.1102,2.1102,2.1102,2.1102,2.1102,2.1102,2.1102,2.1102,2.1102,2.1102,2.1102,2.1102,2.1102,3.3418,3.3398,3.3281,3.3223,3.3174,3.2773,3.2598,3.2559,3.2148,3.1797,3.1533,3.1377,3.1162,3.0947,3.0898,3.0898,3.0898,3.0898,3.0898,3.0898,3.0898,3.0898,3.0898,3.0898,3.0898,3.0898,3.0898,3.0898,3.0898,3.0898,3.0898,3.0898,3.0898,3.0898,3.0898,3.0898,3.0898,3.0898,3.0898,3.0898,3.0898,3.0898,3.0898,3.0898,3.0898,3.0898,3.0898,3.0898,3.0645,3.0147,2.953,2.8856,2.8709,2.9697,2.9505,2.7694,2.8174,2.7803,2.5534,2.5849,2.6405,2.5343,2.5684,2.5968,2.5976,2.6098,2.6098,2.6098,2.5976,2.6349,2.7194,2.6582,2.6219,2.5976,2.417,2.2959,2.3333,2.2215,2.1229,2.1102,2.1102,2.1102,2.1102,2.1102,2.1102,2.1102,2.1102,2.1102,2.1102,2.1102,2.1102,2.1102,2.1102,2.1102,2.1102,2.1102,2.1102,2.1102,2.1102,2.1102,2.1102,2.1102,2.1102,2.1102,2.1102,2.1102,2.1102,2.1102,2.1102,2.1102,2.1102,2.1102,2.1102,2.1102,2.1102,3.3418,3.3418,3.3418,3.3418,3.3398,3.3125,3.3037,3.2969,3.2578,3.2246,3.2012,3.1826,3.1523,3.1191,3.1123,3.1025,3.0908,3.0898,3.0898,3.0898,3.0898,3.0898,3.0898,3.0898,3.0898,3.0898,3.0898,3.0898,3.0898,3.0898,3.0898,3.0898,3.0898,3.0898,3.0898,3.0898,3.0898,3.0898,3.0898,3.0898,3.0898,3.0898,3.0898,3.0898,3.0898,3.0898,3.0898,3.0898,3.0898,3.0762,2.9893,2.9403,2.9403,3.0255,3.0147,2.8911,2.8783,2.8408,2.647,2.7168,2.7443,2.7073,2.7443,2.7811,2.7811,2.782,2.782,2.7811,2.7931,2.8179,2.8911,2.8545,2.782,2.782,2.5871,2.4417,2.3698,2.2716,2.1727,2.1348,2.1102,2.1102,2.1102,2.1102,2.1102,2.1102,2.1102,2.1102,2.1102,2.1102,2.1122,2.1122,2.1102,2.1102,2.1102,2.1102,2.1102,2.1102,2.1102,2.1102,2.1102,2.1102,2.1102,2.1102,2.1102,2.1102,2.1102,2.1102,2.1102,2.1102,2.1102,2.1102,2.1102,2.1102,2.1102,3.3418,3.3418,3.3418,3.3418,3.3418,3.3389,3.3369,3.333,3.3008,3.2773,3.2666,3.2344,3.1924,3.1582,3.1445,3.125,3.0957,3.0898,3.0898,3.0898,3.0898,3.0898,3.0898,3.0898,3.0898,3.0898,3.0898,3.0898,3.0898,3.0898,3.0898,3.0898,3.0898,3.0898,3.0898,3.0898,3.0898,3.0898,3.0898,3.0898,3.0898,3.0898,3.0898,3.0898,3.0898,3.0898,3.0898,3.0898,3.0898,3.0889,3.0762,3.0645,3.0772,3.0889,3.0138,2.8911,3.002,2.9157,2.7692,2.892,2.9903,2.8792,2.9648,3.0898,3.0401,3.0274,3.0274,3.0274,3.0401,3.0645,3.0645,3.0528,3.0518,3.0392,2.782,2.5635,2.41,2.3751,2.2943,2.1837,2.1289,2.1169,2.1243,2.1229,2.1229,2.1223,2.1243,2.1269,2.1269,2.1309,2.1209,2.1229,2.1323,2.1349,2.143,2.143,2.143,2.141,2.1316,2.1189,2.1129,2.1102,2.1102,2.1102,2.1102,2.1102,2.1102,2.1102,2.1102,2.1102,2.1102,2.1102,2.1102,2.1102,2.1102,3.3418,3.3418,3.3418,3.3418,3.3418,3.3418,3.3418,3.3408,3.331,3.3066,3.2822,3.2685,3.2197,3.1562,3.1514,3.1289,3.0976,3.0898,3.0898,3.0898,3.0898,3.0898,3.0898,3.0898,3.0898,3.0898,3.0898,3.0898,3.0898,3.0898,3.0898,3.0898,3.0898,3.0898,3.0898,3.0898,3.0898,3.0898,3.0898,3.0898,3.0898,3.0898,3.0898,3.0898,3.0898,3.0898,3.0898,3.0898,3.0898,3.0898,3.0898,3.0898,3.0898,3.0889,3.0645,3.0392,3.0518,3.0645,3.003,3.0284,3.0645,3.0392,3.0518,3.0898,3.0898,3.0898,3.0898,3.0898,3.0898,3.0898,3.0898,3.0898,3.0898,3.0645,2.9076,2.7332,2.5953,2.4679,2.3754,2.3592,2.2612,2.1957,2.182,2.1697,2.1704,2.1704,2.1697,2.169,2.1637,2.165,2.161,2.1717,2.179,2.1777,2.1784,2.1784,2.1784,2.177,2.161,2.1329,2.1223,2.1102,2.1102,2.1102,2.1102,2.1102,2.1102,2.1102,2.1102,2.1102,2.1102,2.1102,2.1102,2.1102,2.1102,3.3418,3.3418,3.3418,3.3418,3.3418,3.3418,3.3418,3.3418,3.3408,3.3184,3.2861,3.2793,3.2324,3.1562,3.1514,3.1289,3.0928,3.0898,3.0898,3.0898,3.0898,3.0898,3.0898,3.0898,3.0898,3.0898,3.0898,3.0898,3.0898,3.0898,3.0898,3.0898,3.0898,3.0898,3.0898,3.0898,3.0898,3.0898,3.0898,3.0898,3.0898,3.0898,3.0898,3.0898,3.0898,3.0898,3.0898,3.0898,3.0898,3.0898,3.0898,3.0898,3.0898,3.0898,3.0898,3.0898,3.0898,3.0898,3.0898,3.0898,3.0898,3.0898,3.0898,3.0898,3.0898,3.0898,3.0898,3.0898,3.0898,3.0898,3.0898,3.0898,3.0986,3.1015,3.0287,2.9148,2.7781,2.7043,2.6205,2.549,2.4279,2.3138,2.3014,2.251,2.2123,2.1971,2.1924,2.1937,2.1937,2.1991,2.2024,2.2064,2.2058,2.1997,2.1971,2.1971,2.1957,2.1964,2.1777,2.151,2.1289,2.1136,2.1102,2.1102,2.1102,2.1102,2.1102,2.1102,2.1102,2.1102,2.1102,2.1102,2.1102,2.1102,2.1102,3.3418,3.3418,3.3418,3.3418,3.3418,3.3418,3.3379,3.334,3.331,3.3086,3.2754,3.2725,3.2226,3.1523,3.1504,3.1289,3.0898,3.0898,3.0898,3.0898,3.0898,3.0898,3.0898,3.0898,3.0898,3.0898,3.0898,3.0898,3.0898,3.0898,3.0898,3.0898,3.0898,3.0898,3.0898,3.0898,3.0898,3.0898,3.0898,3.0898,3.0898,3.0898,3.0898,3.0898,3.0898,3.0898,3.0898,3.0898,3.0898,3.0898,3.0898,3.0898,3.0898,3.0898,3.0898,3.0898,3.0898,3.0898,3.0898,3.0898,3.0898,3.0898,3.0898,3.0898,3.0898,3.0898,3.0898,3.0898,3.0898,3.0898,3.0898,3.0898,3.1074,3.1357,3.1394,3.0844,2.9952,2.9701,2.9164,2.7832,2.6063,2.5153,2.4505,2.3615,2.2488,2.3217,2.2791,2.2291,2.2285,2.2298,2.2278,2.2245,2.2211,2.2151,2.2138,2.2138,2.2118,2.2084,2.1864,2.1617,2.1349,2.1203,2.1136,2.1102,2.1102,2.1102,2.1102,2.1102,2.1102,2.1102,2.1102,2.1102,2.1102,2.1102,2.1102,3.3418,3.3418,3.3418,3.3418,3.3418,3.3408,3.3223,3.293,3.293,3.2695,3.2373,3.2305,3.1992,3.1504,3.1455,3.1289,3.0918,3.0898,3.0898,3.0898,3.0898,3.0898,3.0898,3.0898,3.0898,3.0898,3.0898,3.0898,3.0898,3.0898,3.0898,3.0898,3.0898,3.0898,3.0898,3.0898,3.0898,3.0898,3.0898,3.0898,3.0898,3.0898,3.0898,3.0898,3.0898,3.0898,3.0898,3.0898,3.0898,3.0898,3.0898,3.0898,3.0898,3.0898,3.0898,3.0898,3.0898,3.0898,3.0898,3.0898,3.0898,3.0898,3.0898,3.0898,3.0898,3.0898,3.0898,3.0898,3.0898,3.0898,3.0898,3.0898,3.1133,3.1484,3.1826,3.2007,3.1798,3.0909,3.0176,2.9736,2.8517,2.7392,2.7253,2.5756,2.4849,2.4625,2.3962,2.293,2.2896,2.3112,2.3333,2.3658,2.3151,2.3116,2.2975,2.2835,2.2392,2.2258,2.2004,2.179,2.153,2.1223,2.1129,2.1102,2.1102,2.1102,2.1102,2.1102,2.1102,2.1102,2.1102,2.1102,2.1102,2.1102,2.1102,3.3418,3.3398,3.3213,3.3135,3.3096,3.291,3.2705,3.2529,3.25,3.2266,3.1934,3.1855,3.1621,3.124,3.1221,3.1084,3.0947,3.0898,3.0898,3.0898,3.0898,3.0898,3.0898,3.0898,3.0898,3.0898,3.0898,3.0898,3.0898,3.0898,3.0898,3.0898,3.0898,3.0898,3.0898,3.0898,3.0898,3.0898,3.0898,3.0898,3.0898,3.0898,3.0898,3.0898,3.0898,3.0898,3.0898,3.0898,3.0898,3.0898,3.0898,3.0898,3.0898,3.0898,3.0898,3.0898,3.0898,3.0898,3.0898,3.0898,3.0898,3.0898,3.0898,3.0898,3.0898,3.0898,3.0898,3.0898,3.0898,3.0898,3.0898,3.0898,3.1152,3.1709,3.2021,3.2412,3.2786,3.2178,3.1711,3.1652,3.0468,2.9691,2.8935,2.7759,2.6964,2.6581,2.6456,2.568,2.5821,2.5916,2.5814,2.5665,2.4785,2.426,2.3989,2.3562,2.2842,2.2498,2.2198,2.2004,2.1784,2.1436,2.1109,2.1102,2.1102,2.1102,2.1102,2.1102,2.1102,2.1102,2.1102,2.1102,2.1102,2.1102,2.1102,3.3223,3.3203,3.2851,3.2695,3.2646,3.2344,3.2158,3.207,3.207,3.1826,3.1484,3.1416,3.123,3.0967,3.0928,3.0898,3.0898,3.0898,3.0898,3.0898,3.0898,3.0898,3.0898,3.0898,3.0898,3.0898,3.0898,3.0898,3.0898,3.0898,3.0898,3.0898,3.0898,3.0898,3.0898,3.0898,3.0898,3.0898,3.0898,3.0898,3.0898,3.0898,3.0898,3.0898,3.0898,3.0898,3.0898,3.0898,3.0898,3.0898,3.0898,3.0898,3.0898,3.0898,3.0898,3.0898,3.0898,3.0898,3.0898,3.0898,3.0898,3.0898,3.0898,3.0898,3.0898,3.0898,3.0898,3.0898,3.0898,3.0898,3.0898,3.0898,3.1269,3.1816,3.208,3.2539,3.3105,3.3369,3.3136,3.3019,3.21,3.1304,3.0642,2.9726,2.9083,2.8567,2.8435,2.8303,2.8435,2.8172,2.7768,2.7379,2.6314,2.592,2.5778,2.3889,2.3202,2.3064,2.2651,2.2183,2.185,2.147,2.1129,2.1109,2.1102,2.1102,2.1102,2.1102,2.1102,2.1102,2.1102,2.1102,2.1102,2.1102,2.1102,3.2373,3.2373,3.2295,3.2275,3.2256,3.2187,3.1934,3.166,3.1631,3.1387,3.1055,3.0996,3.0986,3.0898,3.0898,3.0898,3.0898,3.0898,3.0898,3.0898,3.0898,3.0898,3.0898,3.0898,3.0898,3.0898,3.0898,3.0898,3.0898,3.0898,3.0898,3.0898,3.0898,3.0898,3.0898,3.0898,3.0898,3.0898,3.0898,3.0898,3.0898,3.0898,3.0898,3.0898,3.0898,3.0898,3.0898,3.0898,3.0898,3.0898,3.0898,3.0898,3.0898,3.0898,3.0898,3.0898,3.0898,3.0898,3.0898,3.0898,3.0898,3.0898,3.0898,3.0898,3.0898,3.0898,3.0898,3.0898,3.0898,3.0898,3.0898,3.0898,3.1113,3.1562,3.1953,3.2324,3.2812,3.3154,3.334,3.3204,3.2971,3.2756,3.1963,3.1304,3.078,3.0133,2.9744,2.9483,2.9352,2.9091,2.8689,2.8303,2.7908,2.7776,2.7768,2.5069,2.3412,2.3735,2.3314,2.2153,2.1787,2.1349,2.1156,2.1116,2.1102,2.1102,2.1102,2.1102,2.1102,2.1102,2.1102,2.1102,2.1102,2.1102,2.1102,3.2168,3.2148,3.1924,3.1826,3.1797,3.1592,3.1396,3.1211,3.1191,3.1084,3.0937,3.0898,3.0898,3.0898,3.0898,3.0898,3.0898,3.0898,3.0898,3.0898,3.0898,3.0898,3.0898,3.0898,3.0898,3.0898,3.0898,3.0898,3.0898,3.0898,3.0898,3.0898,3.0898,3.0898,3.0898,3.0898,3.0898,3.0898,3.0898,3.0898,3.0898,3.0898,3.0898,3.0898,3.0898,3.0898,3.0898,3.0898,3.0898,3.0898,3.0898,3.0898,3.0898,3.0898,3.0898,3.0898,3.0898,3.0898,3.0898,3.0898,3.0898,3.0898,3.0898,3.0898,3.0898,3.0898,3.0898,3.0898,3.0898,3.0898,3.0898,3.0898,3.1103,3.1435,3.1728,3.2031,3.2422,3.2842,3.3018,3.3135,3.3116,3.3058,3.3155,3.2629,3.2228,3.1826,3.1185,3.0918,3.0531,3.0401,3.0133,2.9916,2.9622,2.8723,2.8567,2.6564,2.462,2.4699,2.3941,2.2776,2.1923,2.1524,2.1156,2.1109,2.1102,2.1348,2.1102,2.1102,2.1102,2.1102,2.1102,2.1102,2.1102,2.1102,2.1102,3.1914,3.1885,3.1543,3.1387,3.1338,3.1045,3.0908,3.0898,3.0908,3.0908,3.0898,3.0898,3.0898,3.0898,3.0898,3.0898,3.0898,3.0898,3.0898,3.0898,3.0898,3.0898,3.0898,3.0898,3.0898,3.0898,3.0898,3.0898,3.0898,3.0898,3.0898,3.0898,3.0898,3.0898,3.0898,3.0898,3.0898,3.0898,3.0898,3.0898,3.0898,3.0898,3.0898,3.0898,3.0898,3.0898,3.0898,3.0898,3.0898,3.0898,3.0898,3.0898,3.0898,3.0898,3.0898,3.0898,3.0898,3.0898,3.0898,3.0898,3.0898,3.0898,3.0898,3.0898,3.0898,3.0898,3.0898,3.0898,3.0898,3.0898,3.0898,3.0898,3.1045,3.1269,3.1465,3.167,3.2021,3.2353,3.2607,3.2793,3.3037,3.3213,3.3165,3.3292,3.2756,3.2756,3.2237,3.2365,3.21,3.2365,3.219,3.1912,3.1382,2.9894,2.9023,2.7905,2.6697,2.6391,2.4937,2.3355,2.2426,2.1617,2.1543,2.172,2.1971,2.209,2.1594,2.1102,2.1102,2.1102,2.1102,2.1102,2.1102,2.1102,2.1102,3.1035,3.1045,3.0996,3.0967,3.0967,3.0918,3.0898,3.0898,3.0898,3.0898,3.0898,3.0898,3.0898,3.0898,3.0898,3.0898,3.0898,3.0898,3.0898,3.0898,3.0898,3.0898,3.0898,3.0898,3.0898,3.0898,3.0898,3.0898,3.0898,3.0898,3.0898,3.0898,3.0898,3.0898,3.0898,3.0898,3.0898,3.0898,3.0898,3.0898,3.0898,3.0898,3.0898,3.0898,3.0898,3.0898,3.0898,3.0898,3.0898,3.0898,3.0898,3.0898,3.0898,3.0898,3.0898,3.0898,3.0898,3.0898,3.0898,3.0898,3.0898,3.0898,3.0898,3.0898,3.0898,3.0898,3.0898,3.0898,3.0898,3.0898,3.0898,3.0898,3.0937,3.1074,3.1279,3.1416,3.166,3.1963,3.2197,3.2305,3.251,3.2891,3.3135,3.3291,3.3292,3.3418,3.3398,3.335,3.3291,3.3193,3.3125,3.2527,3.2095,3.0863,3.0171,2.8949,2.8097,2.7902,2.6272,2.4287,2.317,2.2544,2.2516,2.2709,2.2952,2.2952,2.2577,2.2083,2.1475,2.1468,2.1964,2.172,2.1109,2.1102,2.1102,3.0898,3.0898,3.0898,3.0898,3.0898,3.0898,3.0898,3.0898,3.0898,3.0898,3.0898,3.0898,3.0898,3.0898,3.0898,3.0898,3.0898,3.0898,3.0898,3.0898,3.0898,3.0898,3.0898,3.0898,3.0898,3.0898,3.0898,3.0898,3.0898,3.0898,3.0898,3.0898,3.0898,3.0898,3.0898,3.0898,3.0898,3.0898,3.0898,3.0898,3.0898,3.0898,3.0898,3.0898,3.0898,3.0898,3.0898,3.0898,3.0898,3.0898,3.0898,3.0898,3.0898,3.0898,3.0898,3.0898,3.0898,3.0898,3.0898,3.0898,3.0898,3.0898,3.0898,3.0898,3.0898,3.0898,3.0898,3.0898,3.0898,3.0898,3.0898,3.0898,3.0898,3.0967,3.1103,3.1133,3.1299,3.1582,3.1816,3.1894,3.1992,3.2334,3.2598,3.2627,3.2725,3.2822,3.2783,3.2734,3.2676,3.2588,3.2539,3.248,3.206,3.1388,3.1066,3.041,2.9216,2.8702,2.8103,2.6149,2.427,2.3581,2.369,2.3931,2.4286,2.4163,2.3792,2.3668,2.3668,2.3427,2.3193,2.2702,2.2215,2.1229,2.1229,3.0898,3.0898,3.0898,3.0898,3.0898,3.0898,3.0898,3.0898,3.0898,3.0898,3.0898,3.0898,3.0898,3.0898,3.0898,3.0898,3.0898,3.0898,3.0898,3.0898,3.0898,3.0898,3.0898,3.0898,3.0898,3.0898,3.0898,3.0898,3.0898,3.0898,3.0898,3.0898,3.0898,3.0898,3.0898,3.0898,3.0898,3.0898,3.0898,3.0898,3.0898,3.0898,3.0898,3.0898,3.0898,3.0898,3.0898,3.0898,3.0898,3.0898,3.0898,3.0898,3.0898,3.0898,3.0898,3.0898,3.0898,3.0898,3.0898,3.0898,3.0898,3.0898,3.0898,3.0898,3.0898,3.0898,3.0898,3.0898,3.0898,3.0898,3.0898,3.0898,3.0898,3.0898,3.0928,3.0908,3.0937,3.124,3.1396,3.1406,3.1504,3.1631,3.1826,3.1836,3.1943,3.2148,3.2168,3.2139,3.2109,3.208,3.2021,3.2002,3.1647,3.1391,3.1265,3.0943,3.0121,2.9561,2.8957,2.794,2.6122,2.5269,2.5261,2.5497,2.5863,2.6599,2.697,2.647,2.5976,2.513,2.4401,2.3931,2.3318,2.209,2.1229,3.0898,3.0898,3.0898,3.0898,3.0898,3.0898,3.0898,3.0898,3.0898,3.0898,3.0898,3.0898,3.0898,3.0898,3.0898,3.0898,3.0898,3.0898,3.0898,3.0898,3.0898,3.0898,3.0898,3.0898,3.0898,3.0898,3.0898,3.0898,3.0898,3.0898,3.0898,3.0898,3.0898,3.0898,3.0898,3.0898,3.0898,3.0898,3.0898,3.0898,3.0898,3.0898,3.0898,3.0898,3.0898,3.0898,3.0898,3.0898,3.0898,3.0898,3.0898,3.0898,3.0898,3.0898,3.0898,3.0898,3.0898,3.0898,3.0898,3.0898,3.0898,3.0898,3.0898,3.0898,3.0898,3.0898,3.0898,3.0898,3.0898,3.0898,3.0898,3.0898,3.0898,3.0898,3.0898,3.0898,3.0898,3.0918,3.1045,3.0967,3.1064,3.125,3.1289,3.1357,3.1494,3.1699,3.1787,3.1768,3.1768,3.1728,3.1621,3.1504,3.1221,3.1074,3.1035,3.0684,3.0469,3.0106,2.9667,2.8911,2.794,2.7443,2.7202,2.7202,2.7692,2.892,2.9658,2.8426,2.7443,2.6461,2.5741,2.5138,2.3807,2.2215,2.1475,3.0898,3.0898,3.0898,3.0898,3.0898,3.0898,3.0898,3.0898,3.0898,3.0898,3.0898,3.0898,3.0898,3.0898,3.0898,3.0898,3.0898,3.0898,3.0898,3.0898,3.0898,3.0898,3.0898,3.0898,3.0898,3.0898,3.0898,3.0898,3.0898,3.0898,3.0898,3.0898,3.0898,3.0898,3.0898,3.0898,3.0898,3.0898,3.0898,3.0898,3.0898,3.0898,3.0898,3.0898,3.0898,3.0898,3.0898,3.0898,3.0898,3.0898,3.0898,3.0898,3.0898,3.0898,3.0898,3.0898,3.0898,3.0898,3.0898,3.0898,3.0898,3.0898,3.0898,3.0898,3.0898,3.0898,3.0898,3.0898,3.0898,3.0898,3.0898,3.0898,3.0898,3.0898,3.0898,3.0898,3.0898,3.0898,3.0898,3.0918,3.0918,3.0986,3.0976,3.0957,3.1113,3.1269,3.1338,3.1406,3.1416,3.1406,3.1309,3.125,3.1016,3.0928,3.0898,3.0898,3.0898,3.0635,3.0265,2.9648,2.9039,2.9658,2.953,2.9403,2.9157,2.9903,3.0147,2.9658,2.9039,2.8426,2.7452,2.6357,2.4655,2.2459,2.1727,3.0498,3.0498,3.0488,3.0654,3.0869,3.0898,3.0898,3.0898,3.0898,3.0898,3.0898,3.0898,3.0898,3.0898,3.0898,3.0898,3.0898,3.0898,3.0898,3.0898,3.0898,3.0898,3.0898,3.0898,3.0898,3.0898,3.0898,3.0898,3.0898,3.0898,3.0898,3.0898,3.0898,3.0898,3.0898,3.0898,3.0898,3.0898,3.0898,3.0898,3.0898,3.0898,3.0898,3.0898,3.0898,3.0898,3.0898,3.0898,3.0898,3.0898,3.0898,3.0898,3.0898,3.0898,3.0898,3.0898,3.0898,3.0898,3.0898,3.0898,3.0898,3.0898,3.0898,3.0898,3.0898,3.0898,3.0898,3.0898,3.0898,3.0898,3.0898,3.0898,3.0898,3.0898,3.0898,3.0898,3.0898,3.0898,3.0898,3.0898,3.0898,3.0898,3.0898,3.0898,3.0957,3.1074,3.1103,3.1133,3.1113,3.1094,3.1035,3.0996,3.0937,3.0898,3.0898,3.0898,3.0898,3.0889,3.0518,3.0274,3.0147,3.0762,3.0772,3.0147,3.0147,3.0772,3.0645,3.0274,3.0401,3.0645,2.9048,2.7082,2.5505,2.3559,2.2097,2.9639,2.96,2.9639,3.0117,3.0771,3.0869,3.084,3.0752,3.0771,3.0771,3.0742,3.0771,3.0781,3.0771,3.0674,3.0664,3.0684,3.0732,3.0742,3.0693,3.0625,3.0771,3.083,3.0801,3.0801,3.0879,3.0898,3.0898,3.0898,3.0898,3.0898,3.0898,3.0898,3.0898,3.0898,3.0898,3.0898,3.0898,3.0898,3.0898,3.0898,3.0898,3.0898,3.0898,3.0898,3.0898,3.0898,3.0898,3.0898,3.0898,3.0898,3.0898,3.0898,3.0898,3.0898,3.0898,3.0898,3.0898,3.0898,3.0898,3.0898,3.0898,3.0898,3.0898,3.0898,3.0898,3.0898,3.0898,3.0898,3.0898,3.0898,3.0898,3.0898,3.0898,3.0898,3.0898,3.0898,3.0898,3.0898,3.0898,3.0898,3.0898,3.0898,3.0898,3.0898,3.0918,3.0908,3.0898,3.0898,3.0898,3.0898,3.0898,3.0898,3.0898,3.0898,3.0898,3.0898,3.0898,3.0772,3.0518,3.0518,3.0772,3.0772,3.0645,3.0772,3.0889,3.0898,3.0889,3.0898,3.0772,2.9166,2.7323,2.5993,2.4286,2.2459,2.958,2.958,2.958,2.9736,3.0,3.0019,3.0019,3.0019,3.001,3.0019,3.0019,3.0019,3.001,3.001,3.0059,3.0078,3.0059,3.0019,3.0019,3.0049,3.0088,3.0215,3.0332,3.0469,3.0566,3.081,3.0889,3.0859,3.0898,3.0889,3.0889,3.0898,3.0898,3.0898,3.0898,3.0898,3.0898,3.0898,3.0898,3.0898,3.0898,3.0898,3.0898,3.0898,3.0898,3.0898,3.0898,3.0898,3.0898,3.0898,3.0898,3.0898,3.0898,3.0898,3.0898,3.0898,3.0898,3.0898,3.0898,3.0898,3.0898,3.0898,3.0898,3.0898,3.0898,3.0898,3.0898,3.0898,3.0898,3.0898,3.0898,3.0898,3.0898,3.0898,3.0898,3.0898,3.0898,3.0898,3.0898,3.0898,3.0898,3.0898,3.0898,3.0898,3.0898,3.0898,3.0898,3.0898,3.0898,3.0898,3.0898,3.0898,3.0898,3.0898,3.0898,3.0898,3.0898,3.0898,3.0898,3.0772,3.0889,3.0898,3.0889,3.0772,3.0889,3.0898,3.0898,3.0898,3.0898,3.0401,2.892,2.7563,2.6106,2.4163,2.1846,2.9121,2.9131,2.9131,2.9121,2.9189,2.9443,2.958,2.958,2.958,2.958,2.959,2.959,2.96,2.96,2.958,2.958,2.958,2.958,2.959,2.958,2.959,2.9775,2.9932,3.0,3.0107,3.043,3.0605,3.0635,3.0625,3.081,3.0889,3.0898,3.0889,3.0898,3.0898,3.0898,3.0898,3.0898,3.0898,3.0898,3.0898,3.0898,3.0898,3.0898,3.0898,3.0898,3.0898,3.0898,3.0898,3.0898,3.0898,3.0898,3.0898,3.0898,3.0898,3.0898,3.0898,3.0898,3.0898,3.0898,3.0898,3.0898,3.0898,3.0898,3.0898,3.0898,3.0898,3.0898,3.0898,3.0898,3.0898,3.0898,3.0898,3.0898,3.0898,3.0898,3.0898,3.0898,3.0898,3.0898,3.0898,3.0898,3.0898,3.0898,3.0898,3.0898,3.0898,3.0898,3.0898,3.0898,3.0898,3.0898,3.0898,3.0898,3.0898,3.0898,3.0898,3.0898,3.0898,3.0898,3.0898,3.0898,3.0898,3.0898,3.0898,3.0898,3.0898,3.0898,3.0898,3.0274,2.892,2.7572,2.6227,2.4525,2.2452,2.831,2.8301,2.8301,2.834,2.8457,2.9131,2.9463,2.9502,2.9492,2.9482,2.9492,2.9424,2.9375,2.9453,2.9473,2.9434,2.9385,2.9404,2.9394,2.9404,2.9297,2.9443,2.9512,2.956,2.9678,2.9775,2.9951,3.0195,3.0234,3.0547,3.0762,3.084,3.085,3.0879,3.0898,3.0898,3.0898,3.0898,3.0898,3.0898,3.0898,3.0898,3.0898,3.0898,3.0898,3.0898,3.0898,3.0898,3.0898,3.0898,3.0898,3.0898,3.0898,3.0898,3.0898,3.0898,3.0898,3.0898,3.0898,3.0898,3.0898,3.0898,3.0898,3.0898,3.0898,3.0898,3.0898,3.0898,3.0898,3.0898,3.0898,3.0898,3.0898,3.0898,3.0898,3.0898,3.0898,3.0898,3.0898,3.0898,3.0898,3.0898,3.0898,3.0898,3.0898,3.0898,3.0898,3.0898,3.0898,3.0898,3.0898,3.0898,3.0898,3.0898,3.0898,3.0898,3.0898,3.0898,3.0898,3.0898,3.0898,3.0898,3.0898,3.0898,3.0898,3.0898,3.0898,3.0898,3.0898,3.003,2.9039,2.8059,2.6953,2.6106,2.4525,2.8301,2.8301,2.8301,2.8301,2.833,2.8555,2.8652,2.8662,2.8662,2.8662,2.8662,2.8662,2.875,2.8662,2.8652,2.8691,2.8682,2.8662,2.8643,2.8691,2.8799,2.8896,2.9014,2.9131,2.9277,2.9482,2.9658,2.9756,2.9844,3.0195,3.04,3.041,3.0684,3.0801,3.085,3.0889,3.0898,3.0898,3.0898,3.0898,3.0898,3.0898,3.0898,3.0898,3.0898,3.0898,3.0898,3.0898,3.0898,3.0898,3.0898,3.0898,3.0898,3.0898,3.0898,3.0898,3.0898,3.0898,3.0898,3.0898,3.0898,3.0898,3.0898,3.0898,3.0898,3.0898,3.0898,3.0898,3.0898,3.0898,3.0898,3.0898,3.0898,3.0898,3.0898,3.0898,3.0898,3.0898,3.0898,3.0898,3.0898,3.0898,3.0898,3.0898,3.0898,3.0898,3.0898,3.0898,3.0898,3.0898,3.0898,3.0898,3.0898,3.0898,3.0898,3.0898,3.0898,3.0898,3.0898,3.0898,3.0898,3.0898,3.0898,3.0898,3.0898,3.0898,3.0898,3.0898,3.0898,3.0392,2.953,2.8664,2.7683,2.6953,2.6349,2.8301,2.8301,2.8301,2.8301,2.8301,2.8301,2.8301,2.8301,2.8301,2.8301,2.8301,2.832,2.8301,2.833,2.834,2.834,2.835,2.8379,2.8379,2.8379,2.8301,2.8467,2.8623,2.8701,2.8789,2.9043,2.9228,2.9307,2.9424,2.9707,2.9951,2.999,3.0391,3.0566,3.0654,3.0762,3.0898,3.0898,3.0898,3.0889,3.0898,3.0898,3.0898,3.0898,3.0898,3.0898,3.0898,3.0898,3.0898,3.0898,3.0898,3.0898,3.0898,3.0898,3.0898,3.0898,3.0898,3.0898,3.0898,3.0898,3.0898,3.0898,3.0898,3.0898,3.0898,3.0898,3.0898,3.0898,3.0898,3.0898,3.0898,3.0898,3.0898,3.0898,3.0898,3.0898,3.0898,3.0898,3.0898,3.0898,3.0898,3.0898,3.0898,3.0898,3.0898,3.0898,3.0898,3.0898,3.0898,3.0898,3.0898,3.0898,3.0898,3.0898,3.0898,3.0898,3.0898,3.0898,3.0898,3.0898,3.0898,3.0898,3.0898,3.0898,3.0898,3.0898,3.0898,3.0898,3.0889,3.0392,3.0147,2.9776,2.903,2.8179,2.7563,2.8301,2.8301,2.8301,2.8301,2.8301,2.8301,2.8301,2.8301,2.8301,2.8301,2.8301,2.8301,2.8301,2.8301,2.8301,2.8301,2.8301,2.8301,2.8301,2.8301,2.8301,2.8359,2.835,2.832,2.8467,2.8506,2.8623,2.8877,2.8994,2.9268,2.9521,2.9541,2.9941,3.0156,3.0205,3.0439,3.0586,3.0693,3.0732,3.0752,3.0869,3.0898,3.0898,3.0898,3.0898,3.0898,3.0898,3.0898,3.0898,3.0898,3.0898,3.0898,3.0898,3.0898,3.0898,3.0898,3.0898,3.0898,3.0898,3.0898,3.0898,3.0898,3.0898,3.0898,3.0898,3.0898,3.0898,3.0898,3.0898,3.0898,3.0898,3.0898,3.0898,3.0898,3.0898,3.0898,3.0898,3.0898,3.0898,3.0898,3.0898,3.0898,3.0898,3.0898,3.0898,3.0898,3.0898,3.0898,3.0898,3.0898,3.0898,3.0898,3.0898,3.0898,3.0898,3.0898,3.0898,3.0898,3.0898,3.0898,3.0898,3.0898,3.0898,3.0898,3.0898,3.0898,3.0898,3.0898,3.0898,3.0772,3.0645,3.0772,3.0274,2.9285,2.9039,2.8301,2.8301,2.8301,2.8301,2.8301,2.8301,2.8301,2.8301,2.8301,2.8301,2.8301,2.8301,2.8301,2.8301,2.8301,2.8301,2.8301,2.8301,2.8301,2.8301,2.8301,2.8301,2.8301,2.8301,2.8301,2.832,2.8408,2.8506,2.8603,2.8867,2.9092,2.9131,2.9492,2.9717,2.9726,2.9971,3.0117,3.0351,3.0381,3.0527,3.0723,3.085,3.0898,3.0898,3.0898,3.0898,3.0898,3.0898,3.0898,3.0898,3.0898,3.0898,3.0898,3.0898,3.0898,3.0898,3.0898,3.0898,3.0898,3.0898,3.0898,3.0898,3.0898,3.0898,3.0898,3.0898,3.0898,3.0898,3.0898,3.0898,3.0898,3.0898,3.0898,3.0898,3.0898,3.0898,3.0898,3.0898,3.0898,3.0898,3.0898,3.0898,3.0898,3.0898,3.0898,3.0898,3.0898,3.0898,3.0898,3.0898,3.0898,3.0898,3.0898,3.0898,3.0898,3.0898,3.0898,3.0898,3.0898,3.0898,3.0898,3.0898,3.0898,3.0898,3.0898,3.0898,3.0898,3.0898,3.0898,3.0898,3.0898,3.0898,3.0898,3.0147,3.0274,2.7842,2.8027,2.8213,2.8301,2.8301,2.8301,2.8301,2.8301,2.8301,2.8301,2.8301,2.8301,2.8291,2.8291,2.8301,2.8301,2.8301,2.8301,2.8301,2.8301,2.8301,2.8301,2.8301,2.8301,2.8301,2.8301,2.8301,2.833,2.835,2.8457,2.8662,2.873,2.9053,2.9277,2.9307,2.9443,2.9639,2.9912,2.9912,3.0088,3.043,3.0625,3.0859,3.0898,3.0889,3.0889,3.0898,3.0898,3.0898,3.0898,3.0898,3.0898,3.0898,3.0898,3.0898,3.0898,3.0898,3.0898,3.0898,3.0898,3.0898,3.0898,3.0898,3.0898,3.0898,3.0898,3.0898,3.0898,3.0898,3.0898,3.0898,3.0898,3.0898,3.0898,3.0898,3.0898,3.0898,3.0898,3.0898,3.0898,3.0898,3.0898,3.0898,3.0898,3.0898,3.0898,3.0898,3.0898,3.0898,3.0898,3.0898,3.0898,3.0898,3.0898,3.0898,3.0898,3.0898,3.0898,3.0898,3.0898,3.0898,3.0898,3.0898,3.0898,3.0898,3.0898,3.0898,3.0898,3.0898,3.0898,3.0898,3.0898,3.0889,3.0645,3.0147,2.7256,2.7617,2.7969,2.8125,2.8135,2.8115,2.8096,2.8096,2.8105,2.8105,2.8057,2.8057,2.8154,2.8281,2.8301,2.8301,2.8301,2.8301,2.8301,2.8301,2.8301,2.8301,2.8301,2.8301,2.8301,2.8301,2.8301,2.8301,2.831,2.8369,2.8398,2.8379,2.8564,2.8838,2.8955,2.9141,2.9365,2.9453,2.9492,2.9541,2.9902,3.0342,3.0625,3.0781,3.0869,3.0889,3.0898,3.0898,3.0898,3.0898,3.0898,3.0898,3.0898,3.0898,3.0898,3.0898,3.0898,3.0898,3.0898,3.0898,3.0898,3.0898,3.0898,3.0898,3.0898,3.0898,3.0898,3.0898,3.0898,3.0898,3.0898,3.0898,3.0898,3.0898,3.0898,3.0898,3.0898,3.0898,3.0898,3.0898,3.0898,3.0898,3.0898,3.0898,3.0898,3.0898,3.0898,3.0898,3.0898,3.0898,3.0898,3.0898,3.0898,3.0898,3.0898,3.0898,3.0898,3.0898,3.0898,3.0898,3.0898,3.0898,3.0898,3.0898,3.0898,3.0898,3.0898,3.0898,3.0898,3.0898,3.0898,3.0772,3.002,2.9776,2.9275,2.706,2.7148,2.7236,2.7275,2.7275,2.7275,2.7256,2.7266,2.7295,2.7256,2.7334,2.7344,2.7578,2.8281,2.8301,2.8301,2.8301,2.8301,2.8301,2.8301,2.8301,2.8301,2.8301,2.8301,2.8301,2.8301,2.8301,2.8301,2.8301,2.8301,2.8301,2.832,2.832,2.8437,2.8447,2.8643,2.8789,2.8935,2.9092,2.9141,2.9551,2.9951,3.0234,3.0459,3.0703,3.082,3.0898,3.0898,3.0898,3.0898,3.0898,3.0898,3.0898,3.0898,3.0898,3.0898,3.0898,3.0898,3.0898,3.0898,3.0898,3.0898,3.0898,3.0898,3.0898,3.0898,3.0898,3.0898,3.0898,3.0898,3.0898,3.0898,3.0898,3.0898,3.0898,3.0898,3.0898,3.0898,3.0898,3.0898,3.0898,3.0898,3.0898,3.0898,3.0898,3.0898,3.0898,3.0898,3.0898,3.0898,3.0898,3.0898,3.0898,3.0898,3.0898,3.0898,3.0898,3.0898,3.0898,3.0898,3.0898,3.0898,3.0898,3.0898,3.0898,3.0898,3.0898,3.0898,3.0898,3.0898,3.0898,3.0645,2.9658,2.8792,2.8426]}]]